[[{"header":{"parameterUnit":"m.s-1","parameterCategory":1,"la1":31.0,"la2":29.5877,"lo1":-88.7671,"lo2":-86.6584,"dy":0.0162,"dx":0.0185,"nx":115,"ny":88,"refTime":"2026-04-09T00:00:00:Z","depth":0,"parameterNumber":2,"parameterNumberName":"U-component_of_WINDS"},"data":[0.0,0.0,0.0,0.0,0.0,0.0,0.0,0.0,0.0,0.0,0.0,0.0,0.0,0.0,0.0,0.0,0.0,0.0,0.0,0.0,0.0,0.0,0.0,0.0,0.0,0.0,0.0,0.0,0.0,0.0,0.0,0.0,0.0,0.0,0.0,0.0,0.0,0.0,0.0,0.0,0.0,0.0,0.0,0.0,0.0,0.0,0.0,0.0,0.0,0.0,0.0,0.0,0.0,0.0,0.0,0.0,0.0,0.0,0.0,0.0,0.0,0.0,0.0,0.0,0.0,0.0,0.0,0.0,0.0,0.0,0.0,0.0,0.0,0.0,0.0,0.0,0.0,0.0,0.0,0.0,0.0,0.0,0.0,0.0,0.0,0.0,0.0,0.0,0.0,0.0,0.0,0.0,0.0,0.0,0.0,0.0,0.0,0.0,0.0,0.0,0.0,0.0,0.0,0.0,0.0,0.0,0.0,0.0,0.0,0.0,0.0,0.0,0.0,0.0,0.0,0.0,0.0,0.0,0.0,0.0,0.0,0.0,0.0,0.0,0.0,0.0,0.0,0.0,0.0,0.0,0.0,0.0,0.0,0.0,0.0,0.0,0.0,0.0,0.0,0.0,0.0,0.0,0.0,0.0,0.0,0.0,0.0,0.0,0.0,0.0,0.0,0.0,0.0,0.0,0.0,0.0,0.0,0.0,0.0,0.0,0.0,0.0,0.0,0.0,0.0,0.0,0.0,0.0,0.0,0.0,0.0,0.0,0.0,0.0,0.0,0.0,0.0,0.0,0.0,0.0,0.0,0.0,0.0,0.0,0.0,0.0,0.0,0.0,0.0,0.0,0.0,0.0,0.0,0.0,0.0,0.0,0.0,0.0,0.0,0.0,0.0,0.0,0.0,0.0,0.0,0.0,0.0,0.0,0.0,0.0,0.0,0.0,0.0,0.0,0.0,0.0,0.0,0.0,0.0,0.0,0.0,0.0,0.0,0.0,0.0,0.0,0.0,0.0,0.0,0.0,0.0,0.0,0.0,0.0,0.0,0.0,0.0,0.0,0.0,0.0,0.0,0.0,0.0,0.0,0.0,0.0,0.0,0.0,0.0,0.0,0.0,0.0,0.0,0.0,0.0,0.0,0.0,0.0,0.0,0.0,0.0,0.0,0.0,0.0,0.0,0.0,0.0,0.0,0.0,0.0,0.0,0.0,0.0,0.0,0.0,0.0,0.0,0.0,0.0,0.0,0.0,0.0,0.0,0.0,0.0,0.0,0.0,0.0,0.0,0.0,0.0,0.0,0.0,0.0,0.0,0.0,0.0,0.0,0.0,0.0,0.0,0.0,0.0,0.0,0.0,0.0,0.0,0.0,0.0,0.0,0.0,0.0,0.0,0.0,0.0,0.0,0.0,0.0,0.0,0.0,0.0,0.0,0.0,0.0,0.0,0.0,0.0,0.0,0.0,0.0,0.0,0.0,0.0,0.0,0.0,0.0,0.0,0.0,0.0,0.0,0.0,0.0,0.0,0.0,0.0,0.0,0.0,0.0,0.0,0.0,0.0,0.0,0.0,0.0,0.0,0.0,0.0,0.0,0.0,0.0,0.0,0.0,0.0,0.0,0.0,0.0,0.0,0.0,0.0,0.0,0.0,0.0,0.0,0.0,0.0,0.0,0.0,0.0,0.0,0.0,0.0,0.0,0.0,0.0,0.0,0.0,0.0,0.0,0.0,0.0,0.0,0.0,0.0,0.0,0.0,0.0,0.0,0.0,0.0,0.0,0.0,0.0,0.0,0.0,0.0,0.0,0.0,0.0,0.0,0.0,0.0,0.0,0.0,0.0,0.0,0.0,0.0,0.0,0.0,0.0,0.0,0.0,0.0,0.0,0.0,0.0,0.0,0.0,0.0,0.0,0.0,0.0,0.0,0.0,0.0,0.0,0.0,0.0,0.0,0.0,0.0,0.0,0.0,0.0,0.0,0.0,0.0,0.0,0.0,0.0,0.0,0.0,0.0,0.0,0.0,0.0,0.0,0.0,0.0,0.0,0.0,0.0,0.0,0.0,0.0,0.0,0.0,0.0,0.0,0.0,0.0,0.0,0.0,0.0,0.0,0.0,0.0,0.0,0.0,0.0,0.0,0.0,0.0,0.0,0.0,0.0,0.0,0.0,0.0,0.0,0.0,0.0,0.0,0.0,0.0,0.0,0.0,0.0,0.0,0.0,0.0,0.0,0.0,0.0,0.0,0.0,0.0,0.0,0.0,0.0,0.0,0.0,0.0,0.0,0.0,0.0,0.0,0.0,0.0,0.0,0.0,0.0,0.0,0.0,0.0,0.0,0.0,0.0,0.0,0.0,0.0,0.0,0.0,0.0,0.0,0.0,0.0,0.0,0.0,0.0,0.0,0.0,0.0,0.0,0.0,0.0,0.0,0.0,0.0,0.0,0.0,0.0,0.0,0.0,0.0,0.0,0.0,0.0,0.0,0.0,0.0,0.0,0.0,0.0,0.0,0.0,0.0,0.0,0.0,0.0,0.0,0.0,0.0,0.0,0.0,0.0,0.0,0.0,0.0,0.0,0.0,0.0,0.0,0.0,0.0,0.0,0.0,0.0,0.0,0.0,0.0,0.0,0.0,0.0,0.0,0.0,0.0,0.0,0.0,0.0,0.0,0.0,0.0,0.0,0.0,0.0,0.0,0.0,0.0,0.0,0.0,0.0,0.0,0.0,0.0,0.0,0.0,0.0,0.0,0.0,0.0,0.0,0.0,0.0,0.0,0.0,0.0,0.0,0.0,0.0,0.0,0.0,0.0,0.0,0.0,0.0,0.0,0.0,0.0,0.0,0.0,0.0,0.0,0.0,0.0,0.0,0.0,0.0,0.0,0.0,0.0,0.0,0.0,0.0,0.0,0.0,0.0,0.0,0.0,0.0,0.0,0.0,0.0,0.0,0.0,0.0,0.0,0.0,0.0,0.0,0.0,0.0,0.0,0.0,0.0,0.0,0.0,0.0,0.0,0.0,0.0,0.0,0.0,0.0,0.0,0.0,0.0,0.0,0.0,0.0,0.0,0.0,0.0,0.0,0.0,0.0,0.0,0.0,0.0,0.0,0.0,0.0,0.0,0.0,0.0,0.0,0.0,0.0,0.0,0.0,0.0,0.0,0.0,0.0,0.0,0.0,0.0,0.0,0.0,0.0,0.0,0.0,0.0,0.0,0.0,0.0,0.0,0.0,0.0,0.0,0.0,0.0,0.0,0.0,0.0,0.0,0.0,0.0,0.0,0.0,0.0,0.0,0.0,0.0,0.0,0.0,0.0,0.0,0.0,0.0,0.0,0.0,0.0,0.0,0.0,0.0,0.0,0.0,0.0,0.0,0.0,0.0,0.0,0.0,0.0,0.0,0.0,0.0,0.0,0.0,0.0,0.0,0.0,0.0,0.0,0.0,0.0,0.0,0.0,0.0,0.0,0.0,0.0,0.0,0.0,0.0,0.0,0.0,0.0,0.0,0.0,0.0,0.0,0.0,0.0,0.0,0.0,0.0,0.0,0.0,0.0,0.0,0.0,0.0,0.0,0.0,0.0,0.0,0.0,0.0,0.0,0.0,0.0,0.0,0.0,0.0,0.0,0.0,0.0,0.0,0.0,0.0,0.0,0.0,0.0,0.0,0.0,0.0,0.0,0.0,0.0,0.0,0.0,0.0,0.0,0.0,0.0,0.0,0.0,0.0,0.0,0.0,0.0,0.0,0.0,0.0,0.0,0.0,0.0,0.0,0.0,0.0,0.0,0.0,0.0,0.0,0.0,0.0,0.0,0.0,0.0,0.0,0.0,0.0,0.0,0.0,0.0,0.0,0.0,0.0,0.0,0.0,0.0,0.0,0.0,0.0,0.0,0.0,0.0,0.0,0.0,0.0,0.0,0.0,0.0,0.0,0.0,0.0,0.0,0.0,0.0,0.0,0.0,0.0,0.0,0.0,0.0,0.0,0.0,0.0,0.0,0.0,0.0,0.0,0.0,0.0,0.0,0.0,0.0,0.0,0.0,0.0,0.0,0.0,0.0,0.0,0.0,0.0,0.0,0.0,0.0,0.0,0.0,0.0,0.0,0.0,0.0,0.0,0.0,0.0,0.0,0.0,0.0,0.0,0.0,0.0,0.0,0.0,0.0,0.0,0.0,0.0,0.0,0.0,0.0,0.0,0.0,0.0,0.0,0.0,0.0,0.0,0.0,0.0,0.0,0.0,0.0,0.0,0.0,0.0,0.0,0.0,0.0,0.0,0.0,0.0,-4.0024,0.0,0.0,0.0,0.0,0.0,0.0,0.0,0.0,0.0,0.0,0.0,0.0,0.0,0.0,0.0,0.0,0.0,0.0,0.0,0.0,0.0,0.0,0.0,0.0,0.0,0.0,0.0,0.0,0.0,0.0,0.0,0.0,0.0,0.0,0.0,0.0,0.0,0.0,0.0,0.0,0.0,0.0,0.0,0.0,0.0,0.0,0.0,0.0,0.0,0.0,0.0,0.0,0.0,0.0,0.0,0.0,0.0,0.0,0.0,0.0,0.0,0.0,0.0,0.0,0.0,0.0,0.0,0.0,0.0,0.0,0.0,0.0,0.0,0.0,0.0,0.0,0.0,0.0,0.0,0.0,0.0,0.0,0.0,0.0,0.0,0.0,0.0,0.0,0.0,0.0,0.0,0.0,0.0,0.0,0.0,0.0,0.0,0.0,0.0,0.0,0.0,0.0,0.0,0.0,0.0,0.0,0.0,0.0,0.0,0.0,-4.3343,-4.2983,-4.2019,-4.1209,-4.0525,0.0,0.0,0.0,0.0,0.0,0.0,0.0,0.0,0.0,0.0,0.0,0.0,0.0,0.0,0.0,0.0,0.0,0.0,0.0,0.0,0.0,0.0,0.0,0.0,0.0,0.0,0.0,0.0,0.0,0.0,0.0,0.0,0.0,0.0,0.0,0.0,0.0,0.0,0.0,0.0,0.0,0.0,0.0,0.0,0.0,0.0,0.0,0.0,0.0,0.0,0.0,0.0,0.0,0.0,0.0,0.0,0.0,0.0,0.0,0.0,0.0,0.0,0.0,0.0,0.0,0.0,0.0,0.0,0.0,0.0,0.0,0.0,0.0,0.0,0.0,0.0,0.0,0.0,0.0,0.0,0.0,0.0,0.0,0.0,0.0,0.0,0.0,0.0,0.0,0.0,0.0,0.0,0.0,0.0,0.0,0.0,0.0,0.0,0.0,0.0,0.0,0.0,0.0,0.0,0.0,0.0,0.0,0.0,0.0,0.0,0.0,0.0,-4.216,-4.1252,-4.0896,0.0,0.0,0.0,0.0,0.0,0.0,0.0,0.0,0.0,0.0,0.0,0.0,0.0,0.0,0.0,0.0,0.0,0.0,0.0,0.0,0.0,0.0,0.0,0.0,0.0,0.0,0.0,0.0,0.0,0.0,0.0,0.0,0.0,0.0,0.0,0.0,0.0,0.0,0.0,0.0,0.0,0.0,0.0,0.0,0.0,0.0,0.0,0.0,0.0,0.0,0.0,0.0,0.0,0.0,0.0,0.0,0.0,0.0,0.0,0.0,0.0,0.0,0.0,0.0,0.0,0.0,0.0,0.0,0.0,0.0,0.0,0.0,0.0,0.0,0.0,0.0,0.0,0.0,0.0,0.0,0.0,0.0,0.0,0.0,0.0,0.0,0.0,0.0,0.0,0.0,0.0,0.0,0.0,0.0,0.0,0.0,0.0,0.0,0.0,0.0,0.0,0.0,0.0,0.0,0.0,0.0,0.0,0.0,0.0,0.0,-4.3438,-4.4094,-4.3219,0.0,-4.0637,0.0,0.0,0.0,0.0,0.0,0.0,0.0,0.0,0.0,0.0,0.0,0.0,0.0,0.0,0.0,0.0,0.0,0.0,0.0,0.0,0.0,0.0,0.0,0.0,0.0,0.0,0.0,0.0,0.0,0.0,0.0,0.0,0.0,0.0,0.0,0.0,0.0,0.0,0.0,0.0,0.0,0.0,0.0,0.0,0.0,0.0,0.0,0.0,0.0,0.0,0.0,0.0,0.0,0.0,0.0,0.0,0.0,0.0,0.0,0.0,0.0,0.0,0.0,0.0,0.0,0.0,0.0,0.0,0.0,0.0,0.0,0.0,0.0,0.0,0.0,0.0,0.0,0.0,0.0,0.0,0.0,0.0,0.0,0.0,0.0,0.0,0.0,0.0,0.0,0.0,0.0,0.0,0.0,0.0,0.0,0.0,0.0,0.0,0.0,0.0,0.0,0.0,0.0,0.0,0.0,0.0,0.0,0.0,0.0,0.0,-4.3609,-4.3539,-4.2215,-4.0991,0.0,0.0,0.0,0.0,0.0,0.0,0.0,0.0,0.0,0.0,0.0,0.0,0.0,0.0,0.0,0.0,0.0,0.0,0.0,0.0,0.0,0.0,0.0,0.0,0.0,0.0,0.0,0.0,0.0,0.0,0.0,0.0,0.0,0.0,0.0,0.0,0.0,0.0,0.0,0.0,0.0,0.0,0.0,0.0,0.0,0.0,0.0,0.0,0.0,0.0,0.0,0.0,0.0,0.0,0.0,0.0,0.0,0.0,0.0,0.0,0.0,0.0,0.0,0.0,0.0,0.0,0.0,0.0,0.0,0.0,0.0,0.0,0.0,0.0,0.0,0.0,0.0,0.0,0.0,0.0,0.0,0.0,0.0,0.0,0.0,0.0,0.0,0.0,0.0,0.0,0.0,0.0,0.0,0.0,0.0,0.0,0.0,0.0,0.0,0.0,0.0,0.0,0.0,0.0,0.0,0.0,0.0,0.0,0.0,0.0,-4.3969,-4.3647,-4.2959,-4.1736,-4.0577,-3.9509,0.0,0.0,0.0,0.0,0.0,0.0,0.0,0.0,0.0,0.0,0.0,0.0,0.0,0.0,0.0,0.0,0.0,0.0,0.0,0.0,0.0,0.0,0.0,0.0,0.0,0.0,0.0,0.0,0.0,0.0,0.0,0.0,0.0,0.0,0.0,0.0,0.0,0.0,0.0,0.0,0.0,0.0,0.0,0.0,0.0,0.0,0.0,0.0,0.0,0.0,0.0,0.0,0.0,0.0,0.0,0.0,0.0,0.0,0.0,0.0,0.0,0.0,0.0,0.0,0.0,0.0,0.0,0.0,0.0,0.0,0.0,0.0,0.0,0.0,0.0,0.0,0.0,0.0,0.0,0.0,0.0,0.0,0.0,0.0,0.0,0.0,0.0,0.0,0.0,0.0,0.0,0.0,0.0,0.0,0.0,0.0,0.0,0.0,0.0,0.0,0.0,0.0,0.0,0.0,0.0,0.0,0.0,0.0,0.0,-4.4396,-4.3553,-4.2682,-4.2554,-4.1549,0.0,0.0,0.0,0.0,0.0,0.0,0.0,0.0,0.0,0.0,0.0,0.0,0.0,0.0,0.0,0.0,0.0,0.0,0.0,0.0,0.0,0.0,0.0,0.0,0.0,0.0,0.0,0.0,0.0,0.0,0.0,0.0,0.0,0.0,0.0,0.0,0.0,0.0,0.0,0.0,0.0,0.0,0.0,0.0,0.0,0.0,0.0,0.0,0.0,0.0,0.0,0.0,0.0,0.0,0.0,0.0,0.0,0.0,0.0,0.0,0.0,0.0,0.0,0.0,0.0,0.0,0.0,0.0,0.0,0.0,0.0,0.0,0.0,0.0,0.0,0.0,0.0,0.0,0.0,0.0,0.0,0.0,0.0,0.0,0.0,0.0,0.0,0.0,0.0,0.0,0.0,0.0,0.0,0.0,0.0,0.0,0.0,0.0,0.0,0.0,0.0,0.0,0.0,0.0,0.0,0.0,0.0,0.0,0.0,-4.3712,-4.3452,-4.3294,-4.3265,-4.2002,-4.0901,0.0,0.0,0.0,0.0,0.0,0.0,0.0,0.0,0.0,0.0,0.0,0.0,0.0,0.0,0.0,0.0,0.0,0.0,0.0,0.0,0.0,0.0,0.0,0.0,0.0,0.0,0.0,0.0,0.0,0.0,0.0,0.0,0.0,0.0,0.0,0.0,0.0,0.0,0.0,0.0,0.0,0.0,0.0,0.0,0.0,0.0,0.0,0.0,0.0,0.0,0.0,0.0,0.0,0.0,0.0,0.0,0.0,0.0,0.0,0.0,0.0,0.0,0.0,0.0,0.0,0.0,0.0,0.0,0.0,0.0,0.0,0.0,0.0,0.0,0.0,0.0,0.0,0.0,0.0,0.0,0.0,0.0,0.0,0.0,0.0,0.0,0.0,0.0,0.0,0.0,0.0,0.0,0.0,0.0,0.0,0.0,0.0,0.0,0.0,0.0,0.0,0.0,0.0,0.0,0.0,0.0,0.0,0.0,0.0,-4.2899,0.0,-4.3392,0.0,-4.1614,-4.0513,0.0,0.0,0.0,0.0,0.0,0.0,0.0,0.0,0.0,0.0,0.0,0.0,0.0,0.0,0.0,0.0,0.0,0.0,0.0,0.0,0.0,0.0,0.0,0.0,0.0,0.0,0.0,0.0,0.0,0.0,0.0,0.0,0.0,0.0,0.0,0.0,0.0,0.0,0.0,0.0,0.0,0.0,0.0,0.0,0.0,0.0,0.0,0.0,0.0,0.0,0.0,0.0,0.0,0.0,0.0,0.0,0.0,0.0,0.0,0.0,0.0,0.0,0.0,0.0,0.0,0.0,0.0,0.0,0.0,0.0,0.0,0.0,0.0,0.0,0.0,0.0,0.0,0.0,0.0,0.0,0.0,0.0,0.0,0.0,0.0,0.0,0.0,0.0,0.0,0.0,0.0,0.0,0.0,0.0,0.0,0.0,0.0,0.0,0.0,0.0,0.0,0.0,0.0,0.0,0.0,0.0,0.0,0.0,-4.2367,-4.2899,-4.4042,-4.3686,-4.1742,-4.1612,-4.0607,0.0,0.0,0.0,0.0,0.0,0.0,0.0,0.0,0.0,0.0,0.0,0.0,0.0,0.0,0.0,0.0,0.0,0.0,0.0,0.0,0.0,0.0,0.0,0.0,0.0,0.0,0.0,0.0,0.0,0.0,0.0,0.0,0.0,0.0,0.0,0.0,0.0,0.0,0.0,0.0,0.0,0.0,0.0,0.0,0.0,0.0,0.0,0.0,0.0,0.0,0.0,0.0,0.0,0.0,0.0,0.0,0.0,0.0,0.0,0.0,0.0,0.0,0.0,0.0,0.0,0.0,0.0,0.0,0.0,0.0,0.0,0.0,0.0,0.0,0.0,0.0,0.0,0.0,0.0,0.0,0.0,0.0,0.0,0.0,0.0,0.0,0.0,0.0,0.0,0.0,0.0,0.0,0.0,0.0,0.0,0.0,0.0,0.0,0.0,0.0,0.0,0.0,0.0,0.0,0.0,0.0,0.0,0.0,0.0,-4.203,-4.2843,-4.3233,-4.3006,-4.1614,-4.0802,0.0,0.0,0.0,0.0,0.0,0.0,0.0,0.0,0.0,0.0,0.0,0.0,0.0,0.0,0.0,0.0,0.0,0.0,0.0,0.0,0.0,0.0,0.0,0.0,0.0,0.0,0.0,0.0,0.0,0.0,0.0,0.0,0.0,0.0,0.0,0.0,0.0,0.0,0.0,0.0,0.0,0.0,0.0,0.0,0.0,0.0,0.0,0.0,0.0,0.0,0.0,0.0,0.0,0.0,0.0,0.0,0.0,0.0,0.0,0.0,0.0,0.0,0.0,0.0,0.0,0.0,0.0,0.0,0.0,0.0,0.0,0.0,0.0,0.0,0.0,0.0,0.0,0.0,0.0,0.0,0.0,0.0,0.0,0.0,0.0,0.0,0.0,0.0,0.0,0.0,0.0,0.0,0.0,0.0,0.0,0.0,0.0,0.0,0.0,0.0,0.0,0.0,0.0,0.0,0.0,0.0,0.0,0.0,0.0,-4.2843,-4.346,-4.3751,-4.3719,-4.2132,-4.1128,-4.0802,0.0,0.0,0.0,0.0,0.0,0.0,0.0,0.0,0.0,0.0,0.0,0.0,0.0,0.0,0.0,0.0,0.0,0.0,0.0,0.0,0.0,0.0,0.0,0.0,0.0,0.0,0.0,0.0,0.0,0.0,0.0,0.0,0.0,0.0,0.0,0.0,0.0,0.0,0.0,0.0,0.0,0.0,0.0,0.0,0.0,0.0,0.0,0.0,0.0,0.0,0.0,0.0,0.0,0.0,0.0,0.0,0.0,0.0,0.0,0.0,0.0,0.0,0.0,0.0,0.0,0.0,0.0,0.0,0.0,0.0,0.0,0.0,0.0,0.0,0.0,0.0,0.0,0.0,0.0,0.0,0.0,0.0,0.0,0.0,0.0,0.0,0.0,0.0,0.0,0.0,0.0,0.0,0.0,0.0,0.0,0.0,0.0,0.0,0.0,0.0,0.0,0.0,0.0,0.0,0.0,0.0,0.0,0.0,-4.4949,-4.5662,-4.5403,-4.4043,-4.3072,-4.168,0.0,0.0,0.0,0.0,0.0,0.0,0.0,0.0,0.0,0.0,0.0,0.0,0.0,0.0,0.0,0.0,0.0,0.0,0.0,0.0,0.0,0.0,0.0,0.0,0.0,0.0,0.0,0.0,0.0,0.0,0.0,0.0,0.0,0.0,0.0,0.0,0.0,0.0,0.0,0.0,0.0,0.0,0.0,0.0,0.0,0.0,0.0,0.0,0.0,0.0,0.0,0.0,0.0,0.0,0.0,0.0,0.0,0.0,0.0,0.0,0.0,0.0,0.0,0.0,0.0,0.0,0.0,0.0,0.0,0.0,0.0,0.0,0.0,0.0,0.0,0.0,0.0,0.0,0.0,0.0,0.0,0.0,0.0,0.0,0.0,0.0,0.0,0.0,0.0,0.0,0.0,0.0,0.0,0.0,0.0,0.0,0.0,0.0,0.0,0.0,0.0,0.0,0.0,0.0,0.0,0.0,0.0,0.0,0.0,-4.7054,-4.835,-4.8317,-4.6892,-4.4107,-4.236,0.0,0.0,0.0,0.0,0.0,0.0,0.0,0.0,0.0,0.0,0.0,0.0,0.0,0.0,0.0,0.0,0.0,0.0,0.0,0.0,0.0,0.0,0.0,0.0,0.0,0.0,0.0,0.0,0.0,0.0,0.0,0.0,0.0,0.0,0.0,0.0,0.0,0.0,0.0,0.0,0.0,0.0,0.0,0.0,0.0,0.0,0.0,0.0,0.0,0.0,0.0,0.0,0.0,0.0,0.0,0.0,0.0,0.0,0.0,0.0,0.0,0.0,0.0,0.0,0.0,0.0,0.0,0.0,0.0,0.0,0.0,0.0,0.0,0.0,0.0,0.0,0.0,0.0,0.0,0.0,0.0,0.0,0.0,0.0,0.0,0.0,0.0,0.0,0.0,0.0,0.0,0.0,0.0,0.0,0.0,0.0,0.0,0.0,0.0,0.0,0.0,0.0,0.0,0.0,0.0,0.0,0.0,0.0,-4.5402,-4.8382,-4.9839,-5.0163,-4.9354,-4.6696,-4.4431,0.0,0.0,0.0,0.0,0.0,0.0,0.0,0.0,0.0,0.0,0.0,0.0,0.0,0.0,0.0,0.0,0.0,0.0,0.0,0.0,0.0,0.0,0.0,0.0,0.0,0.0,0.0,0.0,0.0,0.0,0.0,0.0,0.0,0.0,0.0,0.0,0.0,0.0,0.0,0.0,0.0,0.0,0.0,0.0,0.0,0.0,0.0,0.0,0.0,0.0,0.0,0.0,0.0,0.0,0.0,0.0,0.0,0.0,0.0,0.0,0.0,0.0,0.0,0.0,0.0,0.0,0.0,0.0,0.0,0.0,0.0,0.0,0.0,0.0,0.0,0.0,0.0,0.0,0.0,0.0,0.0,0.0,0.0,0.0,0.0,0.0,0.0,0.0,0.0,0.0,0.0,0.0,0.0,0.0,0.0,0.0,0.0,0.0,0.0,0.0,0.0,0.0,0.0,0.0,0.0,0.0,0.0,0.0,-4.689,-4.9192,-5.0584,-5.1329,-5.1329,-4.9645,-4.6825,0.0,0.0,0.0,0.0,0.0,0.0,0.0,0.0,0.0,0.0,0.0,0.0,0.0,0.0,0.0,0.0,0.0,0.0,0.0,0.0,0.0,0.0,0.0,0.0,0.0,0.0,0.0,0.0,0.0,0.0,0.0,0.0,0.0,0.0,0.0,0.0,0.0,0.0,0.0,0.0,0.0,0.0,0.0,0.0,0.0,0.0,0.0,0.0,0.0,0.0,0.0,0.0,0.0,0.0,0.0,0.0,0.0,0.0,0.0,0.0,0.0,0.0,0.0,0.0,0.0,0.0,0.0,0.0,0.0,0.0,0.0,0.0,0.0,0.0,0.0,0.0,0.0,0.0,0.0,0.0,0.0,0.0,0.0,0.0,0.0,0.0,0.0,0.0,0.0,0.0,0.0,0.0,0.0,0.0,0.0,0.0,0.0,0.0,0.0,0.0,0.0,0.0,0.0,0.0,0.0,0.0,0.0,0.0,-4.7303,-5.0617,-5.1556,-5.2268,-5.2819,-4.8706,-4.5824,0.0,0.0,0.0,0.0,0.0,0.0,0.0,0.0,0.0,0.0,0.0,0.0,0.0,0.0,0.0,0.0,0.0,0.0,0.0,0.0,0.0,0.0,0.0,0.0,0.0,0.0,0.0,0.0,0.0,0.0,0.0,0.0,0.0,0.0,0.0,0.0,0.0,0.0,0.0,0.0,0.0,0.0,0.0,0.0,0.0,0.0,0.0,0.0,-3.976,0.0,0.0,0.0,0.0,0.0,0.0,0.0,0.0,0.0,0.0,0.0,0.0,0.0,0.0,0.0,0.0,0.0,0.0,0.0,0.0,0.0,0.0,0.0,0.0,0.0,0.0,0.0,0.0,0.0,0.0,0.0,0.0,0.0,0.0,0.0,0.0,0.0,0.0,0.0,0.0,0.0,0.0,0.0,0.0,0.0,0.0,0.0,0.0,0.0,0.0,0.0,0.0,0.0,0.0,0.0,0.0,0.0,0.0,0.0,-4.7594,-5.0472,-5.1324,-5.1849,-5.1965,-4.8568,-4.6413,0.0,0.0,0.0,0.0,0.0,0.0,0.0,0.0,0.0,0.0,0.0,0.0,0.0,0.0,0.0,0.0,0.0,0.0,0.0,0.0,0.0,0.0,0.0,0.0,0.0,0.0,0.0,0.0,0.0,0.0,0.0,0.0,0.0,0.0,0.0,0.0,0.0,0.0,0.0,0.0,0.0,0.0,0.0,0.0,0.0,0.0,0.0,0.0,0.0,0.0,0.0,0.0,0.0,0.0,0.0,0.0,0.0,0.0,0.0,0.0,0.0,0.0,0.0,0.0,0.0,0.0,0.0,0.0,0.0,0.0,0.0,0.0,0.0,0.0,0.0,0.0,0.0,0.0,0.0,0.0,0.0,0.0,0.0,0.0,0.0,0.0,0.0,0.0,0.0,0.0,0.0,0.0,0.0,0.0,0.0,0.0,0.0,0.0,0.0,0.0,0.0,0.0,0.0,0.0,0.0,0.0,0.0,-4.5647,-4.7734,-4.9876,-5.0606,-5.0948,-5.0965,-4.882,-4.7415,-4.6831,0.0,0.0,0.0,0.0,0.0,0.0,0.0,0.0,0.0,0.0,0.0,0.0,0.0,0.0,0.0,0.0,0.0,0.0,0.0,0.0,0.0,0.0,0.0,0.0,0.0,0.0,0.0,0.0,0.0,0.0,0.0,0.0,0.0,0.0,0.0,0.0,0.0,0.0,-3.8986,-3.9421,0.0,0.0,0.0,0.0,0.0,0.0,0.0,0.0,-3.9944,0.0,0.0,0.0,0.0,0.0,0.0,0.0,0.0,0.0,0.0,0.0,0.0,0.0,0.0,0.0,0.0,0.0,0.0,0.0,0.0,0.0,0.0,0.0,0.0,0.0,0.0,0.0,0.0,0.0,0.0,0.0,0.0,0.0,0.0,0.0,0.0,0.0,0.0,0.0,0.0,0.0,0.0,0.0,0.0,0.0,0.0,0.0,0.0,0.0,0.0,0.0,0.0,0.0,0.0,0.0,0.0,-4.5549,-4.6013,-4.7659,-5.0549,-5.005,-5.0389,-5.1587,-4.9063,-4.7283,-4.6501,0.0,0.0,0.0,0.0,0.0,0.0,0.0,0.0,0.0,0.0,0.0,0.0,0.0,0.0,0.0,0.0,0.0,0.0,0.0,0.0,0.0,0.0,0.0,0.0,0.0,0.0,0.0,0.0,0.0,0.0,0.0,0.0,0.0,0.0,0.0,0.0,0.0,0.0,0.0,-4.2295,-4.244,0.0,0.0,0.0,0.0,0.0,0.0,0.0,0.0,-4.0757,0.0,0.0,0.0,0.0,0.0,0.0,0.0,0.0,0.0,0.0,0.0,0.0,0.0,0.0,0.0,0.0,0.0,0.0,0.0,0.0,0.0,0.0,0.0,0.0,0.0,0.0,0.0,0.0,0.0,0.0,0.0,0.0,0.0,0.0,0.0,0.0,0.0,0.0,0.0,0.0,0.0,0.0,0.0,0.0,0.0,0.0,0.0,0.0,0.0,0.0,0.0,0.0,0.0,0.0,0.0,-4.4825,-4.6045,-4.7719,-4.9885,-4.9667,-4.9811,-5.0365,-4.781,-4.6029,0.0,0.0,0.0,0.0,0.0,0.0,0.0,0.0,0.0,0.0,0.0,0.0,0.0,0.0,0.0,0.0,0.0,0.0,0.0,0.0,0.0,0.0,0.0,0.0,0.0,0.0,0.0,0.0,0.0,0.0,0.0,0.0,0.0,0.0,0.0,0.0,0.0,0.0,0.0,0.0,-4.3398,-4.334,-4.4356,0.0,0.0,0.0,0.0,0.0,0.0,-4.1744,-4.157,0.0,0.0,0.0,0.0,0.0,0.0,0.0,0.0,0.0,0.0,0.0,0.0,0.0,0.0,0.0,0.0,0.0,0.0,0.0,0.0,0.0,0.0,0.0,0.0,0.0,0.0,0.0,0.0,0.0,0.0,0.0,0.0,0.0,0.0,0.0,0.0,0.0,0.0,0.0,0.0,0.0,0.0,0.0,0.0,0.0,0.0,0.0,0.0,0.0,0.0,0.0,0.0,0.0,0.0,0.0,-4.3997,-4.604,-4.7865,-4.9296,-4.9243,-4.9196,-4.9209,-4.6509,-4.4689,0.0,0.0,0.0,0.0,0.0,0.0,0.0,0.0,0.0,0.0,0.0,0.0,0.0,0.0,0.0,0.0,0.0,0.0,0.0,0.0,0.0,0.0,0.0,0.0,0.0,0.0,0.0,0.0,0.0,0.0,0.0,0.0,0.0,0.0,0.0,0.0,0.0,0.0,0.0,0.0,0.0,-4.4371,-4.5692,-4.44,0.0,0.0,0.0,0.0,-4.191,-4.2534,0.0,0.0,0.0,0.0,0.0,0.0,0.0,0.0,0.0,0.0,0.0,0.0,0.0,0.0,0.0,0.0,0.0,0.0,0.0,0.0,0.0,0.0,0.0,0.0,0.0,0.0,0.0,0.0,0.0,0.0,0.0,0.0,0.0,0.0,0.0,0.0,0.0,0.0,0.0,0.0,0.0,0.0,0.0,0.0,0.0,0.0,0.0,0.0,0.0,0.0,0.0,0.0,0.0,0.0,0.0,0.0,-4.4585,-4.6082,-4.7835,-4.9778,-4.8716,-4.8641,-4.9881,-4.6197,-4.4108,0.0,0.0,0.0,0.0,0.0,0.0,0.0,0.0,0.0,0.0,0.0,0.0,0.0,0.0,0.0,0.0,0.0,0.0,0.0,0.0,0.0,0.0,0.0,0.0,0.0,0.0,0.0,0.0,0.0,0.0,0.0,0.0,0.0,0.0,0.0,0.0,0.0,0.0,0.0,0.0,0.0,-4.6633,-4.6011,-4.4976,-4.3891,0.0,0.0,-4.4234,-4.46,-4.5613,0.0,0.0,0.0,0.0,0.0,0.0,0.0,0.0,0.0,0.0,0.0,0.0,0.0,0.0,0.0,0.0,0.0,0.0,0.0,0.0,0.0,0.0,0.0,0.0,0.0,0.0,0.0,0.0,0.0,0.0,0.0,0.0,0.0,0.0,0.0,0.0,0.0,0.0,0.0,0.0,0.0,0.0,0.0,0.0,0.0,0.0,0.0,0.0,0.0,0.0,0.0,0.0,0.0,0.0,0.0,-4.1858,-4.435,-4.6344,-4.7981,-4.924,-4.8324,-4.8089,-4.8769,-4.5303,-4.3253,0.0,0.0,0.0,0.0,0.0,0.0,0.0,0.0,0.0,0.0,0.0,0.0,0.0,0.0,0.0,0.0,0.0,0.0,0.0,0.0,0.0,0.0,0.0,0.0,0.0,0.0,0.0,0.0,0.0,0.0,0.0,0.0,0.0,0.0,0.0,0.0,0.0,0.0,0.0,0.0,0.0,0.0,-4.6766,-4.6097,0.0,0.0,0.0,-4.5367,-4.4652,0.0,0.0,0.0,0.0,0.0,0.0,0.0,0.0,0.0,0.0,0.0,0.0,0.0,0.0,0.0,0.0,0.0,0.0,0.0,0.0,0.0,0.0,0.0,0.0,0.0,0.0,0.0,0.0,0.0,0.0,0.0,0.0,0.0,0.0,0.0,0.0,0.0,0.0,0.0,0.0,0.0,0.0,0.0,0.0,0.0,0.0,0.0,0.0,0.0,0.0,0.0,0.0,0.0,0.0,0.0,0.0,0.0,-4.3979,-4.6505,-4.8159,-4.8914,-4.8333,-4.8014,-4.7956,-4.5227,0.0,0.0,0.0,0.0,0.0,0.0,0.0,0.0,0.0,0.0,0.0,0.0,0.0,0.0,0.0,0.0,0.0,0.0,0.0,0.0,0.0,0.0,0.0,0.0,0.0,0.0,0.0,-3.1603,0.0,0.0,0.0,0.0,0.0,0.0,0.0,0.0,0.0,0.0,0.0,0.0,0.0,0.0,-4.612,-4.6381,-4.6328,-4.6243,0.0,0.0,-4.6538,-4.5505,-4.7815,-4.8375,0.0,0.0,0.0,0.0,0.0,0.0,0.0,0.0,0.0,0.0,0.0,0.0,0.0,0.0,0.0,0.0,0.0,0.0,0.0,0.0,0.0,0.0,0.0,0.0,0.0,0.0,0.0,0.0,0.0,0.0,0.0,0.0,0.0,0.0,0.0,0.0,0.0,0.0,0.0,0.0,0.0,0.0,0.0,0.0,0.0,0.0,0.0,0.0,0.0,0.0,0.0,0.0,0.0,0.0,0.0,-4.3979,-4.6521,-4.841,-4.9524,-4.9001,-4.8653,-4.8576,-4.6737,-4.4531,0.0,0.0,0.0,0.0,0.0,0.0,0.0,0.0,0.0,0.0,0.0,0.0,0.0,0.0,0.0,0.0,0.0,0.0,0.0,0.0,0.0,0.0,0.0,0.0,0.0,0.0,0.0,0.0,0.0,0.0,0.0,0.0,0.0,0.0,0.0,0.0,0.0,0.0,0.0,0.0,0.0,-4.4629,-4.3894,-4.4888,-4.6161,0.0,0.0,-4.838,-4.8635,-5.0719,-5.0657,-4.544,0.0,0.0,0.0,0.0,0.0,0.0,0.0,0.0,0.0,0.0,0.0,0.0,0.0,0.0,0.0,0.0,0.0,0.0,0.0,0.0,0.0,0.0,0.0,0.0,0.0,0.0,0.0,0.0,0.0,0.0,0.0,0.0,0.0,0.0,0.0,0.0,0.0,0.0,0.0,0.0,0.0,0.0,0.0,0.0,0.0,0.0,0.0,0.0,0.0,0.0,0.0,0.0,0.0,-4.1802,-4.3979,-4.655,-4.8391,-4.9582,-4.9059,-4.8711,-4.8711,-4.6882,-4.4705,0.0,0.0,0.0,0.0,0.0,0.0,0.0,0.0,0.0,0.0,0.0,0.0,0.0,0.0,0.0,0.0,0.0,0.0,0.0,0.0,0.0,0.0,0.0,0.0,0.0,0.0,0.0,0.0,-3.1308,-3.1259,-3.1669,0.0,0.0,0.0,0.0,0.0,0.0,0.0,0.0,0.0,0.0,-4.4198,-4.5179,-4.5791,0.0,0.0,-4.7777,-4.7676,-4.7324,-4.8273,-4.7802,-4.4077,-4.3148,0.0,0.0,0.0,0.0,0.0,0.0,0.0,0.0,0.0,0.0,0.0,0.0,0.0,0.0,0.0,0.0,0.0,0.0,0.0,0.0,0.0,0.0,0.0,0.0,0.0,0.0,0.0,0.0,0.0,0.0,0.0,0.0,0.0,0.0,0.0,0.0,0.0,0.0,0.0,0.0,0.0,0.0,0.0,0.0,0.0,0.0,0.0,0.0,0.0,0.0,0.0,0.0,-4.1209,-4.3312,-4.5495,-4.7149,-4.8368,-4.7971,-4.7574,-4.7206,-4.5931,-4.3874,0.0,0.0,0.0,0.0,0.0,0.0,0.0,0.0,0.0,0.0,0.0,0.0,0.0,0.0,0.0,0.0,0.0,0.0,0.0,0.0,0.0,0.0,0.0,0.0,0.0,0.0,0.0,0.0,-3.2058,-3.1886,-3.1741,0.0,0.0,0.0,0.0,0.0,0.0,0.0,0.0,0.0,0.0,-4.3532,-4.4894,-4.5505,-4.614,-4.6953,-4.6794,-4.6533,-4.6369,-4.6584,-4.5875,-4.3386,0.0,0.0,0.0,0.0,0.0,0.0,0.0,0.0,0.0,0.0,0.0,0.0,0.0,0.0,0.0,0.0,0.0,0.0,0.0,0.0,0.0,0.0,0.0,0.0,0.0,0.0,0.0,-3.9227,0.0,0.0,-3.919,0.0,0.0,0.0,0.0,0.0,0.0,0.0,0.0,0.0,0.0,0.0,0.0,0.0,0.0,0.0,0.0,0.0,0.0,0.0,0.0,0.0,0.0,-3.929,-4.1817,-4.321,-4.4432,-4.5528,-4.5502,-4.502,-4.4004,-4.3793,-4.2088,-3.8575,0.0,0.0,0.0,0.0,0.0,0.0,0.0,0.0,0.0,0.0,0.0,0.0,0.0,0.0,0.0,0.0,0.0,0.0,0.0,0.0,0.0,0.0,0.0,0.0,0.0,0.0,-3.1765,-3.2154,-3.225,0.0,0.0,0.0,0.0,0.0,0.0,0.0,0.0,0.0,0.0,-4.0807,-4.2411,-4.221,-4.3456,-4.4761,-4.5464,-4.5201,-4.5249,-4.6379,-4.6514,-4.5936,0.0,0.0,0.0,0.0,0.0,0.0,0.0,0.0,0.0,0.0,0.0,0.0,0.0,0.0,0.0,0.0,0.0,0.0,0.0,0.0,0.0,0.0,0.0,0.0,0.0,0.0,0.0,-4.114,-4.0555,0.0,0.0,0.0,0.0,0.0,0.0,0.0,0.0,0.0,0.0,0.0,-3.7184,-3.7415,0.0,0.0,0.0,0.0,0.0,0.0,0.0,0.0,0.0,0.0,0.0,0.0,-3.8745,-4.0715,-4.2717,-4.425,-4.5369,-4.5422,-4.5209,-4.4836,-4.4117,-4.2016,-3.8395,0.0,0.0,0.0,0.0,0.0,0.0,0.0,0.0,0.0,0.0,0.0,0.0,0.0,0.0,0.0,0.0,0.0,0.0,0.0,0.0,0.0,0.0,0.0,0.0,0.0,-3.2226,0.0,0.0,0.0,0.0,0.0,0.0,0.0,0.0,0.0,0.0,0.0,-3.672,-3.8445,-4.005,-4.1444,-4.2386,-4.3287,-4.4281,0.0,0.0,0.0,0.0,0.0,0.0,0.0,0.0,0.0,0.0,0.0,0.0,0.0,0.0,-3.9957,-3.835,-3.8048,-3.8155,-3.8457,0.0,0.0,0.0,0.0,0.0,0.0,0.0,0.0,0.0,0.0,0.0,0.0,0.0,0.0,-4.1272,0.0,-4.0218,0.0,0.0,0.0,0.0,0.0,0.0,0.0,0.0,-3.7273,-3.7855,-3.7959,-3.8218,-3.8194,0.0,-3.6957,-3.6085,0.0,0.0,0.0,0.0,0.0,0.0,0.0,0.0,-3.7697,-3.9442,-4.1129,-4.2445,-4.3349,-4.3607,-4.3553,-4.3401,-4.2318,-4.0359,-3.7437,-3.5853,-3.4132,0.0,0.0,0.0,0.0,0.0,0.0,0.0,0.0,0.0,0.0,0.0,0.0,0.0,0.0,0.0,0.0,0.0,0.0,0.0,0.0,0.0,0.0,0.0,-3.2713,0.0,0.0,0.0,0.0,0.0,0.0,0.0,0.0,0.0,-3.5254,-3.6483,-3.7829,-3.9441,-4.0715,-4.1725,-4.2458,0.0,0.0,0.0,0.0,0.0,0.0,0.0,-4.1513,-4.1681,-4.1529,-4.1634,-4.2478,-4.3042,-4.3275,-4.2733,0.0,0.0,-3.9894,-3.9449,-3.9421,-3.9726,-4.0259,-4.0587,-4.0094,-4.1191,-4.2087,0.0,0.0,0.0,0.0,0.0,0.0,0.0,0.0,-4.1152,-4.0651,0.0,-3.8617,0.0,0.0,0.0,0.0,0.0,-3.7694,0.0,0.0,-3.9874,-4.0619,-3.9705,-3.9681,-3.9681,-3.9633,-3.9104,-3.8022,-3.6488,-3.473,0.0,0.0,0.0,0.0,0.0,0.0,-3.6118,-3.7989,-3.8607,-3.908,-3.9664,-4.017,-4.017,-3.964,-3.8629,-3.7352,-3.5737,-3.4727,-3.3715,-3.2904,-3.1904,0.0,0.0,0.0,0.0,0.0,0.0,0.0,0.0,0.0,0.0,0.0,0.0,0.0,0.0,0.0,0.0,0.0,0.0,0.0,0.0,-3.3284,0.0,0.0,0.0,0.0,0.0,0.0,0.0,0.0,0.0,0.0,-3.6185,-3.7713,-3.9307,-4.0827,0.0,0.0,0.0,0.0,-4.3144,-4.2254,-4.1653,-4.1389,-4.1461,-4.2265,-4.2843,-4.2891,0.0,0.0,-4.3084,-4.3289,-4.3192,-4.1677,-4.2362,-4.2723,-4.2193,-4.0898,-4.0211,-4.0956,-4.0915,-4.0927,-4.1518,-4.2214,-4.2681,-4.3866,0.0,0.0,0.0,0.0,-4.181,-4.2426,-4.3152,-4.3152,-4.2561,-4.1517,-4.0835,0.0,0.0,0.0,0.0,0.0,0.0,-3.8577,-3.896,-4.009,-4.086,-4.1293,-4.1293,-4.1293,-4.1268,-4.0379,-3.9513,-3.8647,-3.7391,-3.5284,-3.2459,0.0,0.0,0.0,0.0,-3.5551,-3.6842,-3.8157,-3.908,-3.9585,-3.9753,-3.9585,-3.9056,-3.8743,-3.7998,-3.6771,-3.6098,-3.5256,-3.4246,-3.3256,0.0,0.0,0.0,0.0,0.0,0.0,0.0,0.0,0.0,0.0,0.0,0.0,0.0,0.0,0.0,0.0,0.0,0.0,0.0,-3.3236,-3.2536,-3.2154,0.0,0.0,0.0,0.0,0.0,0.0,0.0,0.0,0.0,-3.7117,-3.726,-3.7552,0.0,0.0,-4.0423,-4.0314,-4.1822,-4.3144,-4.3601,-4.3866,0.0,-4.502,-4.4443,-4.401,-4.4395,-4.502,-4.5357,-4.5068,-4.5453,-4.5645,-4.514,-4.4756,-4.4395,-4.4178,-4.3011,-4.2098,-4.2263,-4.2485,-4.2552,-4.2577,-4.3382,-4.4123,-4.4756,-4.3061,-4.2569,-4.2115,-4.1761,-4.2461,-4.3343,-4.411,-4.411,-4.3748,-4.3035,-4.2369,-4.0983,-3.9004,-3.7613,0.0,0.0,0.0,-3.8013,-3.8677,-3.9579,-4.032,-4.0935,-4.0773,-4.0718,-4.0671,-3.9697,-3.8874,-3.8364,-3.7809,-3.6237,-3.3714,0.0,0.0,-3.3284,-3.4703,-3.5881,-3.6723,-3.7878,-3.8647,-3.896,-3.9176,-3.9152,-3.8785,-3.8761,-3.8407,-3.7541,-3.6988,-3.6435,-3.5785,-3.4775,-3.3645,0.0,0.0,0.0,0.0,0.0,0.0,0.0,0.0,0.0,0.0,0.0,-3.0744,0.0,0.0,0.0,0.0,-3.1474,-3.2331,-3.2237,-3.2171,0.0,0.0,0.0,0.0,0.0,0.0,0.0,-3.3473,-3.419,-3.4916,-3.5894,-3.6081,-3.6723,-3.8608,-3.9757,-4.0315,-4.0293,0.0,-4.3697,-4.4477,-4.5053,-4.5742,-4.6559,-4.6078,-4.5718,-4.603,-4.6343,-4.6535,-4.6559,-4.6824,-4.6944,-4.668,-4.603,-4.539,-4.5453,-4.4491,-4.3529,-4.3168,-4.3289,-4.3385,-4.3096,-4.3905,-4.4595,-4.6415,-4.5718,-4.3319,-4.2461,-4.2715,-4.3686,-4.4207,-4.4333,-4.4333,-4.4247,-4.4089,-4.3144,-4.1479,-3.9245,-3.6711,0.0,-3.687,-3.6633,-3.6796,-3.7253,-3.8709,-3.9342,-3.9276,-3.8881,-3.8663,-3.8641,-3.7745,-3.7068,-3.661,-3.6724,-3.6301,-3.5344,-3.5474,-3.5537,-3.5591,-3.617,-3.6699,-3.718,-3.7733,-3.7974,-3.7998,-3.8479,-3.8743,-3.8743,-3.8743,-3.8503,-3.7998,-3.7517,-3.7252,-3.7228,-3.6141,-3.4845,-3.3408,0.0,0.0,0.0,0.0,0.0,0.0,0.0,0.0,0.0,0.0,0.0,0.0,0.0,0.0,0.0,-3.117,0.0,-3.087,-3.1998,0.0,0.0,0.0,-3.2255,-3.3155,-3.2788,-3.2776,-3.3674,0.0,0.0,-3.3672,-3.4687,-3.6683,-4.0027,-4.1193,-4.1529,-4.1092,-4.2654,-4.4213,-4.4587,-4.5269,-4.5882,-4.6167,-4.6788,-4.7178,-4.7287,-4.7497,-4.7449,-4.7425,-4.7377,-4.7233,-4.68,-4.6271,-4.591,-4.5934,-4.5453,-4.49,-4.3914,-4.3746,-4.3746,-4.3794,-4.4178,-4.4577,-4.6631,-4.6439,-4.5387,-4.476,-4.4481,-4.4722,-4.489,-4.4885,-4.4885,-4.412,-4.2776,-4.2102,-4.0289,-3.7755,-3.748,-3.7074,-3.6597,-3.7243,-3.7406,-3.7314,-3.8401,-3.8707,-3.8441,-3.8288,-3.8244,-3.82,-3.7571,-3.7243,-3.709,-3.6465,-3.6007,-3.5742,-3.5068,-3.5001,-3.5589,-3.6531,-3.706,-3.7204,-3.7709,-3.7974,-3.7974,-3.8118,-3.8166,-3.819,-3.819,-3.8118,-3.7974,-3.7878,-3.7805,-3.7781,-3.5921,-3.4495,-3.3681,-3.206,0.0,0.0,0.0,0.0,0.0,0.0,0.0,0.0,0.0,-2.9771,-2.9225,0.0,-3.0019,0.0,-2.9542,-3.0437,-3.2169,-3.1867,0.0,0.0,-3.2064,-3.2046,-3.2815,-3.2813,-3.2887,-3.3421,-3.4093,-3.4766,-3.5332,-3.5684,-3.6494,-3.8297,-3.8212,-3.8273,-3.8988,-4.0553,-4.1834,-4.2437,-4.3533,-4.4316,-4.4613,-4.5622,-4.6693,-4.7346,-4.7431,-4.7497,-4.7497,-4.7161,-4.6848,-4.6704,-4.6271,-4.5958,-4.5958,-4.5814,-4.5669,-4.5405,-4.5357,-4.5357,-4.5357,-4.5453,-4.5486,-4.5974,-4.5625,-4.4519,-4.3682,-4.3373,-4.4185,-4.4033,-4.3286,-4.3286,-4.2674,-4.1669,-4.095,-3.9663,-3.8168,-3.765,-3.7017,-3.6338,-3.6457,-3.629,-3.5915,-3.6581,-3.6832,-3.6582,-3.6373,-3.6353,-3.6269,-3.581,-3.554,-3.556,-3.5375,-3.5226,-3.4992,-3.4783,-3.4802,-3.509,-3.5626,-3.6247,-3.6726,-3.7062,-3.7203,-3.7227,-3.7227,-3.7323,-3.7584,-3.6637,-3.6254,-3.6596,-3.6572,-3.6572,-3.6549,-3.5381,-3.4372,-3.3536,-3.1765,-3.0396,0.0,0.0,0.0,0.0,0.0,0.0,0.0,0.0,0.0,0.0,0.0,-2.9947,-2.9993,-2.9884,-3.0389,-3.1899,-3.1763,-3.179,-3.2312,-3.2453,-3.2674,-3.3305,-3.3516,-3.3887,-3.4512,-3.5,-3.5469,-3.5957,-3.6348,-3.6758,-3.7305,-3.7171,-3.7493,-3.8964,-4.0444,-4.1653,-4.2133,-4.3097,-4.3801,-4.3801,-4.4528,-4.5138,-4.5461,-4.5526,-4.5458,-4.5549,-4.5879,-4.6092,-4.6068,-4.6174,-4.6367,-4.6559,-4.6415,-4.6343,-4.6559,-4.6631,-4.6463,-4.603,-4.5934,-4.5934,-4.4616,-4.4115,-4.2325,-4.1283,-4.089,-4.2479,-4.2324,-4.0891,-4.0891,-4.0825,-4.0562,-3.9433,-3.8938,-3.8659,-3.7165,-3.6134,-3.5619,-3.4913,-3.4394,-3.4023,-3.4414,-3.459,-3.4531,-3.416,-3.3984,-3.3965,-3.3594,-3.3418,-3.3398,-3.4022,-3.4104,-3.3713,-3.4313,-3.4474,-3.419,-3.4056,-3.4614,-3.5959,-3.5959,-3.5959,-3.5959,-3.5945,-3.6179,-3.6659,-3.4795,-3.4013,-3.4582,-3.4657,-3.468,-3.4703,-3.4523,-3.4032,-3.3067,-3.1532,-3.0212,0.0,-2.8808,0.0,0.0,0.0,0.0,0.0,0.0,0.0,0.0,-2.979,-3.024,-3.1038,-3.1045,-3.1055,-3.1055,-3.1777,-3.2148,-3.1914,-3.2832,-3.3691,-3.418,-3.457,-3.5078,-3.584,-3.5976,-3.6035,-3.6133,-3.6758,-3.707,-3.6992,-3.7219,-3.7946,-3.9514,-4.0703,-4.1593,-4.2408,-4.2818,-4.2799,-4.3175,-4.3339,-4.3349,-4.3049,-4.324,-4.3032,-4.3171,-4.4138,-4.5051,-4.53,-4.5739,-4.6352,-4.7293,-4.6981,-4.6771,-4.7263,-4.7401,-4.7161,-4.6439,-4.6223,-4.6126,-4.2459,-4.2281,-4.1924,-4.0813,-3.9332,-3.9664,-4.0053,-4.0345,-4.0345,-3.9668,-3.8566,-3.7199,-3.627,-3.5611,-3.525,-3.4645,-3.3954,-3.4113,-3.3945,-3.3555,-3.3984,-3.4004,-3.3672,-3.3574,-3.3535,-3.3535,-3.3457,-3.3418,-3.3418,-3.3237,-3.2927,-3.2512,-3.2316,-3.2444,-3.2934,0.0,0.0,0.0,-3.4725,-3.4725,-3.4703,-3.4438,-3.4336,-3.441,-3.3709,0.0,-3.3506,-3.3807,-3.4006,-3.3952,-3.3083,0.0,0.0,0.0,0.0,0.0,0.0,0.0,0.0,0.0,0.0,0.0,-2.9721,-2.9194,-2.87,-2.9849,-3.0736,-3.0933,-3.1544,-3.1934,-3.1934,-3.2383,-3.293,-3.3535,-3.3809,-3.4258,-3.5019,-3.5215,-3.5351,-3.5488,-3.582,-3.6152,-3.6504,-3.6699,-3.7031,-3.7559,-3.7754,-3.804,-3.8793,-3.8915,-3.8926,-3.9326,-3.9795,-4.0104,-4.1209,-4.1372,-4.1778,-4.2613,-4.3032,-4.2892,-4.2892,-4.3101,-4.3932,-4.4846,-4.4414,-4.4642,-4.6917,-4.6445,-4.5906,-4.7274,-4.7431,-4.7449,-4.7257,-4.7185,-4.7209,-4.0558,0.0,-3.96,-3.8603,0.0,-3.7468,-3.7732,-3.8109,-3.8109,-3.7729,-3.7011,-3.6268,-3.5664,-3.5039,-3.5039,-3.457,-3.375,-3.3965,-3.3848,-3.3437,-3.3652,-3.3633,-3.3418,-3.3418,-3.3418,-3.3418,-3.3418,-3.3418,-3.3418,-3.3203,-3.2891,-3.2461,-3.2051,-3.19,-3.2051,-3.1347,-3.1518,-3.2664,-3.3233,-3.3572,-3.3572,-3.3551,-3.3574,-3.3672,-3.2627,0.0,0.0,0.0,0.0,0.0,0.0,0.0,0.0,0.0,0.0,-2.9327,-2.953,-2.9702,-2.9723,-2.9654,-2.9893,-3.061,-3.0756,-3.0586,-2.9922,-3.0898,-3.1601,-3.1816,-3.2246,-3.2656,-3.3129,-3.3301,-3.3691,-3.4297,-3.459,-3.4922,-3.5332,-3.5586,-3.5703,-3.5742,-3.6094,-3.6426,-3.6641,-3.7051,-3.7422,-3.7871,-3.8125,-3.832,-3.8496,-3.8398,-3.834,-3.8535,-3.8574,-3.8865,-3.955,-3.9694,-3.989,-4.0657,-4.08,-4.08,-4.08,-4.1418,-4.2193,-4.2892,-4.2962,-4.3656,-4.4755,-4.4641,-4.4641,-4.5978,-4.6382,-4.6741,-4.7274,-4.7497,-4.7497,-3.8658,-3.8282,-3.7074,-3.6348,-3.6035,-3.6035,-3.6035,-3.6035,0.0,0.0,0.0,-3.5937,-3.5664,-3.5273,-3.5195,-3.4726,-3.3965,-3.3945,-3.3769,-3.3418,-3.3418,-3.3418,-3.3418,-3.3418,-3.3418,-3.3418,-3.3418,-3.3418,-3.3418,-3.3418,-3.3203,-3.2793,-3.2441,-3.2031,-3.1523,-3.1094,-3.0898,-3.0957,-3.1903,-3.2399,-3.242,-3.2629,-3.2841,-3.2992,-3.1499,-3.075,-3.088,-3.0976,-3.0854,-3.056,-3.054,-3.054,-3.054,-2.9555,-2.9199,-2.9531,-2.9685,-2.9763,-2.9805,-3.0195,-3.0664,-3.1191,-3.1875,-3.2129,-3.1758,-3.207,-3.2461,-3.2871,-3.2988,-3.3301,-3.4004,-3.4141,-3.4355,-3.4785,-3.5156,-3.541,-3.5508,-3.5801,-3.6035,-3.6152,-3.6445,-3.6738,-3.6934,-3.748,-3.7949,-3.8066,-3.834,-3.8516,-3.8496,-3.8496,-3.8535,-3.8574,-3.8574,-3.8647,-3.8647,-3.872,-3.8574,-3.8865,-3.8793,-3.8574,-3.8793,-3.9622,-4.0463,-4.1013,-4.17,-4.2333,-4.2823,-4.2892,-4.3171,-4.4573,-4.4937,-4.5346,-4.6741,-4.7074,-4.7141,-3.6493,-3.6366,-3.6181,-3.6074,-3.6035,-3.6035,-3.6035,-3.6035,-3.6035,-3.6035,-3.5996,-3.5644,-3.5234,-3.4785,-3.4414,-3.3984,-3.3516,-3.3516,-3.3476,-3.3418,-3.3418,-3.3418,-3.3418,-3.3418,-3.3418,-3.3418,-3.3418,-3.3418,-3.3418,-3.3418,-3.3203,-3.2832,-3.2734,-3.2305,-3.1543,-3.1094,-3.0898,-3.0898,-3.1054,-3.117,-3.117,-3.0835,-3.0655,-3.0631,-3.0148,-2.9763,-2.9849,-3.0184,-3.0305,-3.0246,-3.0226,-3.0226,-3.0226,-2.978,-2.9512,-2.957,-2.9902,-3.0273,-3.0684,-3.1094,-3.168,-3.2441,-3.2637,-3.2676,-3.2617,-3.2676,-3.2871,-3.3301,-3.3652,-3.3926,-3.4082,-3.4414,-3.4785,-3.5215,-3.5351,-3.5527,-3.5879,-3.5996,-3.6191,-3.6543,-3.6621,-3.6973,-3.7559,-3.7832,-3.8066,-3.8379,-3.8457,-3.8437,-3.8203,-3.834,-3.8555,-3.8574,-3.8574,-3.8574,-3.8574,-3.8574,-3.8574,-3.8574,-3.8574,-3.8574,-3.8574,-3.8865,-3.9478,-4.0535,-4.0105,-4.0392,-4.2193,-4.1912,-4.1912,-4.2962,-4.3309,-4.3863,-4.5255,-4.5617,-4.5978,-3.6035,-3.6035,-3.6035,-3.6035,-3.6035,-3.6035,-3.6035,-3.6035,-3.6035,-3.6035,-3.5996,-3.582,-3.5351,-3.4707,-3.4492,-3.4043,-3.3418,-3.3418,-3.3418,-3.3418,-3.3418,-3.3418,-3.3418,-3.3418,-3.3418,-3.3418,-3.3418,-3.3418,-3.3418,-3.3418,-3.332,-3.3105,-3.2695,-3.2148,-3.1523,-3.1094,-3.0898,-3.0898,-3.0898,-3.0898,-3.0898,-3.0898,-3.0801,-3.0586,-3.0586,-3.0508,-3.0293,-3.0469,-3.0469,-3.0215,-3.0195,-3.0195,-3.0195,-3.0,-3.0117,-3.0586,-3.0801,-3.1113,-3.1562,-3.1973,-3.248,-3.3086,-3.3125,-3.3242,-3.3476,-3.3496,-3.3574,-3.3769,-3.416,-3.4531,-3.4766,-3.4961,-3.5254,-3.5684,-3.5723,-3.5898,-3.6289,-3.6367,-3.6543,-3.6934,-3.7012,-3.7246,-3.7851,-3.793,-3.8086,-3.8457,-3.8398,-3.8144,-3.7949,-3.8086,-3.8223,-3.8242,-3.8418,-3.8555,-3.8574,-3.8574,-3.8574,-3.8574,-3.8574,-3.8574,-3.8574,-3.8574,-3.8918,-3.9425,-3.8991,-3.9136,-4.0586,-4.0105,-4.032,-4.1368,-4.1841,-4.2403,-4.3587,-4.407,-4.4846,-3.6035,-3.6035,-3.6035,-3.6035,-3.6035,-3.6035,-3.6035,-3.6035,-3.6035,-3.6035,-3.6016,-3.5918,-3.5488,-3.4883,-3.4648,-3.4199,-3.3613,-3.3457,-3.3418,-3.3418,-3.3418,-3.3418,-3.3418,-3.3418,-3.3418,-3.3418,-3.3418,-3.3418,-3.3418,-3.3418,-3.3418,-3.334,-3.2676,-3.2129,-3.1797,-3.1387,-3.1133,-3.1035,-3.1133,-3.1094,-3.0918,-3.1211,-3.1211,-3.0957,-3.1191,-3.1211,-3.0918,-3.0898,-3.0762,-3.0508,-3.0391,-3.043,-3.0625,-3.0547,-3.084,-3.1562,-3.166,-3.1855,-3.2285,-3.2695,-3.3066,-3.3398,-3.3516,-3.3711,-3.4023,-3.4258,-3.4316,-3.4277,-3.4609,-3.5,-3.5293,-3.5488,-3.5664,-3.5976,-3.6035,-3.6172,-3.6582,-3.6749,-3.6875,-3.7305,-3.7363,-3.7441,-3.7812,-3.793,-3.8047,-3.8262,-3.8125,-3.791,-3.7812,-3.791,-3.8047,-3.8027,-3.8301,-3.8555,-3.8574,-3.8574,-3.8574,-3.8574,-3.8574,-3.8574,-3.8574,-3.8574,-3.8647,-3.872,-3.8647,-3.872,-3.8647,-3.8647,-3.9136,-4.0105,-4.032,-4.08,-4.2193,-4.2892,-4.3794,-3.6035,-3.6035,-3.6035,-3.6035,-3.6035,-3.6035,-3.6035,-3.6035,-3.6035,-3.6035,-3.5996,-3.5625,-3.543,-3.5234,-3.4512,-3.4121,-3.3984,-3.3594,-3.3437,-3.3437,-3.3418,-3.3418,-3.3418,-3.3418,-3.3418,-3.3418,-3.3418,-3.3418,-3.3418,-3.3418,-3.3418,-3.3379,-3.2949,-3.2695,-3.2617,-3.2226,-3.1836,-3.1484,-3.1855,-3.166,-3.0937,-3.0937,-3.0937,-3.0898,-3.0937,-3.0937,-3.0898,-3.0898,-3.1055,-3.1328,-3.1035,-3.1172,-3.1876,-3.1601,-3.1601,-3.2051,-3.2109,-3.2285,-3.2715,-3.3125,-3.3379,-3.3437,-3.3789,-3.4023,-3.4121,-3.4805,-3.5078,-3.4824,-3.5059,-3.5351,-3.541,-3.5723,-3.5957,-3.6055,-3.6074,-3.6191,-3.6641,-3.6749,-3.6973,-3.7773,-3.7519,-3.7461,-3.7793,-3.7871,-3.791,-3.7969,-3.791,-3.7754,-3.7539,-3.7969,-3.8262,-3.8086,-3.8301,-3.8535,-3.8574,-3.8574,-3.8535,-3.8555,-3.8574,-3.8574,-3.8574,-3.8574,-3.8574,-3.8574,-3.8574,-3.8574,-3.8574,-3.8574,-3.8647,-3.8991,-3.9136,-3.9353,-4.0728,-4.1799,-4.3266,-3.6035,-3.6035,-3.6035,-3.6035,-3.6035,-3.6035,-3.6035,-3.6035,-3.6035,-3.6035,-3.6016,-3.584,-3.5625,-3.5371,-3.5,-3.4707,-3.4414,-3.4004,-3.3809,-3.3789,-3.3555,-3.3418,-3.3418,-3.3418,-3.3418,-3.3418,-3.3418,-3.3418,-3.3418,-3.3418,-3.3418,-3.3379,-3.3008,-3.2793,-3.2773,-3.2383,-3.1953,-3.1523,-3.1699,-3.1484,-3.0996,-3.1133,-3.1152,-3.0918,-3.0898,-3.0898,-3.0918,-3.1113,-3.1348,-3.1504,-3.1601,-3.1797,-3.2148,-3.2012,-3.2109,-3.25,-3.2773,-3.2988,-3.3164,-3.332,-3.3535,-3.3769,-3.3965,-3.416,-3.4414,-3.4785,-3.5,-3.5156,-3.5508,-3.5762,-3.5762,-3.5918,-3.6133,-3.6328,-3.6406,-3.666,-3.7344,-3.7402,-3.7578,-3.7851,-3.7559,-3.7344,-3.75,-3.7559,-3.7559,-3.7559,-3.7559,-3.75,-3.7363,-3.7812,-3.8066,-3.8027,-3.8301,-3.8555,-3.8555,-3.834,-3.834,-3.8496,-3.8574,-3.8574,-3.8574,-3.8574,-3.8574,-3.8574,-3.8574,-3.8574,-3.8574,-3.8574,-3.8574,-3.8574,-3.8574,-3.8865,-3.9405,-3.9759,-4.0659,-3.6035,-3.6035,-3.6035,-3.6035,-3.6035,-3.6035,-3.6035,-3.6035,-3.6035,-3.6035,-3.6035,-3.6035,-3.5859,-3.5586,-3.5449,-3.5195,-3.4863,-3.4434,-3.418,-3.4043,-3.375,-3.3535,-3.3437,-3.3418,-3.3418,-3.3418,-3.3418,-3.3418,-3.3418,-3.3418,-3.3418,-3.3359,-3.3105,-3.2969,-3.293,-3.2656,-3.2305,-3.1934,-3.1973,-3.1777,-3.1367,-3.1543,-3.1445,-3.0957,-3.0898,-3.0937,-3.1074,-3.1367,-3.1641,-3.1875,-3.207,-3.2285,-3.25,-3.2402,-3.2539,-3.293,-3.3242,-3.3418,-3.3418,-3.3535,-3.373,-3.4043,-3.416,-3.4375,-3.4629,-3.4687,-3.4902,-3.5332,-3.5684,-3.5859,-3.6016,-3.6035,-3.6211,-3.6601,-3.6749,-3.7012,-3.7773,-3.7851,-3.7754,-3.7871,-3.7422,-3.7129,-3.7129,-3.7129,-3.7148,-3.7305,-3.7422,-3.7461,-3.7519,-3.7832,-3.8125,-3.8105,-3.8301,-3.8418,-3.8516,-3.8379,-3.8301,-3.8418,-3.8574,-3.8574,-3.8574,-3.8574,-3.8574,-3.8574,-3.8574,-3.8574,-3.8574,-3.8574,-3.8555,-3.8574,-3.8555,-3.8496,-3.8557,-3.8177,-3.8391,-3.6035,-3.6035,-3.6035,-3.6035,-3.6035,-3.6035,-3.6035,-3.6035,-3.6035,-3.6035,-3.6035,-3.6035,-3.6016,-3.5937,-3.5586,-3.5391,-3.5293,-3.4883,-3.4492,-3.416,-3.4043,-3.3809,-3.3437,-3.3418,-3.3418,-3.3418,-3.3418,-3.3418,-3.3418,-3.3418,-3.3418,-3.3398,-3.3359,-3.3316,-3.3359,-3.3301,-3.3144,-3.2734,-3.2969,-3.2871,-3.2187,-3.217,-3.1719,-3.1055,-3.0898,-3.1094,-3.1445,-3.1523,-3.1894,-3.2695,-3.2402,-3.2539,-3.3203,-3.2969,-3.2949,-3.332,-3.3398,-3.3418,-3.3457,-3.375,-3.4004,-3.4121,-3.4375,-3.4648,-3.4629,-3.4629,-3.4844,-3.5332,-3.5371,-3.5566,-3.5957,-3.6035,-3.623,-3.6641,-3.6749,-3.7051,-3.7832,-3.7598,-3.7539,-3.7656,-3.7148,-3.6738,-3.6699,-3.6699,-3.6934,-3.7246,-3.7617,-3.7851,-3.7891,-3.8223,-3.8457,-3.8398,-3.8262,-3.8105,-3.8476,-3.8379,-3.8418,-3.8691,-3.8769,-3.8574,-3.8574,-3.8574,-3.8555,-3.8516,-3.8398,-3.8398,-3.8516,-3.8555,-3.8496,-3.8496,-3.8476,-3.8398,-3.8164,-3.7988,-3.7999,-3.6035,-3.6035,-3.6035,-3.6035,-3.6035,-3.6035,-3.6035,-3.6035,-3.6035,-3.6035,-3.6035,-3.6035,-3.6035,-3.5996,-3.5859,-3.5801,-3.5762,-3.5332,-3.5059,-3.4844,-3.4336,-3.3984,-3.3828,-3.3574,-3.3418,-3.3418,-3.3418,-3.3418,-3.3418,-3.3418,-3.3418,-3.3418,-3.3418,-3.3418,-3.3418,-3.3418,-3.3223,-3.2851,-3.2949,-3.2734,-3.2307,-3.2229,-3.2012,-3.1719,-3.1426,-3.1484,-3.1914,-3.2187,-3.248,-3.2793,-3.2891,-3.3105,-3.3359,-3.3281,-3.3262,-3.3398,-3.3418,-3.3418,-3.3437,-3.3555,-3.3789,-3.4062,-3.4199,-3.4316,-3.4297,-3.4316,-3.4492,-3.4844,-3.4961,-3.5234,-3.584,-3.6035,-3.6309,-3.6894,-3.6855,-3.6992,-3.7617,-3.7559,-3.7266,-3.707,-3.6601,-3.6269,-3.6328,-3.6504,-3.6836,-3.7246,-3.7656,-3.791,-3.7988,-3.8301,-3.8496,-3.8281,-3.8262,-3.8379,-3.8516,-3.8301,-3.8301,-3.8906,-3.9121,-3.873,-3.8574,-3.8262,-3.8164,-3.7988,-3.7949,-3.791,-3.7949,-3.8164,-3.8164,-3.8164,-3.8164,-3.8184,-3.7949,-3.7598,-3.7246,-3.6035,-3.6035,-3.6035,-3.6035,-3.6035,-3.6035,-3.6035,-3.6035,-3.6035,-3.6035,-3.6035,-3.6035,-3.6035,-3.6035,-3.6035,-3.6035,-3.5996,-3.5723,-3.5527,-3.5351,-3.4766,-3.4355,-3.4043,-3.3769,-3.3555,-3.3437,-3.3418,-3.3418,-3.3418,-3.3418,-3.3418,-3.3418,-3.3418,-3.3418,-3.3418,-3.3418,-3.3262,-3.3027,-3.3008,-3.2851,-3.2578,-3.2441,-3.2441,-3.248,-3.2148,-3.2051,-3.2363,-3.2656,-3.2871,-3.3008,-3.3281,-3.3418,-3.3418,-3.3418,-3.3418,-3.3418,-3.3418,-3.3418,-3.3437,-3.3555,-3.3769,-3.4023,-3.4062,-3.4062,-3.4062,-3.4062,-3.4277,-3.459,-3.4883,-3.5254,-3.5801,-3.6035,-3.6328,-3.6914,-3.6836,-3.6953,-3.7598,-3.7344,-3.6934,-3.6543,-3.625,-3.6055,-3.6094,-3.6562,-3.6953,-3.7285,-3.7754,-3.8105,-3.8184,-3.834,-3.8496,-3.8223,-3.8398,-3.8594,-3.8711,-3.8555,-3.832,-3.8809,-3.8867,-3.8574,-3.8437,-3.8086,-3.7715,-3.7519,-3.7383,-3.7324,-3.7422,-3.7676,-3.7754,-3.7754,-3.7871,-3.793,-3.7559,-3.707,-3.6797,-3.6035,-3.6035,-3.6035,-3.6035,-3.6035,-3.6035,-3.6035,-3.6035,-3.6035,-3.6035,-3.6035,-3.6035,-3.6035,-3.6035,-3.6035,-3.6035,-3.6016,-3.5976,-3.5781,-3.5449,-3.5332,-3.4883,-3.4219,-3.4121,-3.3867,-3.3496,-3.3437,-3.3418,-3.3418,-3.3418,-3.3418,-3.3418,-3.3418,-3.3418,-3.3418,-3.3418,-3.3418,-3.3359,-3.3359,-3.3359,-3.3359,-3.2988,-3.2969,-3.3262,-3.2949,-3.2754,-3.2793,-3.2832,-3.3008,-3.332,-3.3398,-3.3418,-3.3418,-3.3418,-3.3418,-3.3418,-3.3418,-3.3418,-3.3457,-3.375,-3.3926,-3.4004,-3.4023,-3.4023,-3.4062,-3.4082,-3.4277,-3.4746,-3.5117,-3.5547,-3.5898,-3.6035,-3.6211,-3.6601,-3.6641,-3.6797,-3.709,-3.6914,-3.6504,-3.6152,-3.6035,-3.6035,-3.6191,-3.6719,-3.7207,-3.7402,-3.7969,-3.8496,-3.8476,-3.8535,-3.8627,-3.8555,-3.8555,-3.8652,-3.8789,-3.8867,-3.8691,-3.8574,-3.8398,-3.8203,-3.832,-3.8105,-3.7559,-3.7285,-3.6992,-3.6914,-3.6953,-3.7187,-3.7383,-3.7422,-3.7578,-3.7598,-3.7168,-3.6758,-3.6523,-3.6035,-3.6035,-3.6035,-3.6035,-3.6035,-3.6035,-3.6035,-3.6035,-3.6035,-3.6035,-3.6035,-3.6035,-3.6035,-3.6035,-3.6035,-3.6035,-3.6035,-3.6016,-3.5937,-3.5801,-3.5527,-3.5273,-3.4961,-3.4648,-3.4277,-3.3887,-3.3555,-3.3418,-3.3418,-3.3418,-3.3418,-3.3418,-3.3418,-3.3418,-3.3418,-3.3418,-3.3418,-3.3418,-3.3418,-3.3418,-3.3418,-3.3301,-3.3301,-3.3379,-3.3281,-3.3223,-3.3223,-3.3223,-3.3281,-3.3418,-3.3418,-3.3418,-3.3418,-3.3418,-3.3418,-3.3418,-3.3418,-3.3418,-3.3418,-3.3555,-3.3672,-3.3652,-3.3633,-3.3789,-3.4023,-3.4101,-3.4414,-3.5039,-3.5332,-3.5566,-3.5918,-3.6035,-3.6211,-3.6621,-3.6406,-3.6406,-3.6738,-3.6504,-3.6211,-3.6074,-3.6035,-3.6035,-3.6172,-3.6777,-3.7305,-3.7402,-3.8047,-3.8574,-3.8574,-3.8574,-3.8574,-3.8574,-3.8594,-3.8613,-3.8691,-3.8769,-3.8711,-3.8574,-3.8379,-3.8223,-3.8281,-3.8008,-3.748,-3.709,-3.6777,-3.666,-3.666,-3.6797,-3.707,-3.7168,-3.7305,-3.7129,-3.6797,-3.6621,-3.6523,-3.6035,-3.6035,-3.6035,-3.6035,-3.6035,-3.6035,-3.6035,-3.6035,-3.6035,-3.6035,-3.6035,-3.6035,-3.6035,-3.6035,-3.6035,-3.6035,-3.6035,-3.6035,-3.6035,-3.5996,-3.5781,-3.5547,-3.5351,-3.4922,-3.4492,-3.4101,-3.3789,-3.3574,-3.3418,-3.3418,-3.3418,-3.3418,-3.3418,-3.3418,-3.3418,-3.3418,-3.3418,-3.3418,-3.3418,-3.3418,-3.3418,-3.3418,-3.3418,-3.3418,-3.3418,-3.3418,-3.3418,-3.3418,-3.3418,-3.3418,-3.3418,-3.3418,-3.3418,-3.3418,-3.3418,-3.3418,-3.3418,-3.3418,-3.3437,-3.3594,-3.3672,-3.3672,-3.3809,-3.4004,-3.4297,-3.4414,-3.4863,-3.5273,-3.5547,-3.5742,-3.5957,-3.6035,-3.6152,-3.6387,-3.6191,-3.6152,-3.6348,-3.6191,-3.6055,-3.6055,-3.6172,-3.623,-3.6426,-3.6973,-3.75,-3.7637,-3.8125,-3.8574,-3.8574,-3.8574,-3.8574,-3.8574,-3.8574,-3.8594,-3.8574,-3.8633,-3.8672,-3.8594,-3.8496,-3.8418,-3.8418,-3.791,-3.7363,-3.709,-3.6797,-3.6836,-3.6855,-3.6934,-3.7129,-3.7109,-3.7187,-3.7226,-3.7148,-3.6992,-3.6894,-3.6035,-3.6035,-3.6035,-3.6035,-3.6035,-3.6035,-3.6035,-3.6035,-3.6035,-3.6035,-3.6035,-3.6035,-3.6035,-3.6035,-3.6035,-3.6035,-3.6035,-3.6035,-3.6035,-3.6035,-3.5957,-3.5801,-3.5469,-3.5039,-3.4648,-3.4297,-3.416,-3.3887,-3.3555,-3.3535,-3.3437,-3.3437,-3.3418,-3.3418,-3.3418,-3.3418,-3.3418,-3.3418,-3.3418,-3.3418,-3.3418,-3.3418,-3.3418,-3.3418,-3.3476,-3.3476,-3.3418,-3.3418,-3.3418,-3.3418,-3.3418,-3.3418,-3.3418,-3.3418,-3.3418,-3.3496,-3.3476,-3.3535,-3.3594,-3.3906,-3.4101,-3.4121,-3.4394,-3.4726,-3.4766,-3.5039,-3.5293,-3.5488,-3.5781,-3.5996,-3.6016,-3.6035,-3.6055,-3.6074,-3.6152,-3.6152,-3.6074,-3.6133,-3.625,-3.6269,-3.6465,-3.6699,-3.6738,-3.7422,-3.7773,-3.7949,-3.8281,-3.8516,-3.8574,-3.8574,-3.8574,-3.8574,-3.8574,-3.8574,-3.8574,-3.8594,-3.8633,-3.8613,-3.8555,-3.8516,-3.8398,-3.7871,-3.7519,-3.7226,-3.6992,-3.7012,-3.7051,-3.7129,-3.7168,-3.7226,-3.7363,-3.7559,-3.7519,-3.7305,-3.7246,-3.6035,-3.6035,-3.6035,-3.6035,-3.6035,-3.6035,-3.6035,-3.6035,-3.6035,-3.6035,-3.6035,-3.6035,-3.6035,-3.6035,-3.6035,-3.6035,-3.6035,-3.6035,-3.6035,-3.6035,-3.6035,-3.5976,-3.5801,-3.543,-3.5156,-3.498,-3.4668,-3.4316,-3.3926,-3.3906,-3.375,-3.3418,-3.3457,-3.3437,-3.3418,-3.3437,-3.3418,-3.3418,-3.3418,-3.3418,-3.3437,-3.3437,-3.3418,-3.3457,-3.373,-3.3711,-3.3457,-3.3418,-3.3418,-3.3418,-3.3418,-3.3418,-3.3437,-3.3457,-3.3594,-3.3848,-3.3906,-3.4043,-3.4297,-3.4453,-3.4531,-3.4531,-3.4687,-3.4844,-3.5195,-3.5312,-3.5547,-3.5762,-3.5976,-3.6035,-3.6035,-3.6035,-3.6152,-3.6445,-3.6523,-3.6523,-3.6543,-3.6777,-3.6953,-3.6973,-3.7051,-3.7129,-3.7246,-3.7578,-3.7949,-3.8027,-3.8281,-3.8574,-3.8574,-3.8574,-3.8574,-3.8574,-3.8574,-3.8574,-3.8574,-3.8574,-3.8594,-3.8613,-3.8594,-3.8555,-3.834,-3.791,-3.7734,-3.7598,-3.7344,-3.7285,-3.7266,-3.7266,-3.7305,-3.7441,-3.7637,-3.7871,-3.7656,-3.7461,-3.7519,-3.6035,-3.6035,-3.6035,-3.6035,-3.6035,-3.6035,-3.6035,-3.6035,-3.6035,-3.6035,-3.6035,-3.6035,-3.6035,-3.6035,-3.6035,-3.6035,-3.6035,-3.6035,-3.6035,-3.6035,-3.6035,-3.6016,-3.5957,-3.5742,-3.5566,-3.5371,-3.5117,-3.4766,-3.4414,-3.4336,-3.418,-3.3984,-3.3789,-3.3691,-3.3691,-3.3496,-3.3418,-3.3418,-3.3418,-3.3496,-3.3672,-3.3691,-3.3691,-3.373,-3.3945,-3.3867,-3.3496,-3.3418,-3.3418,-3.3418,-3.3418,-3.3496,-3.3672,-3.3691,-3.3887,-3.4297,-3.4336,-3.4453,-3.4668,-3.4863,-3.498,-3.5039,-3.5117,-3.5371,-3.5586,-3.5664,-3.5801,-3.5957,-3.6016,-3.6035,-3.6055,-3.6172,-3.6484,-3.6855,-3.709,-3.7109,-3.6973,-3.7129,-3.7266,-3.7324,-3.7441,-3.7559,-3.7559,-3.793,-3.8125,-3.8242,-3.8398,-3.8535,-3.8574,-3.8574,-3.8574,-3.8574,-3.8574,-3.8574,-3.8574,-3.8574,-3.8574,-3.8594,-3.8594,-3.8574,-3.8398,-3.8066,-3.8086,-3.8008,-3.7734,-3.7598,-3.7637,-3.7676,-3.7754,-3.791,-3.8066,-3.8105,-3.7969,-3.7812,-3.7851,-3.6035,-3.6035,-3.6035,-3.6035,-3.6035,-3.6035,-3.6035,-3.6035,-3.6035,-3.6035,-3.6035,-3.6035,-3.6035,-3.6035,-3.6035,-3.6035,-3.6035,-3.6035,-3.6035,-3.6035,-3.6035,-3.6035,-3.6016,-3.5976,-3.5801,-3.5566,-3.5469,-3.5195,-3.4883,-3.4766,-3.4726,-3.4531,-3.4258,-3.4101,-3.3965,-3.3691,-3.3496,-3.3418,-3.3418,-3.3555,-3.3789,-3.3848,-3.3828,-3.3848,-3.4004,-3.3965,-3.373,-3.3633,-3.3633,-3.3574,-3.3516,-3.373,-3.4062,-3.4141,-3.4414,-3.4746,-3.4844,-3.4824,-3.498,-3.5351,-3.5449,-3.5488,-3.5781,-3.6016,-3.5976,-3.5957,-3.5976,-3.6016,-3.6055,-3.6191,-3.6309,-3.6543,-3.6894,-3.7285,-3.7676,-3.7695,-3.7539,-3.7422,-3.7422,-3.7441,-3.7793,-3.7949,-3.8086,-3.8301,-3.8555,-3.8398,-3.8535,-3.8555,-3.8574,-3.8574,-3.8574,-3.8574,-3.8574,-3.8574,-3.8574,-3.8574,-3.8574,-3.8594,-3.8594,-3.8574,-3.8574,-3.8418,-3.8496,-3.8418,-3.8125,-3.8105,-3.8262,-3.8301,-3.8223,-3.8262,-3.8359,-3.8457,-3.8496,-3.834,-3.8281,-3.6035,-3.6035,-3.6035,-3.6035,-3.6035,-3.6035,-3.6035,-3.6035,-3.6035,-3.6035,-3.6035,-3.6035,-3.6035,-3.6035,-3.6035,-3.6035,-3.6035,-3.6035,-3.6035,-3.6035,-3.6035,-3.6035,-3.6035,-3.6035,-3.5976,-3.5859,-3.5879,-3.5644,-3.5332,-3.5215,-3.5059,-3.4746,-3.4668,-3.4414,-3.4141,-3.4043,-3.375,-3.3496,-3.3457,-3.3535,-3.3633,-3.3691,-3.3691,-3.3691,-3.3945,-3.4219,-3.4394,-3.4434,-3.4434,-3.4355,-3.416,-3.418,-3.4492,-3.457,-3.4922,-3.5391,-3.5391,-3.5508,-3.6016,-3.5937,-3.5879,-3.5859,-3.5937,-3.6035,-3.6035,-3.6055,-3.6035,-3.6094,-3.6328,-3.6641,-3.6934,-3.709,-3.7363,-3.7715,-3.7891,-3.8047,-3.8223,-3.8262,-3.8223,-3.8262,-3.832,-3.8437,-3.8418,-3.8457,-3.8574,-3.8574,-3.8574,-3.8574,-3.8574,-3.8574,-3.8574,-3.8574,-3.8574,-3.8574,-3.8574,-3.8574,-3.8574,-3.8574,-3.8574,-3.8574,-3.8574,-3.8574,-3.8574,-3.8574,-3.8496,-3.8555,-3.8555,-3.8555,-3.8418,-3.8516,-3.8574,-3.8574,-3.8574,-3.8574,-3.8574,-3.6035,-3.6035,-3.6035,-3.6035,-3.6035,-3.6035,-3.6035,-3.6035,-3.6035,-3.6035,-3.6035,-3.6035,-3.6035,-3.6035,-3.6035,-3.6035,-3.6035,-3.6035,-3.6035,-3.6035,-3.6035,-3.6035,-3.6035,-3.6035,-3.6035,-3.6035,-3.6016,-3.5879,-3.5742,-3.5664,-3.5586,-3.5312,-3.5137,-3.4961,-3.4668,-3.4473,-3.4277,-3.4101,-3.4023,-3.4023,-3.4023,-3.4023,-3.4023,-3.4023,-3.4258,-3.4492,-3.4648,-3.4687,-3.4805,-3.4902,-3.4805,-3.4785,-3.4961,-3.5039,-3.5371,-3.582,-3.5859,-3.5859,-3.6172,-3.6172,-3.6016,-3.6035,-3.6035,-3.6172,-3.6269,-3.6328,-3.6445,-3.6601,-3.6855,-3.7129,-3.7519,-3.7598,-3.7812,-3.8125,-3.8223,-3.834,-3.8516,-3.8574,-3.8574,-3.8574,-3.8535,-3.8555,-3.8574,-3.8574,-3.8574,-3.8574,-3.8574,-3.8574,-3.8574,-3.8574,-3.8574,-3.8574,-3.8574,-3.8574,-3.8574,-3.8574,-3.8574,-3.8574,-3.8574,-3.8574,-3.8574,-3.8574,-3.8574,-3.8574,-3.8555,-3.8555,-3.8574,-3.8574,-3.8574,-3.8574,-3.8574,-3.8574,-3.8574,-3.8574,-3.8574,-3.6035,-3.6035,-3.6035,-3.6035,-3.6035,-3.6035,-3.6035,-3.6035,-3.6035,-3.6035,-3.6035,-3.6035,-3.6035,-3.6035,-3.6035,-3.6035,-3.6035,-3.6035,-3.6035,-3.6035,-3.6035,-3.6035,-3.6035,-3.6035,-3.6035,-3.6035,-3.6035,-3.5996,-3.5996,-3.6016,-3.5918,-3.5918,-3.5664,-3.5391,-3.5273,-3.5019,-3.4726,-3.459,-3.4551,-3.457,-3.459,-3.459,-3.459,-3.459,-3.4746,-3.4824,-3.4902,-3.498,-3.5117,-3.5449,-3.5488,-3.5488,-3.5488,-3.5508,-3.5664,-3.6094,-3.6055,-3.6074,-3.6211,-3.6191,-3.6152,-3.6113,-3.623,-3.6406,-3.668,-3.6777,-3.6894,-3.7129,-3.7344,-3.7578,-3.7949,-3.8027,-3.8203,-3.8457,-3.8555,-3.8574,-3.8574,-3.8574,-3.8574,-3.8574,-3.8574,-3.8574,-3.8574,-3.8574,-3.8574,-3.8574,-3.8574,-3.8594,-3.8594,-3.8594,-3.8613,-3.8574,-3.8574,-3.8574,-3.8574,-3.8613,-3.8594,-3.8633,-3.8633,-3.8652,-3.8633,-3.8574,-3.8574,-3.8574,-3.8574,-3.8574,-3.8574,-3.8574,-3.8574,-3.8574,-3.8574,-3.8574,-3.8574,-3.8574,-3.8574,-3.6035,-3.6035,-3.6035,-3.6035,-3.6035,-3.6035,-3.6035,-3.6035,-3.6035,-3.6035,-3.6035,-3.6035,-3.6035,-3.6035,-3.6035,-3.6035,-3.6035,-3.6035,-3.6035,-3.6035,-3.6035,-3.6035,-3.6035,-3.6035,-3.6035,-3.6035,-3.6035,-3.6035,-3.6035,-3.6035,-3.6035,-3.5996,-3.5937,-3.5762,-3.5488,-3.5293,-3.5098,-3.4922,-3.4844,-3.4844,-3.4785,-3.4766,-3.4766,-3.4824,-3.5098,-3.5254,-3.5351,-3.5605,-3.584,-3.5918,-3.5898,-3.5898,-3.5859,-3.5859,-3.6074,-3.6269,-3.6172,-3.6133,-3.6426,-3.6523,-3.6543,-3.6641,-3.6816,-3.7012,-3.7168,-3.7207,-3.7285,-3.7422,-3.7695,-3.7988,-3.8418,-3.8398,-3.8457,-3.8574,-3.8574,-3.8574,-3.8574,-3.8574,-3.8574,-3.8574,-3.8574,-3.8574,-3.8574,-3.8574,-3.8574,-3.8574,-3.8574,-3.8652,-3.8711,-3.8691,-3.8672,-3.8633,-3.8574,-3.8574,-3.8574,-3.8613,-3.8633,-3.8711,-3.875,-3.8809,-3.8769,-3.8633,-3.8594,-3.8828,-3.873,-3.8574,-3.8574,-3.8594,-3.8574,-3.8574,-3.8574,-3.8574,-3.8574,-3.8574,-3.8574,-3.6035,-3.6035,-3.6035,-3.6035,-3.6035,-3.6035,-3.6035,-3.6035,-3.6035,-3.6035,-3.6035,-3.6035,-3.6035,-3.6035,-3.6035,-3.6035,-3.6035,-3.6035,-3.6035,-3.6035,-3.6035,-3.6035,-3.6035,-3.6035,-3.6035,-3.6035,-3.6035,-3.6035,-3.6035,-3.6035,-3.6035,-3.6035,-3.6035,-3.5918,-3.5762,-3.5723,-3.5586,-3.5391,-3.5351,-3.5254,-3.5078,-3.5059,-3.5059,-3.5176,-3.5449,-3.5684,-3.5762,-3.5859,-3.6016,-3.6016,-3.6016,-3.6035,-3.6035,-3.6055,-3.6133,-3.6289,-3.6172,-3.6211,-3.6582,-3.6749,-3.6808,-3.6992,-3.7226,-3.7402,-3.7559,-3.7637,-3.7715,-3.793,-3.8066,-3.834,-3.8555,-3.8574,-3.8574,-3.8574,-3.8574,-3.8574,-3.8594,-3.8594,-3.8574,-3.8574,-3.8613,-3.8613,-3.8574,-3.8574,-3.8574,-3.8574,-3.8594,-3.873,-3.8887,-3.8906,-3.8926,-3.9023,-3.9004,-3.8848,-3.8848,-3.8887,-3.8906,-3.8945,-3.9004,-3.9062,-3.9141,-3.9121,-3.9199,-3.9375,-3.9141,-3.8769,-3.8613,-3.8613,-3.8594,-3.8613,-3.8613,-3.8633,-3.8594,-3.8574,-3.8574,-3.6035,-3.6035,-3.6035,-3.6035,-3.6035,-3.6035,-3.6035,-3.6035,-3.6035,-3.6035,-3.6035,-3.6035,-3.6035,-3.6035,-3.6035,-3.6035,-3.6035,-3.6035,-3.6035,-3.6035,-3.6035,-3.6035,-3.6035,-3.6035,-3.6035,-3.6035,-3.6035,-3.6035,-3.6035,-3.6035,-3.6035,-3.6035,-3.6035,-3.6035,-3.5996,-3.5957,-3.6016,-3.6035,-3.6016,-3.582,-3.5605,-3.5508,-3.5527,-3.5527,-3.5859,-3.5996,-3.5976,-3.5996,-3.6016,-3.6035,-3.6035,-3.6055,-3.6133,-3.6152,-3.6191,-3.625,-3.6211,-3.6387,-3.6699,-3.6973,-3.7168,-3.7402,-3.7519,-3.7754,-3.793,-3.8086,-3.8184,-3.8496,-3.8555,-3.8535,-3.8574,-3.8574,-3.8633,-3.8711,-3.8672,-3.8613,-3.8672,-3.8672,-3.8594,-3.8594,-3.8633,-3.8672,-3.8672,-3.8809,-3.8848,-3.8965,-3.9004,-3.9199,-3.9336,-3.9355,-3.9394,-3.9551,-3.9531,-3.9258,-3.9219,-3.9297,-3.9336,-3.9375,-3.9453,-3.9551,-3.9668,-3.9746,-3.9805,-3.9766,-3.9473,-3.9121,-3.8887,-3.8848,-3.9043,-3.9082,-3.8848,-3.875,-3.8828,-3.8691,-3.8574,-3.6035,-3.6035,-3.6035,-3.6035,-3.6035,-3.6035,-3.6035,-3.6035,-3.6035,-3.6035,-3.6035,-3.6035,-3.6035,-3.6035,-3.6035,-3.6035,-3.6035,-3.6035,-3.6035,-3.6035,-3.6035,-3.6035,-3.6035,-3.6035,-3.6035,-3.6035,-3.6035,-3.6035,-3.6035,-3.6035,-3.6035,-3.6035,-3.6035,-3.6035,-3.6035,-3.6035,-3.6035,-3.6035,-3.6035,-3.5996,-3.5918,-3.5898,-3.5898,-3.5937,-3.5976,-3.6035,-3.6035,-3.6074,-3.6094,-3.6074,-3.6055,-3.623,-3.6504,-3.6601,-3.6816,-3.6914,-3.6894,-3.6777,-3.7187,-3.7461,-3.7676,-3.7871,-3.8125,-3.8379,-3.8418,-3.8418,-3.8457,-3.8535,-3.8574,-3.8633,-3.8652,-3.8613,-3.8789,-3.8906,-3.8926,-3.8965,-3.9004,-3.9043,-3.8906,-3.8906,-3.9043,-3.8906,-3.8809,-3.8984,-3.9141,-3.9277,-3.9434,-3.9629,-3.9824,-3.9883,-3.9805,-3.9941,-3.9961,-3.9707,-3.957,-3.9648,-3.9766,-3.9805,-3.9961,-4.0078,-4.0156,-4.0215,-4.0059,-3.9961,-3.9726,-3.9726,-3.9707,-3.9726,-3.9746,-3.9551,-3.9297,-3.918,-3.9141,-3.8945,-3.8769,-3.6035,-3.6035,-3.6035,-3.6035,-3.6035,-3.6035,-3.6035,-3.6035,-3.6035,-3.6035,-3.6035,-3.6035,-3.6035,-3.6035,-3.6035,-3.6035,-3.6035,-3.6035,-3.6035,-3.6035,-3.6035,-3.6035,-3.6035,-3.6035,-3.6035,-3.6035,-3.6035,-3.6035,-3.6035,-3.6035,-3.6035,-3.6035,-3.6035,-3.6035,-3.6035,-3.6035,-3.6035,-3.6035,-3.6035,-3.6035,-3.6035,-3.6035,-3.6035,-3.6035,-3.6035,-3.6055,-3.6113,-3.6289,-3.6367,-3.6426,-3.6562,-3.6816,-3.6973,-3.7051,-3.7207,-3.7578,-3.75,-3.748,-3.7656,-3.7851,-3.8027,-3.8262,-3.8457,-3.8535,-3.8574,-3.8574,-3.8574,-3.8574,-3.8574,-3.8672,-3.8867,-3.8926,-3.9199,-3.9336,-3.9336,-3.9414,-3.9473,-3.9434,-3.9434,-3.9434,-3.9453,-3.9336,-3.9297,-3.9492,-3.9648,-3.9668,-3.9805,-3.998,-4.0273,-4.0527,-4.043,-4.0273,-4.0254,-4.0137,-4.0019,-4.0019,-4.0195,-4.0293,-4.0586,-4.0664,-4.0684,-4.0664,-4.0488,-4.0527,-4.0586,-4.0566,-4.0547,-4.0273,-3.998,-3.9844,-3.9726,-3.9648,-3.959,-3.9551,-3.9336,-3.6035,-3.6035,-3.6035,-3.6035,-3.6035,-3.6035,-3.6035,-3.6035,-3.6035,-3.6035,-3.6035,-3.6035,-3.6035,-3.6035,-3.6035,-3.6035,-3.6035,-3.6035,-3.6035,-3.6035,-3.6035,-3.6035,-3.6035,-3.6035,-3.6035,-3.6035,-3.6035,-3.6035,-3.6035,-3.6035,-3.6035,-3.6035,-3.6035,-3.6035,-3.6035,-3.6035,-3.6035,-3.6035,-3.6035,-3.6035,-3.6035,-3.6035,-3.6094,-3.6152,-3.6191,-3.623,-3.6387,-3.6621,-3.6816,-3.6894,-3.7051,-3.7246,-3.7402,-3.748,-3.7656,-3.7825,-3.7648,-3.7523,-3.785,-3.8164,-3.8281,-3.8457,-3.8574,-3.8574,-3.8574,-3.8574,-3.8574,-3.8574,-3.875,-3.8926,-3.9141,-3.9258,-3.9609,-3.9805,-3.9902,-3.9961,-4.0,-3.9883,-3.9785,-3.9726,-3.9805,-4.0,-4.0,-4.0156,-4.0195,-4.0098,-4.0176,-4.0332,-4.0605,-4.0957,-4.0879,-4.0664,-4.0644,-4.0586,-4.0547,-4.0508,-4.0644,-4.0703,-4.0996,-4.1094,-4.0996,-4.1016,-4.0957,-4.1074,-4.1172,-4.1074,-4.0859,-4.0508,-4.0215,-4.0293,-4.0293,-4.0117,-4.0039,-4.0,-3.9863,-3.6035,-3.6035,-3.6035,-3.6035,-3.6035,-3.6035,-3.6035,-3.6035,-3.6035,-3.6035,-3.6035,-3.6035,-3.6035,-3.6035,-3.6035,-3.6035,-3.6035,-3.6035,-3.6035,-3.6035,-3.6035,-3.6035,-3.6035,-3.6035,-3.6035,-3.6035,-3.6035,-3.6035,-3.6035,-3.6035,-3.6035,-3.6035,-3.6055,-3.6035,-3.6055,-3.6094,-3.6172,-3.6191,-3.6211,-3.6172,-3.6152,-3.6172,-3.6289,-3.6562,-3.666,-3.6797,-3.7168,-3.7226,-3.7266,-3.7266,-3.7422,-3.7598,-3.7832,-3.7584,-3.7725,-3.772,-3.714,-3.7066,-3.7432,-3.7909,-3.8423,-3.8555,-3.8574,-3.8574,-3.8574,-3.8594,-3.8594,-3.8691,-3.8965,-3.9219,-3.9394,-3.959,-4.0,-4.0273,-4.0371,-4.0371,-4.0332,-4.0195,-4.0098,-4.0019,-4.0156,-4.0391,-4.0527,-4.0625,-4.0605,-4.0527,-4.0625,-4.0781,-4.084,-4.1094,-4.1113,-4.1035,-4.1055,-4.1055,-4.1055,-4.1055,-4.0957,-4.0937,-4.1094,-4.1152,-4.1133,-4.1172,-4.1172,-4.1172,-4.1172,-4.1172,-4.1152,-4.0879,-4.0723,-4.0879,-4.0859,-4.0605,-4.043,-4.0371,-4.0176,-3.6035,-3.6035,-3.6035,-3.6035,-3.6035,-3.6035,-3.6035,-3.6035,-3.6035,-3.6035,-3.6035,-3.6035,-3.6035,-3.6035,-3.6035,-3.6035,-3.6035,-3.6035,-3.6035,-3.6035,-3.6035,-3.6035,-3.6035,-3.6035,-3.6035,-3.6035,-3.6035,-3.6035,-3.6035,-3.6074,-3.625,-3.6269,-3.6211,-3.6055,-3.6074,-3.6328,-3.6523,-3.6738,-3.6777,-3.6797,-3.6797,-3.6797,-3.6875,-3.7012,-3.7051,-3.7109,-3.7285,-3.7559,-3.7637,-3.7734,-3.791,-3.8033,-3.7933,-3.7372,-3.7102,-3.7106,-3.6386,-3.6108,-3.6108,-3.6775,-3.7511,-3.8501,-3.8574,-3.8613,-3.8691,-3.8809,-3.8926,-3.9101,-3.9375,-3.9668,-4.0019,-4.0176,-4.041,-4.0723,-4.082,-4.0762,-4.0684,-4.0547,-4.0527,-4.0508,-4.0664,-4.0898,-4.0976,-4.1035,-4.0996,-4.0957,-4.1074,-4.1172,-4.1172,-4.1172,-4.1172,-4.1172,-4.1172,-4.1172,-4.1172,-4.1172,-4.1172,-4.1172,-4.1172,-4.1172,-4.1172,-4.1172,-4.1172,-4.1172,-4.1172,-4.1172,-4.1172,-4.1172,-4.1133,-4.1094,-4.1055,-4.0976,-4.084,-4.0703,-4.0527,-3.6035,-3.6035,-3.6035,-3.6035,-3.6035,-3.6035,-3.6035,-3.6035,-3.6035,-3.6035,-3.6035,-3.6035,-3.6035,-3.6035,-3.6035,-3.6035,-3.6035,-3.6035,-3.6035,-3.6035,-3.6035,-3.6035,-3.6035,-3.6035,-3.6035,-3.6035,-3.6035,-3.6035,-3.6269,-3.623,-3.6484,-3.666,-3.6582,-3.6484,-3.6523,-3.6699,-3.7012,-3.7226,-3.7305,-3.7305,-3.7266,-3.7266,-3.7383,-3.7422,-3.748,-3.7617,-3.7754,-3.8008,-3.8086,-3.8203,-3.8267,-3.8224,-3.7658,-3.6996,-3.6312,-3.5941,-3.5271,-3.4556,-3.5003,-3.553,-3.6757,-3.772,-3.8642,-3.8794,-3.9004,-3.9238,-3.9394,-3.9453,-3.9824,-4.0215,-4.047,-4.0605,-4.0742,-4.1016,-4.1035,-4.0996,-4.1016,-4.0937,-4.0996,-4.1016,-4.1133,-4.1113,-4.1113,-4.1133,-4.1113,-4.1074,-4.1113,-4.1172,-4.1172,-4.1172,-4.1172,-4.1172,-4.1172,-4.1172,-4.1172,-4.1172,-4.1172,-4.1172,-4.1172,-4.1172,-4.1172,-4.1172,-4.1172,-4.1172,-4.1172,-4.1172,-4.1172,-4.1172,-4.1172,-4.1172,-4.1133,-4.1094,-4.1074,-4.0937,-4.0918,-3.6035,-3.6035,-3.6035,-3.6035,-3.6035,-3.6035,-3.6035,-3.6035,-3.6035,-3.6035,-3.6035,-3.6035,-3.6035,-3.6035,-3.6035,-3.6035,-3.6035,-3.6035,-3.6035,-3.6035,-3.6035,-3.6035,-3.6035,-3.6035,-3.6035,-3.6035,-3.6113,-3.6309,-3.6601,-3.6641,-3.6894,-3.7207,-3.7266,-3.7226,-3.7266,-3.7266,-3.7305,-3.7324,-3.7402,-3.7441,-3.7461,-3.75,-3.7676,-3.7832,-3.791,-3.8047,-3.8262,-3.8359,-3.8418,-3.8476,-3.8496,-3.797,-3.6682,-3.6238,-3.5811,-3.5641,-3.3196,-3.3424,-3.5905,-3.6142,-3.6457,-3.7222,-3.8363,-3.9316,-3.9687,-3.9863,-3.9637,-3.943,-4.0102,-4.0316,-4.0607,-4.0859,-4.1055,-4.1152,-4.1172,-4.1172,-4.1172,-4.1172,-4.1172,-4.1172,-4.1172,-4.1172,-4.1172,-4.1172,-4.1172,-4.1152,-4.1172,-4.1172,-4.1172,-4.1172,-4.1172,-4.1172,-4.1172,-4.1172,-4.1172,-4.1172,-4.1172,-4.1172,-4.1172,-4.1172,-4.1172,-4.1172,-4.1172,-4.1172,-4.1172,-4.1172,-4.1172,-4.1172,-4.1172,-4.1172,-4.1172,-4.1152,-4.1172,-4.1152,-4.1094,-3.6035,-3.6035,-3.6035,-3.6035,-3.6035,-3.6035,-3.6035,-3.6035,-3.6035,-3.6035,-3.6035,-3.6035,-3.6035,-3.6035,-3.6035,-3.6035,-3.6035,-3.6035,-3.6035,-3.6035,-3.6035,-3.6035,-3.6035,-3.6035,-3.6035,-3.6113,-3.625,-3.6465,-3.666,-3.6934,-3.7324,-3.7637,-3.791,-3.7969,-3.7793,-3.7734,-3.7812,-3.8086,-3.8164,-3.8164,-3.8144,-3.8125,-3.8184,-3.834,-3.832,-3.8418,-3.8555,-3.8574,-3.8574,-3.8574,-3.8574,-3.7604,-3.609,-3.542,-3.4174,-3.3661,-3.1774,-3.2834,-3.4788,-3.5404,-3.594,-3.7136,-3.8595,-3.9671,-3.9902,-4.0195,-3.9701,-3.9337,-4.0183,-4.0202,-3.9575,-4.0647,-4.1074,-4.1152,-4.1172,-4.1172,-4.1172,-4.1172,-4.1172,-4.1172,-4.1172,-4.1172,-4.1172,-4.1172,-4.1172,-4.1172,-4.1172,-4.1172,-4.1172,-4.1172,-4.1172,-4.1172,-4.1172,-4.1172,-4.1172,-4.1172,-4.1172,-4.1172,-4.1172,-4.1172,-4.1172,-4.125,-4.123,-4.1269,-4.1211,-4.1172,-4.125,-4.1308,-4.1211,-4.1172,-4.1269,-4.123,-4.1172,-4.1172,-4.1152,-3.6035,-3.6035,-3.6035,-3.6035,-3.6035,-3.6035,-3.6035,-3.6035,-3.6035,-3.6035,-3.6035,-3.6035,-3.6035,-3.6035,-3.6035,-3.6035,-3.6035,-3.6035,-3.6035,-3.6035,-3.6035,-3.6035,-3.6035,-3.6055,-3.6152,-3.6269,-3.6523,-3.6758,-3.7187,-3.7402,-3.7734,-3.8125,-3.8418,-3.834,-3.8203,-3.8184,-3.8242,-3.8437,-3.8457,-3.8476,-3.8496,-3.8516,-3.8535,-3.8555,-3.8555,-3.8574,-3.8574,-3.8574,-3.8574,-3.8428,-3.7897,-3.6996,-3.542,-3.3981,-3.2665,-3.2042,-3.2849,-3.3388,-3.4059,-3.6123,-3.6905,-3.7814,-3.9261,-4.0043,-4.0312,-4.0625,-3.9739,-3.9464,-4.0219,-3.9729,-3.9198,-4.0353,-4.1094,-4.1172,-4.1172,-4.1172,-4.1172,-4.1172,-4.1172,-4.1172,-4.1172,-4.1172,-4.1172,-4.1172,-4.1172,-4.1172,-4.1172,-4.1172,-4.1191,-4.1172,-4.1172,-4.1172,-4.1172,-4.1191,-4.1191,-4.1172,-4.1172,-4.1172,-4.123,-4.1308,-4.1406,-4.1504,-4.1426,-4.1387,-4.1445,-4.1484,-4.1484,-4.1484,-4.1601,-4.1582,-4.1543,-4.1445,-4.123,-4.1172,-4.1172,-3.6035,-3.6035,-3.6035,-3.6035,-3.6035,-3.6035,-3.6035,-3.6035,-3.6035,-3.6035,-3.6035,-3.6035,-3.6035,-3.6035,-3.6035,-3.6035,-3.6035,-3.6035,-3.6035,-3.6035,-3.6035,-3.6035,-3.6055,-3.6094,-3.6309,-3.6562,-3.6855,-3.7266,-3.7832,-3.793,-3.8164,-3.8418,-3.8535,-3.8516,-3.8476,-3.8476,-3.8496,-3.8555,-3.8574,-3.8574,-3.8574,-3.8574,-3.8574,-3.8574,-3.8574,-3.8574,-3.8501,-3.8355,-3.8282,-3.7824,-3.6996,-3.5345,-3.3871,-3.2516,-3.2026,-3.2392,-3.4001,-3.3914,-3.4685,-3.6993,-3.8207,-3.8937,-3.9816,-4.0589,-4.0841,-4.0686,-3.9381,-3.9007,-3.9355,-3.9119,-3.8901,-4.004,-4.1172,-4.1172,-4.1172,-4.1172,-4.1172,-4.1172,-4.1172,-4.1172,-4.1172,-4.1172,-4.1172,-4.1172,-4.1172,-4.1172,-4.1191,-4.1289,-4.1289,-4.1191,-4.1191,-4.1172,-4.1191,-4.1211,-4.123,-4.1328,-4.1484,-4.1582,-4.1523,-4.1582,-4.1699,-4.1816,-4.1816,-4.1816,-4.1816,-4.1836,-4.1855,-4.2012,-4.2226,-4.2148,-4.1933,-4.1699,-4.1484,-4.123,-4.1172,-3.6035,-3.6035,-3.6035,-3.6035,-3.6035,-3.6035,-3.6035,-3.6035,-3.6035,-3.6035,-3.6035,-3.6035,-3.6035,-3.6035,-3.6035,-3.6035,-3.6035,-3.6035,-3.6035,-3.6035,-3.6035,-3.6035,-3.6133,-3.6309,-3.6523,-3.6855,-3.7226,-3.7617,-3.793,-3.8164,-3.8379,-3.8555,-3.8574,-3.8574,-3.8574,-3.8574,-3.8574,-3.8574,-3.8574,-3.8574,-3.8574,-3.8574,-3.8574,-3.8574,-3.8574,-3.8574,-3.8501,-3.7511,-3.7217,-3.6756,-3.5327,-3.3744,-3.241,-3.1996,-3.1904,-3.2602,-3.3726,-3.4552,-3.6657,-3.7939,-3.9059,-4.0021,-4.0608,-4.088,-4.0899,-4.0021,-3.8724,-3.8091,-3.8566,-3.8566,-3.8585,-3.9471,-4.0685,-4.1172,-4.1172,-4.1172,-4.1172,-4.1172,-4.1172,-4.1172,-4.1172,-4.1172,-4.1172,-4.1172,-4.1172,-4.1172,-4.125,-4.1387,-4.1445,-4.1367,-4.1387,-4.1387,-4.1406,-4.1484,-4.1582,-4.168,-4.1875,-4.2012,-4.1933,-4.1933,-4.2148,-4.2246,-4.2246,-4.2246,-4.2246,-4.2246,-4.2246,-4.2461,-4.2695,-4.248,-4.2266,-4.2012,-4.1758,-4.1562,-4.1367,-3.5859,-3.6016,-3.6035,-3.6035,-3.6035,-3.6035,-3.6035,-3.6035,-3.6035,-3.6035,-3.6035,-3.6035,-3.6035,-3.6035,-3.6035,-3.6035,-3.6035,-3.6035,-3.6035,-3.6035,-3.6035,-3.6172,-3.6328,-3.6543,-3.6875,-3.7226,-3.7598,-3.7969,-3.8184,-3.8379,-3.8574,-3.8574,-3.8574,-3.8574,-3.8574,-3.8574,-3.8574,-3.8574,-3.8574,-3.8574,-3.8574,-3.8574,-3.8574,-3.8574,-3.8574,-3.8574,-3.8355,-3.6996,-3.6238,-3.5772,-3.429,-3.2682,-3.1716,-3.1558,-3.2013,-3.2788,-3.4196,-3.5863,-3.7816,-3.9198,-4.0197,-4.0685,-4.0607,-4.0099,-3.9845,-3.9198,-3.7277,-3.5994,-3.7357,-3.8329,-3.8505,-3.8822,-4.004,-4.1172,-4.1172,-4.1172,-4.1172,-4.1172,-4.1172,-4.1172,-4.1172,-4.1172,-4.1172,-4.1172,-4.1269,-4.1426,-4.1582,-4.1719,-4.1758,-4.1699,-4.1777,-4.1855,-4.1836,-4.1855,-4.1953,-4.207,-4.2207,-4.2305,-4.2246,-4.2324,-4.2558,-4.2695,-4.2695,-4.2695,-4.2695,-4.2676,-4.2676,-4.2891,-4.3066,-4.2871,-4.2734,-4.2558,-4.2344,-4.209,-4.1914,-3.5644,-3.6035,-3.6035,-3.6035,-3.6035,-3.6035,-3.6035,-3.6035,-3.6035,-3.6035,-3.6035,-3.6035,-3.6035,-3.6035,-3.6035,-3.6035,-3.6035,-3.6035,-3.6035,-3.6035,-3.6035,-3.6172,-3.6406,-3.6719,-3.709,-3.7617,-3.8027,-3.8223,-3.8457,-3.8574,-3.8574,-3.8574,-3.8574,-3.8574,-3.8574,-3.8574,-3.8574,-3.8574,-3.8574,-3.8574,-3.8574,-3.8574,-3.8574,-3.8574,-3.8574,-3.8574,-3.8117,-3.7217,-3.6034,-3.5056,-3.3525,-3.1668,-3.1335,-3.1545,-3.217,-3.3645,-3.5315,-3.7117,-3.8901,-4.0197,-4.0763,-4.0588,-3.9688,-3.8882,-3.8487,-3.7516,-3.5591,-3.5025,-3.6155,-3.7037,-3.7295,-3.9156,-4.0763,-4.1172,-4.1172,-4.1172,-4.1172,-4.1172,-4.1172,-4.1172,-4.1172,-4.1191,-4.1387,-4.1406,-4.1582,-4.1738,-4.1894,-4.2051,-4.2187,-4.2129,-4.2148,-4.2285,-4.2187,-4.2187,-4.2402,-4.25,-4.2558,-4.2578,-4.2598,-4.2754,-4.3047,-4.3125,-4.3144,-4.3125,-4.3125,-4.3125,-4.3164,-4.332,-4.3398,-4.3398,-4.3281,-4.3164,-4.2949,-4.2676,-4.2383,-3.5644,-3.6016,-3.6035,-3.6035,-3.6035,-3.6035,-3.6035,-3.6035,-3.6035,-3.6035,-3.6035,-3.6035,-3.6035,-3.6035,-3.6035,-3.6035,-3.6035,-3.6035,-3.6035,-3.6035,-3.6035,-3.6191,-3.6367,-3.6875,-3.7266,-3.7598,-3.7988,-3.8437,-3.8535,-3.8574,-3.8574,-3.8574,-3.8574,-3.8574,-3.8574,-3.8574,-3.8574,-3.8574,-3.8574,-3.8574,-3.8574,-3.8574,-3.8574,-3.8574,-3.8574,-3.8428,-3.7604,-3.5811,-3.4923,-3.4069,-3.1465,-3.048,-3.0653,-3.1859,-3.3465,-3.5251,-3.6797,-3.8487,-3.9864,-4.0763,-4.0997,-4.0509,-3.9453,-3.7993,-3.6797,-3.543,-3.4717,-3.4555,-3.4863,-3.5672,-3.7055,-3.9393,-4.1172,-4.1172,-4.1211,-4.1211,-4.1211,-4.123,-4.123,-4.123,-4.123,-4.1367,-4.1582,-4.1738,-4.1914,-4.207,-4.2207,-4.2402,-4.2715,-4.2773,-4.2578,-4.2617,-4.2461,-4.25,-4.2754,-4.293,-4.2988,-4.3125,-4.3223,-4.3379,-4.3496,-4.3457,-4.3418,-4.3516,-4.3555,-4.3476,-4.3437,-4.3555,-4.3652,-4.3672,-4.3633,-4.3437,-4.3457,-4.3262,-4.2891,-3.5351,-3.5742,-3.5957,-3.6035,-3.6035,-3.6035,-3.6035,-3.6035,-3.6035,-3.6035,-3.6035,-3.6035,-3.6035,-3.6035,-3.6035,-3.6035,-3.6035,-3.6035,-3.6035,-3.6035,-3.6113,-3.6348,-3.666,-3.707,-3.7578,-3.791,-3.8262,-3.8555,-3.8574,-3.8574,-3.8574,-3.8574,-3.8574,-3.8574,-3.8574,-3.8574,-3.8574,-3.8574,-3.8574,-3.8574,-3.8574,-3.8574,-3.8574,-3.8574,-3.8044,-3.7751,-3.6534,-3.4626,-3.3422,-3.2732,-3.0987,-3.0447,-3.1011,-3.232,-3.4115,-3.5833,-3.7516,-3.9374,-4.0588,-4.1094,-4.0763,-3.9943,-3.8408,-3.6637,-3.5187,-3.4066,-3.3985,-3.3985,-3.5187,-3.6075,-3.7773,-3.9943,-4.0841,-4.1172,-4.1426,-4.1601,-4.1738,-4.1894,-4.1875,-4.1875,-4.1875,-4.1914,-4.207,-4.209,-4.2285,-4.2578,-4.2695,-4.2851,-4.3144,-4.3262,-4.3125,-4.3008,-4.2851,-4.2949,-4.3242,-4.3359,-4.3398,-4.3574,-4.3691,-4.3652,-4.3613,-4.3652,-4.3691,-4.3691,-4.3672,-4.3672,-4.3672,-4.3691,-4.3691,-4.3691,-4.3691,-4.3652,-4.3691,-4.3691,-4.3379,-3.5019,-3.5488,-3.5879,-3.6035,-3.6035,-3.6035,-3.6035,-3.6035,-3.6035,-3.6035,-3.6035,-3.6035,-3.6035,-3.6035,-3.6035,-3.6035,-3.6035,-3.6035,-3.6035,-3.6152,-3.6152,-3.6543,-3.6973,-3.7402,-3.7871,-3.8223,-3.8535,-3.8574,-3.8574,-3.8574,-3.8574,-3.8574,-3.8574,-3.8574,-3.8574,-3.8574,-3.8574,-3.8574,-3.8574,-3.8428,-3.8428,-3.8501,-3.8355,-3.7824,-3.707,-3.6182,-3.5113,-3.3771,-3.2074,-3.1604,-3.1174,-3.113,-3.1766,-3.3151,-3.4847,-3.6637,-3.8408,-3.9864,-4.0763,-4.0763,-3.9943,-3.8724,-3.6797,-3.5268,-3.3985,-3.3674,-3.3592,-3.4717,-3.5914,-3.6957,-3.8645,-3.9883,-4.0704,-4.1367,-4.1699,-4.1973,-4.2207,-4.2402,-4.2402,-4.2402,-4.2402,-4.2402,-4.25,-4.25,-4.2695,-4.3008,-4.3223,-4.3418,-4.3535,-4.3516,-4.3437,-4.3398,-4.3359,-4.3496,-4.3652,-4.3633,-4.3613,-4.3633,-4.3691,-4.3691,-4.3691,-4.3691,-4.3691,-4.3691,-4.3691,-4.3691,-4.3691,-4.3691,-4.3691,-4.3691,-4.3691,-4.3691,-4.3691,-4.3691,-4.3691,-3.5176,-3.5898,-3.5996,-3.6016,-3.6016,-3.6016,-3.6035,-3.6016,-3.6035,-3.6035,-3.6035,-3.6035,-3.6035,-3.6035,-3.6035,-3.6035,-3.6035,-3.6035,-3.6289,-3.6504,-3.6367,-3.6797,-3.7226,-3.7539,-3.8066,-3.8398,-3.8574,-3.8574,-3.8574,-3.8574,-3.8574,-3.8574,-3.8574,-3.8574,-3.8574,-3.8574,-3.8574,-3.8574,-3.8428,-3.819,-3.7438,-3.7438,-3.7585,-3.707,-3.6386,-3.5542,-3.4374,-3.2818,-3.2426,-3.2074,-3.1747,-3.1909,-3.2972,-3.4538,-3.6155,-3.7596,-3.9295,-4.0118,-4.0685,-3.9962,-3.898,-3.7834,-3.6155,-3.4944,-3.4229,-3.4311,-3.5025,-3.6957,-3.7914,-3.8073,-3.9374,-4.0411,-4.1269,-4.1738,-4.2109,-4.2305,-4.25,-4.2558,-4.2578,-4.2578,-4.2578,-4.2715,-4.2949,-4.2988,-4.3105,-4.3359,-4.3476,-4.3633,-4.3633,-4.3672,-4.3691,-4.3691,-4.3691,-4.3691,-4.3691,-4.3691,-4.3672,-4.3691,-4.3691,-4.3691,-4.3691,-4.3691,-4.3691,-4.3691,-4.3691,-4.3691,-4.3691,-4.3691,-4.3691,-4.3691,-4.3691,-4.3691,-4.3691,-4.3691,-4.3691]},{"header":{"parameterUnit":"m.s-1","parameterCategory":1,"la1":31.0,"la2":29.5877,"lo1":-88.7671,"lo2":-86.6584,"dy":0.0162,"dx":0.0185,"nx":115,"ny":88,"refTime":"2026-04-09T00:00:00:Z","depth":0,"parameterNumber":3,"parameterNumberName":"V-component_of_WINDS"},"data":[0.0,0.0,0.0,0.0,0.0,0.0,0.0,0.0,0.0,0.0,0.0,0.0,0.0,0.0,0.0,0.0,0.0,0.0,0.0,0.0,0.0,0.0,0.0,0.0,0.0,0.0,0.0,0.0,0.0,0.0,0.0,0.0,0.0,0.0,0.0,0.0,0.0,0.0,0.0,0.0,0.0,0.0,0.0,0.0,0.0,0.0,0.0,0.0,0.0,0.0,0.0,0.0,0.0,0.0,0.0,0.0,0.0,0.0,0.0,0.0,0.0,0.0,0.0,0.0,0.0,0.0,0.0,0.0,0.0,0.0,0.0,0.0,0.0,0.0,0.0,0.0,0.0,0.0,0.0,0.0,0.0,0.0,0.0,0.0,0.0,0.0,0.0,0.0,0.0,0.0,0.0,0.0,0.0,0.0,0.0,0.0,0.0,0.0,0.0,0.0,0.0,0.0,0.0,0.0,0.0,0.0,0.0,0.0,0.0,0.0,0.0,0.0,0.0,0.0,0.0,0.0,0.0,0.0,0.0,0.0,0.0,0.0,0.0,0.0,0.0,0.0,0.0,0.0,0.0,0.0,0.0,0.0,0.0,0.0,0.0,0.0,0.0,0.0,0.0,0.0,0.0,0.0,0.0,0.0,0.0,0.0,0.0,0.0,0.0,0.0,0.0,0.0,0.0,0.0,0.0,0.0,0.0,0.0,0.0,0.0,0.0,0.0,0.0,0.0,0.0,0.0,0.0,0.0,0.0,0.0,0.0,0.0,0.0,0.0,0.0,0.0,0.0,0.0,0.0,0.0,0.0,0.0,0.0,0.0,0.0,0.0,0.0,0.0,0.0,0.0,0.0,0.0,0.0,0.0,0.0,0.0,0.0,0.0,0.0,0.0,0.0,0.0,0.0,0.0,0.0,0.0,0.0,0.0,0.0,0.0,0.0,0.0,0.0,0.0,0.0,0.0,0.0,0.0,0.0,0.0,0.0,0.0,0.0,0.0,0.0,0.0,0.0,0.0,0.0,0.0,0.0,0.0,0.0,0.0,0.0,0.0,0.0,0.0,0.0,0.0,0.0,0.0,0.0,0.0,0.0,0.0,0.0,0.0,0.0,0.0,0.0,0.0,0.0,0.0,0.0,0.0,0.0,0.0,0.0,0.0,0.0,0.0,0.0,0.0,0.0,0.0,0.0,0.0,0.0,0.0,0.0,0.0,0.0,0.0,0.0,0.0,0.0,0.0,0.0,0.0,0.0,0.0,0.0,0.0,0.0,0.0,0.0,0.0,0.0,0.0,0.0,0.0,0.0,0.0,0.0,0.0,0.0,0.0,0.0,0.0,0.0,0.0,0.0,0.0,0.0,0.0,0.0,0.0,0.0,0.0,0.0,0.0,0.0,0.0,0.0,0.0,0.0,0.0,0.0,0.0,0.0,0.0,0.0,0.0,0.0,0.0,0.0,0.0,0.0,0.0,0.0,0.0,0.0,0.0,0.0,0.0,0.0,0.0,0.0,0.0,0.0,0.0,0.0,0.0,0.0,0.0,0.0,0.0,0.0,0.0,0.0,0.0,0.0,0.0,0.0,0.0,0.0,0.0,0.0,0.0,0.0,0.0,0.0,0.0,0.0,0.0,0.0,0.0,0.0,0.0,0.0,0.0,0.0,0.0,0.0,0.0,0.0,0.0,0.0,0.0,0.0,0.0,0.0,0.0,0.0,0.0,0.0,0.0,0.0,0.0,0.0,0.0,0.0,0.0,0.0,0.0,0.0,0.0,0.0,0.0,0.0,0.0,0.0,0.0,0.0,0.0,0.0,0.0,0.0,0.0,0.0,0.0,0.0,0.0,0.0,0.0,0.0,0.0,0.0,0.0,0.0,0.0,0.0,0.0,0.0,0.0,0.0,0.0,0.0,0.0,0.0,0.0,0.0,0.0,0.0,0.0,0.0,0.0,0.0,0.0,0.0,0.0,0.0,0.0,0.0,0.0,0.0,0.0,0.0,0.0,0.0,0.0,0.0,0.0,0.0,0.0,0.0,0.0,0.0,0.0,0.0,0.0,0.0,0.0,0.0,0.0,0.0,0.0,0.0,0.0,0.0,0.0,0.0,0.0,0.0,0.0,0.0,0.0,0.0,0.0,0.0,0.0,0.0,0.0,0.0,0.0,0.0,0.0,0.0,0.0,0.0,0.0,0.0,0.0,0.0,0.0,0.0,0.0,0.0,0.0,0.0,0.0,0.0,0.0,0.0,0.0,0.0,0.0,0.0,0.0,0.0,0.0,0.0,0.0,0.0,0.0,0.0,0.0,0.0,0.0,0.0,0.0,0.0,0.0,0.0,0.0,0.0,0.0,0.0,0.0,0.0,0.0,0.0,0.0,0.0,0.0,0.0,0.0,0.0,0.0,0.0,0.0,0.0,0.0,0.0,0.0,0.0,0.0,0.0,0.0,0.0,0.0,0.0,0.0,0.0,0.0,0.0,0.0,0.0,0.0,0.0,0.0,0.0,0.0,0.0,0.0,0.0,0.0,0.0,0.0,0.0,0.0,0.0,0.0,0.0,0.0,0.0,0.0,0.0,0.0,0.0,0.0,0.0,0.0,0.0,0.0,0.0,0.0,0.0,0.0,0.0,0.0,0.0,0.0,0.0,0.0,0.0,0.0,0.0,0.0,0.0,0.0,0.0,0.0,0.0,0.0,0.0,0.0,0.0,0.0,0.0,0.0,0.0,0.0,0.0,0.0,0.0,0.0,0.0,0.0,0.0,0.0,0.0,0.0,0.0,0.0,0.0,0.0,0.0,0.0,0.0,0.0,0.0,0.0,0.0,0.0,0.0,0.0,0.0,0.0,0.0,0.0,0.0,0.0,0.0,0.0,0.0,0.0,0.0,0.0,0.0,0.0,0.0,0.0,0.0,0.0,0.0,0.0,0.0,0.0,0.0,0.0,0.0,0.0,0.0,0.0,0.0,0.0,0.0,0.0,0.0,0.0,0.0,0.0,0.0,0.0,0.0,0.0,0.0,0.0,0.0,0.0,0.0,0.0,0.0,0.0,0.0,0.0,0.0,0.0,0.0,0.0,0.0,0.0,0.0,0.0,0.0,0.0,0.0,0.0,0.0,0.0,0.0,0.0,0.0,0.0,0.0,0.0,0.0,0.0,0.0,0.0,0.0,0.0,0.0,0.0,0.0,0.0,0.0,0.0,0.0,0.0,0.0,0.0,0.0,0.0,0.0,0.0,0.0,0.0,0.0,0.0,0.0,0.0,0.0,0.0,0.0,0.0,0.0,0.0,0.0,0.0,0.0,0.0,0.0,0.0,0.0,0.0,0.0,0.0,0.0,0.0,0.0,0.0,0.0,0.0,0.0,0.0,0.0,0.0,0.0,0.0,0.0,0.0,0.0,0.0,0.0,0.0,0.0,0.0,0.0,0.0,0.0,0.0,0.0,0.0,0.0,0.0,0.0,0.0,0.0,0.0,0.0,0.0,0.0,0.0,0.0,0.0,0.0,0.0,0.0,0.0,0.0,0.0,0.0,0.0,0.0,0.0,0.0,0.0,0.0,0.0,0.0,0.0,0.0,0.0,0.0,0.0,0.0,0.0,0.0,0.0,0.0,0.0,0.0,0.0,0.0,0.0,0.0,0.0,0.0,0.0,0.0,0.0,0.0,0.0,0.0,0.0,0.0,0.0,0.0,0.0,0.0,0.0,0.0,0.0,0.0,0.0,0.0,0.0,0.0,0.0,0.0,0.0,0.0,0.0,0.0,0.0,0.0,0.0,0.0,0.0,0.0,0.0,0.0,0.0,0.0,0.0,0.0,0.0,0.0,0.0,0.0,0.0,0.0,0.0,0.0,0.0,0.0,0.0,0.0,0.0,0.0,0.0,0.0,0.0,0.0,0.0,0.0,0.0,0.0,0.0,0.0,0.0,0.0,0.0,0.0,0.0,0.0,0.0,0.0,0.0,0.0,0.0,0.0,0.0,0.0,0.0,0.0,0.0,0.0,0.0,0.0,0.0,0.0,0.0,0.0,0.0,0.0,0.0,0.0,0.0,0.0,0.0,0.0,0.0,0.0,0.0,0.0,0.0,0.0,0.0,0.0,0.0,0.0,0.0,0.0,0.0,0.0,0.0,0.0,0.0,0.0,0.0,0.0,0.0,0.0,0.0,0.0,0.0,0.0,0.0,0.0,0.0,0.0,0.0,0.0,0.0,0.0,0.0,0.0,0.0,0.0,0.0,0.0,0.0,0.0,0.0,0.0,0.0,0.0,0.0,0.0,0.0,0.0,0.0,2.5868,0.0,0.0,0.0,0.0,0.0,0.0,0.0,0.0,0.0,0.0,0.0,0.0,0.0,0.0,0.0,0.0,0.0,0.0,0.0,0.0,0.0,0.0,0.0,0.0,0.0,0.0,0.0,0.0,0.0,0.0,0.0,0.0,0.0,0.0,0.0,0.0,0.0,0.0,0.0,0.0,0.0,0.0,0.0,0.0,0.0,0.0,0.0,0.0,0.0,0.0,0.0,0.0,0.0,0.0,0.0,0.0,0.0,0.0,0.0,0.0,0.0,0.0,0.0,0.0,0.0,0.0,0.0,0.0,0.0,0.0,0.0,0.0,0.0,0.0,0.0,0.0,0.0,0.0,0.0,0.0,0.0,0.0,0.0,0.0,0.0,0.0,0.0,0.0,0.0,0.0,0.0,0.0,0.0,0.0,0.0,0.0,0.0,0.0,0.0,0.0,0.0,0.0,0.0,0.0,0.0,0.0,0.0,0.0,0.0,0.0,2.7348,2.7186,2.7028,2.6698,2.6317,0.0,0.0,0.0,0.0,0.0,0.0,0.0,0.0,0.0,0.0,0.0,0.0,0.0,0.0,0.0,0.0,0.0,0.0,0.0,0.0,0.0,0.0,0.0,0.0,0.0,0.0,0.0,0.0,0.0,0.0,0.0,0.0,0.0,0.0,0.0,0.0,0.0,0.0,0.0,0.0,0.0,0.0,0.0,0.0,0.0,0.0,0.0,0.0,0.0,0.0,0.0,0.0,0.0,0.0,0.0,0.0,0.0,0.0,0.0,0.0,0.0,0.0,0.0,0.0,0.0,0.0,0.0,0.0,0.0,0.0,0.0,0.0,0.0,0.0,0.0,0.0,0.0,0.0,0.0,0.0,0.0,0.0,0.0,0.0,0.0,0.0,0.0,0.0,0.0,0.0,0.0,0.0,0.0,0.0,0.0,0.0,0.0,0.0,0.0,0.0,0.0,0.0,0.0,0.0,0.0,0.0,0.0,0.0,0.0,0.0,0.0,0.0,2.7314,2.6918,2.6749,0.0,0.0,0.0,0.0,0.0,0.0,0.0,0.0,0.0,0.0,0.0,0.0,0.0,0.0,0.0,0.0,0.0,0.0,0.0,0.0,0.0,0.0,0.0,0.0,0.0,0.0,0.0,0.0,0.0,0.0,0.0,0.0,0.0,0.0,0.0,0.0,0.0,0.0,0.0,0.0,0.0,0.0,0.0,0.0,0.0,0.0,0.0,0.0,0.0,0.0,0.0,0.0,0.0,0.0,0.0,0.0,0.0,0.0,0.0,0.0,0.0,0.0,0.0,0.0,0.0,0.0,0.0,0.0,0.0,0.0,0.0,0.0,0.0,0.0,0.0,0.0,0.0,0.0,0.0,0.0,0.0,0.0,0.0,0.0,0.0,0.0,0.0,0.0,0.0,0.0,0.0,0.0,0.0,0.0,0.0,0.0,0.0,0.0,0.0,0.0,0.0,0.0,0.0,0.0,0.0,0.0,0.0,0.0,0.0,0.0,2.8142,2.8567,2.8336,0.0,2.7281,0.0,0.0,0.0,0.0,0.0,0.0,0.0,0.0,0.0,0.0,0.0,0.0,0.0,0.0,0.0,0.0,0.0,0.0,0.0,0.0,0.0,0.0,0.0,0.0,0.0,0.0,0.0,0.0,0.0,0.0,0.0,0.0,0.0,0.0,0.0,0.0,0.0,0.0,0.0,0.0,0.0,0.0,0.0,0.0,0.0,0.0,0.0,0.0,0.0,0.0,0.0,0.0,0.0,0.0,0.0,0.0,0.0,0.0,0.0,0.0,0.0,0.0,0.0,0.0,0.0,0.0,0.0,0.0,0.0,0.0,0.0,0.0,0.0,0.0,0.0,0.0,0.0,0.0,0.0,0.0,0.0,0.0,0.0,0.0,0.0,0.0,0.0,0.0,0.0,0.0,0.0,0.0,0.0,0.0,0.0,0.0,0.0,0.0,0.0,0.0,0.0,0.0,0.0,0.0,0.0,0.0,0.0,0.0,0.0,0.0,2.8524,2.8274,2.7942,2.7454,0.0,0.0,0.0,0.0,0.0,0.0,0.0,0.0,0.0,0.0,0.0,0.0,0.0,0.0,0.0,0.0,0.0,0.0,0.0,0.0,0.0,0.0,0.0,0.0,0.0,0.0,0.0,0.0,0.0,0.0,0.0,0.0,0.0,0.0,0.0,0.0,0.0,0.0,0.0,0.0,0.0,0.0,0.0,0.0,0.0,0.0,0.0,0.0,0.0,0.0,0.0,0.0,0.0,0.0,0.0,0.0,0.0,0.0,0.0,0.0,0.0,0.0,0.0,0.0,0.0,0.0,0.0,0.0,0.0,0.0,0.0,0.0,0.0,0.0,0.0,0.0,0.0,0.0,0.0,0.0,0.0,0.0,0.0,0.0,0.0,0.0,0.0,0.0,0.0,0.0,0.0,0.0,0.0,0.0,0.0,0.0,0.0,0.0,0.0,0.0,0.0,0.0,0.0,0.0,0.0,0.0,0.0,0.0,0.0,0.0,2.8759,2.8821,2.8233,2.7887,2.737,2.6649,0.0,0.0,0.0,0.0,0.0,0.0,0.0,0.0,0.0,0.0,0.0,0.0,0.0,0.0,0.0,0.0,0.0,0.0,0.0,0.0,0.0,0.0,0.0,0.0,0.0,0.0,0.0,0.0,0.0,0.0,0.0,0.0,0.0,0.0,0.0,0.0,0.0,0.0,0.0,0.0,0.0,0.0,0.0,0.0,0.0,0.0,0.0,0.0,0.0,0.0,0.0,0.0,0.0,0.0,0.0,0.0,0.0,0.0,0.0,0.0,0.0,0.0,0.0,0.0,0.0,0.0,0.0,0.0,0.0,0.0,0.0,0.0,0.0,0.0,0.0,0.0,0.0,0.0,0.0,0.0,0.0,0.0,0.0,0.0,0.0,0.0,0.0,0.0,0.0,0.0,0.0,0.0,0.0,0.0,0.0,0.0,0.0,0.0,0.0,0.0,0.0,0.0,0.0,0.0,0.0,0.0,0.0,0.0,0.0,2.9176,2.8964,2.879,2.8771,2.8025,0.0,0.0,0.0,0.0,0.0,0.0,0.0,0.0,0.0,0.0,0.0,0.0,0.0,0.0,0.0,0.0,0.0,0.0,0.0,0.0,0.0,0.0,0.0,0.0,0.0,0.0,0.0,0.0,0.0,0.0,0.0,0.0,0.0,0.0,0.0,0.0,0.0,0.0,0.0,0.0,0.0,0.0,0.0,0.0,0.0,0.0,0.0,0.0,0.0,0.0,0.0,0.0,0.0,0.0,0.0,0.0,0.0,0.0,0.0,0.0,0.0,0.0,0.0,0.0,0.0,0.0,0.0,0.0,0.0,0.0,0.0,0.0,0.0,0.0,0.0,0.0,0.0,0.0,0.0,0.0,0.0,0.0,0.0,0.0,0.0,0.0,0.0,0.0,0.0,0.0,0.0,0.0,0.0,0.0,0.0,0.0,0.0,0.0,0.0,0.0,0.0,0.0,0.0,0.0,0.0,0.0,0.0,0.0,0.0,2.8795,2.8692,2.886,2.9183,2.8331,2.7588,0.0,0.0,0.0,0.0,0.0,0.0,0.0,0.0,0.0,0.0,0.0,0.0,0.0,0.0,0.0,0.0,0.0,0.0,0.0,0.0,0.0,0.0,0.0,0.0,0.0,0.0,0.0,0.0,0.0,0.0,0.0,0.0,0.0,0.0,0.0,0.0,0.0,0.0,0.0,0.0,0.0,0.0,0.0,0.0,0.0,0.0,0.0,0.0,0.0,0.0,0.0,0.0,0.0,0.0,0.0,0.0,0.0,0.0,0.0,0.0,0.0,0.0,0.0,0.0,0.0,0.0,0.0,0.0,0.0,0.0,0.0,0.0,0.0,0.0,0.0,0.0,0.0,0.0,0.0,0.0,0.0,0.0,0.0,0.0,0.0,0.0,0.0,0.0,0.0,0.0,0.0,0.0,0.0,0.0,0.0,0.0,0.0,0.0,0.0,0.0,0.0,0.0,0.0,0.0,0.0,0.0,0.0,0.0,0.0,2.8395,0.0,2.8994,0.0,2.8069,2.7326,0.0,0.0,0.0,0.0,0.0,0.0,0.0,0.0,0.0,0.0,0.0,0.0,0.0,0.0,0.0,0.0,0.0,0.0,0.0,0.0,0.0,0.0,0.0,0.0,0.0,0.0,0.0,0.0,0.0,0.0,0.0,0.0,0.0,0.0,0.0,0.0,0.0,0.0,0.0,0.0,0.0,0.0,0.0,0.0,0.0,0.0,0.0,0.0,0.0,0.0,0.0,0.0,0.0,0.0,0.0,0.0,0.0,0.0,0.0,0.0,0.0,0.0,0.0,0.0,0.0,0.0,0.0,0.0,0.0,0.0,0.0,0.0,0.0,0.0,0.0,0.0,0.0,0.0,0.0,0.0,0.0,0.0,0.0,0.0,0.0,0.0,0.0,0.0,0.0,0.0,0.0,0.0,0.0,0.0,0.0,0.0,0.0,0.0,0.0,0.0,0.0,0.0,0.0,0.0,0.0,0.0,0.0,0.0,2.7711,2.8395,2.9498,2.9467,2.8089,2.8002,2.7326,0.0,0.0,0.0,0.0,0.0,0.0,0.0,0.0,0.0,0.0,0.0,0.0,0.0,0.0,0.0,0.0,0.0,0.0,0.0,0.0,0.0,0.0,0.0,0.0,0.0,0.0,0.0,0.0,0.0,0.0,0.0,0.0,0.0,0.0,0.0,0.0,0.0,0.0,0.0,0.0,0.0,0.0,0.0,0.0,0.0,0.0,0.0,0.0,0.0,0.0,0.0,0.0,0.0,0.0,0.0,0.0,0.0,0.0,0.0,0.0,0.0,0.0,0.0,0.0,0.0,0.0,0.0,0.0,0.0,0.0,0.0,0.0,0.0,0.0,0.0,0.0,0.0,0.0,0.0,0.0,0.0,0.0,0.0,0.0,0.0,0.0,0.0,0.0,0.0,0.0,0.0,0.0,0.0,0.0,0.0,0.0,0.0,0.0,0.0,0.0,0.0,0.0,0.0,0.0,0.0,0.0,0.0,0.0,0.0,2.815,2.883,2.9161,2.9008,2.8069,2.7456,0.0,0.0,0.0,0.0,0.0,0.0,0.0,0.0,0.0,0.0,0.0,0.0,0.0,0.0,0.0,0.0,0.0,0.0,0.0,0.0,0.0,0.0,0.0,0.0,0.0,0.0,0.0,0.0,0.0,0.0,0.0,0.0,0.0,0.0,0.0,0.0,0.0,0.0,0.0,0.0,0.0,0.0,0.0,0.0,0.0,0.0,0.0,0.0,0.0,0.0,0.0,0.0,0.0,0.0,0.0,0.0,0.0,0.0,0.0,0.0,0.0,0.0,0.0,0.0,0.0,0.0,0.0,0.0,0.0,0.0,0.0,0.0,0.0,0.0,0.0,0.0,0.0,0.0,0.0,0.0,0.0,0.0,0.0,0.0,0.0,0.0,0.0,0.0,0.0,0.0,0.0,0.0,0.0,0.0,0.0,0.0,0.0,0.0,0.0,0.0,0.0,0.0,0.0,0.0,0.0,0.0,0.0,0.0,0.0,2.883,2.9314,2.958,2.9489,2.8418,2.7741,2.7456,0.0,0.0,0.0,0.0,0.0,0.0,0.0,0.0,0.0,0.0,0.0,0.0,0.0,0.0,0.0,0.0,0.0,0.0,0.0,0.0,0.0,0.0,0.0,0.0,0.0,0.0,0.0,0.0,0.0,0.0,0.0,0.0,0.0,0.0,0.0,0.0,0.0,0.0,0.0,0.0,0.0,0.0,0.0,0.0,0.0,0.0,0.0,0.0,0.0,0.0,0.0,0.0,0.0,0.0,0.0,0.0,0.0,0.0,0.0,0.0,0.0,0.0,0.0,0.0,0.0,0.0,0.0,0.0,0.0,0.0,0.0,0.0,0.0,0.0,0.0,0.0,0.0,0.0,0.0,0.0,0.0,0.0,0.0,0.0,0.0,0.0,0.0,0.0,0.0,0.0,0.0,0.0,0.0,0.0,0.0,0.0,0.0,0.0,0.0,0.0,0.0,0.0,0.0,0.0,0.0,0.0,0.0,0.0,3.0319,3.0799,3.0624,2.9707,2.9121,2.818,0.0,0.0,0.0,0.0,0.0,0.0,0.0,0.0,0.0,0.0,0.0,0.0,0.0,0.0,0.0,0.0,0.0,0.0,0.0,0.0,0.0,0.0,0.0,0.0,0.0,0.0,0.0,0.0,0.0,0.0,0.0,0.0,0.0,0.0,0.0,0.0,0.0,0.0,0.0,0.0,0.0,0.0,0.0,0.0,0.0,0.0,0.0,0.0,0.0,0.0,0.0,0.0,0.0,0.0,0.0,0.0,0.0,0.0,0.0,0.0,0.0,0.0,0.0,0.0,0.0,0.0,0.0,0.0,0.0,0.0,0.0,0.0,0.0,0.0,0.0,0.0,0.0,0.0,0.0,0.0,0.0,0.0,0.0,0.0,0.0,0.0,0.0,0.0,0.0,0.0,0.0,0.0,0.0,0.0,0.0,0.0,0.0,0.0,0.0,0.0,0.0,0.0,0.0,0.0,0.0,0.0,0.0,0.0,0.0,3.1738,3.2612,3.259,3.1629,2.9821,2.8639,0.0,0.0,0.0,0.0,0.0,0.0,0.0,0.0,0.0,0.0,0.0,0.0,0.0,0.0,0.0,0.0,0.0,0.0,0.0,0.0,0.0,0.0,0.0,0.0,0.0,0.0,0.0,0.0,0.0,0.0,0.0,0.0,0.0,0.0,0.0,0.0,0.0,0.0,0.0,0.0,0.0,0.0,0.0,0.0,0.0,0.0,0.0,0.0,0.0,0.0,0.0,0.0,0.0,0.0,0.0,0.0,0.0,0.0,0.0,0.0,0.0,0.0,0.0,0.0,0.0,0.0,0.0,0.0,0.0,0.0,0.0,0.0,0.0,0.0,0.0,0.0,0.0,0.0,0.0,0.0,0.0,0.0,0.0,0.0,0.0,0.0,0.0,0.0,0.0,0.0,0.0,0.0,0.0,0.0,0.0,0.0,0.0,0.0,0.0,0.0,0.0,0.0,0.0,0.0,0.0,0.0,0.0,0.0,3.0696,3.2634,3.3617,3.3835,3.3289,3.1571,3.004,0.0,0.0,0.0,0.0,0.0,0.0,0.0,0.0,0.0,0.0,0.0,0.0,0.0,0.0,0.0,0.0,0.0,0.0,0.0,0.0,0.0,0.0,0.0,0.0,0.0,0.0,0.0,0.0,0.0,0.0,0.0,0.0,0.0,0.0,0.0,0.0,0.0,0.0,0.0,0.0,0.0,0.0,0.0,0.0,0.0,0.0,0.0,0.0,0.0,0.0,0.0,0.0,0.0,0.0,0.0,0.0,0.0,0.0,0.0,0.0,0.0,0.0,0.0,0.0,0.0,0.0,0.0,0.0,0.0,0.0,0.0,0.0,0.0,0.0,0.0,0.0,0.0,0.0,0.0,0.0,0.0,0.0,0.0,0.0,0.0,0.0,0.0,0.0,0.0,0.0,0.0,0.0,0.0,0.0,0.0,0.0,0.0,0.0,0.0,0.0,0.0,0.0,0.0,0.0,0.0,0.0,0.0,0.0,3.1702,3.318,3.4119,3.4622,3.4622,3.3486,3.1659,0.0,0.0,0.0,0.0,0.0,0.0,0.0,0.0,0.0,0.0,0.0,0.0,0.0,0.0,0.0,0.0,0.0,0.0,0.0,0.0,0.0,0.0,0.0,0.0,0.0,0.0,0.0,0.0,0.0,0.0,0.0,0.0,0.0,0.0,0.0,0.0,0.0,0.0,0.0,0.0,0.0,0.0,0.0,0.0,0.0,0.0,0.0,0.0,0.0,0.0,0.0,0.0,0.0,0.0,0.0,0.0,0.0,0.0,0.0,0.0,0.0,0.0,0.0,0.0,0.0,0.0,0.0,0.0,0.0,0.0,0.0,0.0,0.0,0.0,0.0,0.0,0.0,0.0,0.0,0.0,0.0,0.0,0.0,0.0,0.0,0.0,0.0,0.0,0.0,0.0,0.0,0.0,0.0,0.0,0.0,0.0,0.0,0.0,0.0,0.0,0.0,0.0,0.0,0.0,0.0,0.0,0.0,0.0,3.2207,3.4141,3.4775,3.5255,3.5627,3.2853,3.0908,0.0,0.0,0.0,0.0,0.0,0.0,0.0,0.0,0.0,0.0,0.0,0.0,0.0,0.0,0.0,0.0,0.0,0.0,0.0,0.0,0.0,0.0,0.0,0.0,0.0,0.0,0.0,0.0,0.0,0.0,0.0,0.0,0.0,0.0,0.0,0.0,0.0,0.0,0.0,0.0,0.0,0.0,0.0,0.0,0.0,0.0,0.0,0.0,3.541,0.0,0.0,0.0,0.0,0.0,0.0,0.0,0.0,0.0,0.0,0.0,0.0,0.0,0.0,0.0,0.0,0.0,0.0,0.0,0.0,0.0,0.0,0.0,0.0,0.0,0.0,0.0,0.0,0.0,0.0,0.0,0.0,0.0,0.0,0.0,0.0,0.0,0.0,0.0,0.0,0.0,0.0,0.0,0.0,0.0,0.0,0.0,0.0,0.0,0.0,0.0,0.0,0.0,0.0,0.0,0.0,0.0,0.0,0.0,3.3094,3.4285,3.47,3.5386,3.6386,3.4087,3.2123,0.0,0.0,0.0,0.0,0.0,0.0,0.0,0.0,0.0,0.0,0.0,0.0,0.0,0.0,0.0,0.0,0.0,0.0,0.0,0.0,0.0,0.0,0.0,0.0,0.0,0.0,0.0,0.0,0.0,0.0,0.0,0.0,0.0,0.0,0.0,0.0,0.0,0.0,0.0,0.0,0.0,0.0,0.0,0.0,0.0,0.0,0.0,0.0,0.0,0.0,0.0,0.0,0.0,0.0,0.0,0.0,0.0,0.0,0.0,0.0,0.0,0.0,0.0,0.0,0.0,0.0,0.0,0.0,0.0,0.0,0.0,0.0,0.0,0.0,0.0,0.0,0.0,0.0,0.0,0.0,0.0,0.0,0.0,0.0,0.0,0.0,0.0,0.0,0.0,0.0,0.0,0.0,0.0,0.0,0.0,0.0,0.0,0.0,0.0,0.0,0.0,0.0,0.0,0.0,0.0,0.0,0.0,3.2937,3.4048,3.4601,3.4781,3.5591,3.7114,3.5878,3.4291,3.2412,0.0,0.0,0.0,0.0,0.0,0.0,0.0,0.0,0.0,0.0,0.0,0.0,0.0,0.0,0.0,0.0,0.0,0.0,0.0,0.0,0.0,0.0,0.0,0.0,0.0,0.0,0.0,0.0,0.0,0.0,0.0,0.0,0.0,0.0,0.0,0.0,0.0,0.0,3.5103,3.5495,0.0,0.0,0.0,0.0,0.0,0.0,0.0,0.0,3.5966,0.0,0.0,0.0,0.0,0.0,0.0,0.0,0.0,0.0,0.0,0.0,0.0,0.0,0.0,0.0,0.0,0.0,0.0,0.0,0.0,0.0,0.0,0.0,0.0,0.0,0.0,0.0,0.0,0.0,0.0,0.0,0.0,0.0,0.0,0.0,0.0,0.0,0.0,0.0,0.0,0.0,0.0,0.0,0.0,0.0,0.0,0.0,0.0,0.0,0.0,0.0,0.0,0.0,0.0,0.0,0.0,3.5667,3.3893,3.4152,3.6557,3.6447,3.6778,3.7653,3.7056,3.6363,3.5521,0.0,0.0,0.0,0.0,0.0,0.0,0.0,0.0,0.0,0.0,0.0,0.0,0.0,0.0,0.0,0.0,0.0,0.0,0.0,0.0,0.0,0.0,0.0,0.0,0.0,0.0,0.0,0.0,0.0,0.0,0.0,0.0,0.0,0.0,0.0,0.0,0.0,0.0,0.0,3.8083,3.8214,0.0,0.0,0.0,0.0,0.0,0.0,0.0,0.0,3.6698,0.0,0.0,0.0,0.0,0.0,0.0,0.0,0.0,0.0,0.0,0.0,0.0,0.0,0.0,0.0,0.0,0.0,0.0,0.0,0.0,0.0,0.0,0.0,0.0,0.0,0.0,0.0,0.0,0.0,0.0,0.0,0.0,0.0,0.0,0.0,0.0,0.0,0.0,0.0,0.0,0.0,0.0,0.0,0.0,0.0,0.0,0.0,0.0,0.0,0.0,0.0,0.0,0.0,0.0,0.0,3.6137,3.6299,3.6948,3.8105,3.7939,3.8394,3.9527,3.8286,3.7691,0.0,0.0,0.0,0.0,0.0,0.0,0.0,0.0,0.0,0.0,0.0,0.0,0.0,0.0,0.0,0.0,0.0,0.0,0.0,0.0,0.0,0.0,0.0,0.0,0.0,0.0,0.0,0.0,0.0,0.0,0.0,0.0,0.0,0.0,0.0,0.0,0.0,0.0,0.0,0.0,3.9076,3.9024,3.9939,0.0,0.0,0.0,0.0,0.0,0.0,3.7586,3.7429,0.0,0.0,0.0,0.0,0.0,0.0,0.0,0.0,0.0,0.0,0.0,0.0,0.0,0.0,0.0,0.0,0.0,0.0,0.0,0.0,0.0,0.0,0.0,0.0,0.0,0.0,0.0,0.0,0.0,0.0,0.0,0.0,0.0,0.0,0.0,0.0,0.0,0.0,0.0,0.0,0.0,0.0,0.0,0.0,0.0,0.0,0.0,0.0,0.0,0.0,0.0,0.0,0.0,0.0,0.0,3.6349,3.8291,3.9457,3.9741,3.9433,3.9927,4.1383,3.9373,3.8677,0.0,0.0,0.0,0.0,0.0,0.0,0.0,0.0,0.0,0.0,0.0,0.0,0.0,0.0,0.0,0.0,0.0,0.0,0.0,0.0,0.0,0.0,0.0,0.0,0.0,0.0,0.0,0.0,0.0,0.0,0.0,0.0,0.0,0.0,0.0,0.0,0.0,0.0,0.0,0.0,0.0,4.0039,4.1141,4.0066,0.0,0.0,0.0,0.0,3.7985,3.8635,0.0,0.0,0.0,0.0,0.0,0.0,0.0,0.0,0.0,0.0,0.0,0.0,0.0,0.0,0.0,0.0,0.0,0.0,0.0,0.0,0.0,0.0,0.0,0.0,0.0,0.0,0.0,0.0,0.0,0.0,0.0,0.0,0.0,0.0,0.0,0.0,0.0,0.0,0.0,0.0,0.0,0.0,0.0,0.0,0.0,0.0,0.0,0.0,0.0,0.0,0.0,0.0,0.0,0.0,0.0,0.0,3.8079,3.8241,3.9432,4.1677,4.1059,4.1087,4.2041,4.0336,3.9455,0.0,0.0,0.0,0.0,0.0,0.0,0.0,0.0,0.0,0.0,0.0,0.0,0.0,0.0,0.0,0.0,0.0,0.0,0.0,0.0,0.0,0.0,0.0,0.0,0.0,0.0,0.0,0.0,0.0,0.0,0.0,0.0,0.0,0.0,0.0,0.0,0.0,0.0,0.0,0.0,0.0,4.2545,4.1428,4.0943,4.0219,0.0,0.0,4.0711,4.1409,4.2442,0.0,0.0,0.0,0.0,0.0,0.0,0.0,0.0,0.0,0.0,0.0,0.0,0.0,0.0,0.0,0.0,0.0,0.0,0.0,0.0,0.0,0.0,0.0,0.0,0.0,0.0,0.0,0.0,0.0,0.0,0.0,0.0,0.0,0.0,0.0,0.0,0.0,0.0,0.0,0.0,0.0,0.0,0.0,0.0,0.0,0.0,0.0,0.0,0.0,0.0,0.0,0.0,0.0,0.0,0.0,3.687,3.9065,4.0286,4.1618,4.3087,4.2472,4.2266,4.2675,4.0346,3.8945,0.0,0.0,0.0,0.0,0.0,0.0,0.0,0.0,0.0,0.0,0.0,0.0,0.0,0.0,0.0,0.0,0.0,0.0,0.0,0.0,0.0,0.0,0.0,0.0,0.0,0.0,0.0,0.0,0.0,0.0,0.0,0.0,0.0,0.0,0.0,0.0,0.0,0.0,0.0,0.0,0.0,0.0,4.2573,4.2148,0.0,0.0,0.0,4.1845,4.1639,0.0,0.0,0.0,0.0,0.0,0.0,0.0,0.0,0.0,0.0,0.0,0.0,0.0,0.0,0.0,0.0,0.0,0.0,0.0,0.0,0.0,0.0,0.0,0.0,0.0,0.0,0.0,0.0,0.0,0.0,0.0,0.0,0.0,0.0,0.0,0.0,0.0,0.0,0.0,0.0,0.0,0.0,0.0,0.0,0.0,0.0,0.0,0.0,0.0,0.0,0.0,0.0,0.0,0.0,0.0,0.0,0.0,3.9599,4.1873,4.3363,4.4042,4.352,4.3232,4.318,4.0723,0.0,0.0,0.0,0.0,0.0,0.0,0.0,0.0,0.0,0.0,0.0,0.0,0.0,0.0,0.0,0.0,0.0,0.0,0.0,0.0,0.0,0.0,0.0,0.0,0.0,0.0,0.0,3.5409,0.0,0.0,0.0,0.0,0.0,0.0,0.0,0.0,0.0,0.0,0.0,0.0,0.0,0.0,4.3671,4.4303,4.3963,4.3883,0.0,0.0,4.3397,4.29,4.5177,4.5607,0.0,0.0,0.0,0.0,0.0,0.0,0.0,0.0,0.0,0.0,0.0,0.0,0.0,0.0,0.0,0.0,0.0,0.0,0.0,0.0,0.0,0.0,0.0,0.0,0.0,0.0,0.0,0.0,0.0,0.0,0.0,0.0,0.0,0.0,0.0,0.0,0.0,0.0,0.0,0.0,0.0,0.0,0.0,0.0,0.0,0.0,0.0,0.0,0.0,0.0,0.0,0.0,0.0,0.0,0.0,3.9599,4.1796,4.3493,4.4591,4.4121,4.3807,4.3834,4.2082,4.0095,0.0,0.0,0.0,0.0,0.0,0.0,0.0,0.0,0.0,0.0,0.0,0.0,0.0,0.0,0.0,0.0,0.0,0.0,0.0,0.0,0.0,0.0,0.0,0.0,0.0,0.0,0.0,0.0,0.0,0.0,0.0,0.0,0.0,0.0,0.0,0.0,0.0,0.0,0.0,0.0,0.0,4.6013,4.6661,4.6686,4.6974,0.0,0.0,4.6112,4.6863,4.8979,4.8706,4.331,0.0,0.0,0.0,0.0,0.0,0.0,0.0,0.0,0.0,0.0,0.0,0.0,0.0,0.0,0.0,0.0,0.0,0.0,0.0,0.0,0.0,0.0,0.0,0.0,0.0,0.0,0.0,0.0,0.0,0.0,0.0,0.0,0.0,0.0,0.0,0.0,0.0,0.0,0.0,0.0,0.0,0.0,0.0,0.0,0.0,0.0,0.0,0.0,0.0,0.0,0.0,0.0,0.0,3.7639,3.9599,4.1822,4.3572,4.4643,4.4173,4.3859,4.3859,4.2213,4.0252,0.0,0.0,0.0,0.0,0.0,0.0,0.0,0.0,0.0,0.0,0.0,0.0,0.0,0.0,0.0,0.0,0.0,0.0,0.0,0.0,0.0,0.0,0.0,0.0,0.0,0.0,0.0,0.0,3.9982,3.992,4.0443,0.0,0.0,0.0,0.0,0.0,0.0,0.0,0.0,0.0,0.0,4.75,4.9412,4.9645,0.0,0.0,5.0678,4.9912,4.9978,4.9988,4.8538,4.4366,4.2587,0.0,0.0,0.0,0.0,0.0,0.0,0.0,0.0,0.0,0.0,0.0,0.0,0.0,0.0,0.0,0.0,0.0,0.0,0.0,0.0,0.0,0.0,0.0,0.0,0.0,0.0,0.0,0.0,0.0,0.0,0.0,0.0,0.0,0.0,0.0,0.0,0.0,0.0,0.0,0.0,0.0,0.0,0.0,0.0,0.0,0.0,0.0,0.0,0.0,0.0,0.0,0.0,3.8344,4.0213,4.2797,4.4743,4.5899,4.5523,4.5146,4.4797,4.3587,4.1726,0.0,0.0,0.0,0.0,0.0,0.0,0.0,0.0,0.0,0.0,0.0,0.0,0.0,0.0,0.0,0.0,0.0,0.0,0.0,0.0,0.0,0.0,0.0,0.0,0.0,0.0,0.0,0.0,4.1032,4.072,4.0536,0.0,0.0,0.0,0.0,0.0,0.0,0.0,0.0,0.0,0.0,4.9421,5.1758,5.2003,5.2381,5.3539,5.2428,5.1454,5.1497,5.0615,4.8981,4.6121,0.0,0.0,0.0,0.0,0.0,0.0,0.0,0.0,0.0,0.0,0.0,0.0,0.0,0.0,0.0,0.0,0.0,0.0,0.0,0.0,0.0,0.0,0.0,0.0,0.0,0.0,0.0,4.0532,0.0,0.0,4.0405,0.0,0.0,0.0,0.0,0.0,0.0,0.0,0.0,0.0,0.0,0.0,0.0,0.0,0.0,0.0,0.0,0.0,0.0,0.0,0.0,0.0,0.0,3.9376,4.1544,4.4941,4.7336,4.8503,4.8581,4.7962,4.688,4.6757,4.5035,4.1367,0.0,0.0,0.0,0.0,0.0,0.0,0.0,0.0,0.0,0.0,0.0,0.0,0.0,0.0,0.0,0.0,0.0,0.0,0.0,0.0,0.0,0.0,0.0,0.0,0.0,0.0,4.0566,4.1155,4.1278,0.0,0.0,0.0,0.0,0.0,0.0,0.0,0.0,0.0,0.0,4.9283,5.1908,5.3423,5.3425,5.3462,5.3943,5.1542,5.0035,5.1172,5.1208,5.0572,0.0,0.0,0.0,0.0,0.0,0.0,0.0,0.0,0.0,0.0,0.0,0.0,0.0,0.0,0.0,0.0,0.0,0.0,0.0,0.0,0.0,0.0,0.0,0.0,0.0,0.0,0.0,4.2975,4.283,0.0,0.0,0.0,0.0,0.0,0.0,0.0,0.0,0.0,0.0,0.0,4.4216,4.4788,0.0,0.0,0.0,0.0,0.0,0.0,0.0,0.0,0.0,0.0,0.0,0.0,4.0562,4.2624,4.5409,4.7452,4.8652,4.8709,4.8481,4.8081,4.7309,4.5155,4.1535,0.0,0.0,0.0,0.0,0.0,0.0,0.0,0.0,0.0,0.0,0.0,0.0,0.0,0.0,0.0,0.0,0.0,0.0,0.0,0.0,0.0,0.0,0.0,0.0,0.0,4.1247,0.0,0.0,0.0,0.0,0.0,0.0,0.0,0.0,0.0,0.0,0.0,4.606,4.8332,5.035,5.2336,5.4129,5.4663,5.542,0.0,0.0,0.0,0.0,0.0,0.0,0.0,0.0,0.0,0.0,0.0,0.0,0.0,0.0,4.8364,4.373,4.2536,4.2283,4.2431,0.0,0.0,0.0,0.0,0.0,0.0,0.0,0.0,0.0,0.0,0.0,0.0,0.0,0.0,4.5837,0.0,4.5259,0.0,0.0,0.0,0.0,0.0,0.0,0.0,0.0,4.7068,4.7803,4.7721,4.8263,4.8232,0.0,4.667,4.4264,0.0,0.0,0.0,0.0,0.0,0.0,0.0,0.0,4.1959,4.3805,4.6488,4.84,4.9321,4.9615,4.9662,4.938,4.8148,4.6021,4.2972,4.1244,3.9787,0.0,0.0,0.0,0.0,0.0,0.0,0.0,0.0,0.0,0.0,0.0,0.0,0.0,0.0,0.0,0.0,0.0,0.0,0.0,0.0,0.0,0.0,0.0,4.2155,0.0,0.0,0.0,0.0,0.0,0.0,0.0,0.0,0.0,4.5326,4.6696,4.8419,5.0482,5.2113,5.3406,5.4222,0.0,0.0,0.0,0.0,0.0,0.0,0.0,5.1379,5.1243,5.0155,4.9508,5.0176,5.2098,5.3321,5.2654,0.0,0.0,4.7755,4.6291,4.5852,4.6002,4.6109,4.5976,4.5318,4.5647,4.5729,0.0,0.0,0.0,0.0,0.0,0.0,0.0,0.0,4.797,4.8446,0.0,4.7794,0.0,0.0,0.0,0.0,0.0,4.7282,0.0,0.0,5.1036,5.199,5.082,5.079,5.079,5.0728,5.0051,4.8666,4.6493,4.2698,0.0,0.0,0.0,0.0,0.0,0.0,4.3427,4.5173,4.8103,5.002,5.0654,5.13,5.13,5.0623,4.9332,4.7702,4.5741,4.4349,4.2959,4.1459,4.0109,0.0,0.0,0.0,0.0,0.0,0.0,0.0,0.0,0.0,0.0,0.0,0.0,0.0,0.0,0.0,0.0,0.0,0.0,0.0,0.0,4.2602,0.0,0.0,0.0,0.0,0.0,0.0,0.0,0.0,0.0,0.0,4.737,4.8708,5.0537,5.2373,0.0,0.0,0.0,0.0,5.5222,5.4083,5.3314,5.2975,5.3067,5.3976,5.4714,5.4775,0.0,0.0,5.5021,5.5407,5.5284,5.3345,5.4099,5.456,5.3883,5.1072,4.9216,4.9463,4.8224,4.6977,4.7238,4.8031,4.8348,5.1816,0.0,0.0,0.0,0.0,4.9717,5.1239,5.3169,5.3169,5.2793,5.2078,5.1222,0.0,0.0,0.0,0.0,0.0,0.0,4.8825,4.9866,5.1313,5.2298,5.2852,5.2852,5.2852,5.2821,5.1682,5.0574,4.9466,4.7324,4.4358,4.0715,0.0,0.0,0.0,0.0,4.4694,4.6213,4.851,5.002,5.0667,5.0882,5.0667,4.9989,4.9589,4.8635,4.7065,4.6203,4.5126,4.3734,4.2375,0.0,0.0,0.0,0.0,0.0,0.0,0.0,0.0,0.0,0.0,0.0,0.0,0.0,0.0,0.0,0.0,0.0,0.0,0.0,4.254,4.3078,4.3752,0.0,0.0,0.0,0.0,0.0,0.0,0.0,0.0,0.0,5.3503,5.3213,5.2768,0.0,0.0,5.3765,5.1832,5.3529,5.5222,5.5807,5.6146,0.0,5.7623,5.6884,5.633,5.6823,5.7623,5.8054,5.7685,5.8177,5.8423,5.7777,5.7285,5.6823,5.6546,5.4682,5.3162,5.3132,5.3054,5.29,5.2579,5.2627,5.2468,5.614,5.3894,5.1526,5.109,5.2033,5.3024,5.4368,5.5954,5.5954,5.5494,5.4712,5.3745,5.1754,4.9035,4.8142,0.0,0.0,0.0,5.1371,5.2629,5.3856,5.4863,5.5574,5.5354,5.5152,5.509,5.377,5.2775,5.2083,5.0403,4.787,4.4538,0.0,0.0,4.2602,4.4418,4.5926,4.7004,4.8481,4.9466,4.9866,5.0143,5.0112,4.9755,4.9724,4.9158,4.805,4.7342,4.6634,4.5803,4.451,4.3063,0.0,0.0,0.0,0.0,0.0,0.0,0.0,0.0,0.0,0.0,0.0,4.0613,0.0,0.0,0.0,0.0,4.3619,4.4397,4.5091,4.5521,0.0,0.0,0.0,0.0,0.0,0.0,0.0,5.1667,5.3667,5.5473,5.6888,5.7047,5.6683,5.5654,5.5609,5.5109,5.3471,0.0,5.593,5.7056,5.7795,5.8547,5.9593,5.8978,5.8516,5.8916,5.9316,5.9562,5.9593,5.9932,6.0086,5.9747,5.8916,5.8227,5.8177,5.6946,5.5715,5.5253,5.5407,5.553,5.5161,5.5319,5.5317,5.9408,5.8516,5.4338,5.3024,5.382,5.5044,5.6076,5.6871,5.6871,5.6889,5.6814,5.547,5.345,5.1029,4.9953,0.0,5.1334,5.3552,5.481,5.5491,5.7524,5.8464,5.8367,5.7644,5.732,5.7288,5.596,5.4956,5.4276,5.2205,5.0541,4.9208,4.7076,4.5897,4.5657,4.6296,4.6973,4.7588,4.8296,4.8604,4.8635,4.9251,4.9589,4.9589,4.9589,4.9281,4.8635,4.8019,4.7681,4.765,4.6467,4.4901,4.305,0.0,0.0,0.0,0.0,0.0,0.0,0.0,0.0,0.0,0.0,0.0,0.0,0.0,0.0,0.0,4.6871,0.0,4.8927,4.9038,0.0,0.0,0.0,4.8963,5.0569,5.1966,5.3354,5.4682,0.0,0.0,5.8321,6.008,6.1354,6.1197,5.9518,5.8088,5.7344,5.7121,5.736,5.8107,5.8863,5.9525,6.0439,6.0701,6.0794,6.0661,6.0794,6.0732,6.0701,6.064,6.0455,5.9901,5.9224,5.8762,5.8793,5.8177,5.7469,5.6207,5.5992,5.5992,5.6053,5.6546,5.6928,5.9686,5.9439,5.7832,5.7033,5.6805,5.7113,5.7328,5.758,5.758,5.7628,5.7808,5.6898,5.5708,5.4297,5.4534,5.4196,5.3624,5.5215,5.5718,5.545,5.6931,5.7385,5.6857,5.6631,5.6566,5.6501,5.5701,5.5215,5.4988,5.343,5.2513,5.2126,5.055,4.8396,4.5758,4.6757,4.7434,4.7619,4.8266,4.8604,4.8604,4.8789,4.885,4.8881,4.8881,4.8789,4.8604,4.8481,4.8389,4.8358,4.7668,4.6831,4.583,4.3724,0.0,0.0,0.0,0.0,0.0,0.0,0.0,0.0,0.0,4.3622,4.2622,0.0,4.4821,0.0,4.8326,4.9427,4.9066,4.9542,0.0,0.0,5.1313,5.1785,5.4883,5.5566,5.6111,5.7021,5.8754,6.0216,6.1197,6.1806,6.2735,6.4212,6.1152,5.8377,5.7666,5.8868,6.0024,6.0747,6.2172,6.3437,6.3419,6.3083,6.2246,6.101,6.0845,6.0794,6.0794,6.0363,5.9963,5.9778,5.9224,5.8824,5.8824,5.8639,5.8454,5.8116,5.8054,5.8054,5.8054,5.8177,5.835,6.0733,6.0409,6.0164,5.9712,5.9018,5.8902,5.8967,5.9034,5.9034,5.9141,5.9234,5.8211,5.7441,5.6853,5.729,5.6865,5.5955,5.7364,5.7655,5.706,5.8118,5.8375,5.7978,5.7648,5.7476,5.7483,5.6756,5.6465,5.636,5.4996,5.4115,5.3755,5.2303,5.0402,4.8187,4.8811,4.8985,4.8627,4.896,4.9147,4.9178,4.9178,4.886,4.8214,4.884,4.8883,4.8235,4.8204,4.8204,4.8173,4.7925,4.7308,4.637,4.4947,4.3713,0.0,0.0,0.0,0.0,0.0,0.0,0.0,0.0,0.0,0.0,0.0,4.6782,4.8232,5.0355,5.1463,5.1048,5.1959,5.3038,5.3909,5.4144,5.5194,5.7541,5.8051,5.8693,5.9776,6.0622,6.1434,6.2279,6.2956,6.3666,6.4613,6.2791,6.1183,6.0722,6.125,6.1899,6.2612,6.3894,6.4785,6.4785,6.4336,6.3574,6.2428,6.209,6.2139,6.2121,6.144,6.0889,6.0858,6.004,5.9347,5.9593,5.9408,5.9316,5.9593,5.9686,5.947,5.8916,5.8793,5.8793,6.1834,6.128,6.1584,6.1348,6.0765,6.0526,6.0444,6.0482,6.0482,6.0526,6.0562,5.9577,5.8968,5.8824,5.8903,5.8534,5.7842,5.9271,5.9573,5.893,5.9607,5.9911,5.981,5.9167,5.8863,5.8829,5.8186,5.7881,5.7848,5.6482,5.5381,5.4612,5.3217,5.2085,5.129,5.1331,5.0957,5.0065,5.0065,5.0065,5.0065,4.9931,4.9229,4.7991,4.912,4.9143,4.7927,4.7921,4.7953,4.7985,4.8066,4.7601,4.6466,4.6203,4.5538,0.0,4.3422,0.0,0.0,0.0,0.0,0.0,0.0,0.0,0.0,4.8495,4.9227,5.0525,5.2573,5.3788,5.3788,5.504,5.5683,5.5277,5.6867,5.8355,5.9201,5.9877,6.0757,6.2076,6.2313,6.2415,6.2584,6.3666,6.4208,6.4072,6.4302,6.442,6.4481,6.3737,6.344,6.4072,6.4691,6.5125,6.4923,6.4861,6.4572,6.3973,6.3656,6.3797,6.3703,6.3036,6.2436,6.2207,6.1252,6.0544,6.0805,6.0404,6.027,6.063,6.0671,6.0363,5.9439,5.9162,5.9039,6.1634,6.152,6.1574,6.1662,6.1739,6.1665,6.0946,5.9814,5.9814,6.0218,6.0976,6.1454,6.0964,5.9856,5.9843,5.9111,5.7931,5.8788,5.8795,5.8118,5.8863,5.8896,5.8321,5.8152,5.8084,5.8084,5.7949,5.7881,5.7881,5.6993,5.6179,5.5471,5.4589,5.3465,5.2197,0.0,0.0,0.0,5.0881,5.0881,5.0849,5.0225,4.9727,4.9486,4.9162,0.0,4.8638,4.919,4.948,4.9517,5.0102,0.0,0.0,0.0,0.0,0.0,0.0,0.0,0.0,0.0,0.0,0.0,4.9587,4.9809,4.8967,5.1055,5.2573,5.291,5.4362,5.531,5.531,5.6089,5.7036,5.8084,5.8558,5.9336,6.0655,6.0994,6.1231,6.1467,6.2042,6.2618,6.3226,6.3565,6.414,6.5053,6.5392,6.5722,6.6188,6.5572,6.5429,6.61,6.6229,6.6089,6.5312,6.5255,6.495,6.4077,6.3797,6.3891,6.3891,6.375,6.318,6.2583,6.2699,6.2441,6.1144,6.1356,6.1615,6.0918,6.0845,6.0732,6.0486,6.0393,6.0424,6.2157,0.0,6.2309,6.2381,0.0,6.2204,6.1724,6.0986,6.0986,6.1268,6.175,6.2189,6.1772,6.0689,6.0689,5.9877,5.8457,5.8829,5.8626,5.7915,5.8287,5.8254,5.7881,5.7881,5.7881,5.7881,5.7881,5.7881,5.7881,5.7509,5.6968,5.6224,5.5513,5.4562,5.3474,5.3483,5.3109,5.2274,5.1915,5.1696,5.1696,5.1663,5.1088,5.0038,5.0725,0.0,0.0,0.0,0.0,0.0,0.0,0.0,0.0,0.0,0.0,4.905,4.8425,4.7998,4.8032,4.8989,5.0122,5.1195,5.2606,5.2976,5.1826,5.3518,5.4735,5.5108,5.5852,5.6562,5.7236,5.7679,5.8355,5.9404,5.9911,6.0486,6.1197,6.1637,6.1839,6.1907,6.2516,6.3091,6.3463,6.4174,6.4816,6.5595,6.6034,6.6373,6.6677,6.6508,6.6406,6.6745,6.6812,6.6643,6.6148,6.6062,6.5898,6.5382,6.5293,6.5293,6.5293,6.4856,6.4355,6.3891,6.3844,6.3371,6.26,6.2729,6.2729,6.1853,6.1551,6.1328,6.0918,6.0794,6.0794,6.2623,6.2166,6.2939,6.2956,6.2415,6.2415,6.2415,6.2415,0.0,0.0,0.0,6.2245,6.1772,6.1095,6.096,6.0148,5.8829,5.8795,5.849,5.7881,5.7881,5.7881,5.7881,5.7881,5.7881,5.7881,5.7881,5.7881,5.7881,5.7881,5.7509,5.6799,5.619,5.548,5.46,5.3856,5.3518,5.3484,5.2834,5.2485,5.2518,5.2986,5.2302,5.0442,5.2165,5.2202,5.0392,5.0425,5.0225,4.9626,4.9593,4.9593,4.9593,5.005,5.0574,5.115,5.1286,5.1422,5.1623,5.23,5.3112,5.4025,5.5209,5.5649,5.5006,5.5547,5.6224,5.6934,5.7137,5.7679,5.8896,5.9133,5.9505,6.025,6.0892,6.1332,6.1501,6.2009,6.2415,6.2618,6.3125,6.3632,6.3971,6.4918,6.573,6.5933,6.6406,6.6711,6.6677,6.6677,6.6745,6.6812,6.6812,6.677,6.677,6.6728,6.6812,6.6643,6.6686,6.6812,6.6686,6.6105,6.5548,6.5159,6.4675,6.4262,6.3937,6.3891,6.3703,6.2778,6.2565,6.227,6.1328,6.1072,6.1021,6.2419,6.2358,6.251,6.2482,6.2415,6.2415,6.2415,6.2415,6.2415,6.2415,6.2347,6.1738,6.1028,6.025,5.9607,5.8863,5.8051,5.8051,5.7983,5.7881,5.7881,5.7881,5.7881,5.7881,5.7881,5.7881,5.7881,5.7881,5.7881,5.7881,5.7509,5.6867,5.6697,5.5953,5.4634,5.3856,5.3518,5.3518,5.3382,5.3314,5.3314,5.2741,5.2303,5.2001,5.1695,5.1422,5.1055,5.1628,5.1965,5.1864,5.183,5.183,5.183,5.1321,5.1116,5.1217,5.1792,5.2435,5.3145,5.3856,5.4871,5.619,5.6528,5.6596,5.6494,5.6596,5.6934,5.7679,5.8287,5.8761,5.9032,5.9607,6.025,6.0994,6.1231,6.1535,6.2144,6.2347,6.2685,6.3294,6.3429,6.4038,6.5053,6.5527,6.5933,6.6474,6.6609,6.6576,6.617,6.6406,6.6779,6.6812,6.6812,6.6812,6.6812,6.6812,6.6812,6.6812,6.6812,6.6812,6.6812,6.6643,6.6192,6.5504,6.5767,6.5592,6.4355,6.4538,6.4538,6.3844,6.3609,6.3228,6.2288,6.2072,6.1853,6.2415,6.2415,6.2415,6.2415,6.2415,6.2415,6.2415,6.2415,6.2415,6.2415,6.2347,6.2042,6.1231,6.0114,5.9742,5.8964,5.7881,5.7881,5.7881,5.7881,5.7881,5.7881,5.7881,5.7881,5.7881,5.7881,5.7881,5.7881,5.7881,5.7881,5.7712,5.734,5.663,5.5683,5.46,5.3856,5.3518,5.3518,5.3518,5.3518,5.3518,5.3518,5.3348,5.2976,5.2976,5.2841,5.2469,5.2773,5.2773,5.2334,5.23,5.23,5.23,5.1961,5.2164,5.2976,5.3348,5.389,5.4668,5.5378,5.6258,5.7306,5.7374,5.7577,5.7983,5.8017,5.8152,5.849,5.9167,5.981,6.0216,6.0554,6.1061,6.1806,6.1873,6.2178,6.2854,6.299,6.3294,6.3971,6.4106,6.4512,6.5561,6.5696,6.5967,6.6609,6.6508,6.6068,6.573,6.5967,6.6203,6.6237,6.6542,6.6779,6.6812,6.6812,6.6812,6.6812,6.6812,6.6812,6.6812,6.6812,6.6567,6.6268,6.6525,6.644,6.5426,6.5767,6.5636,6.4934,6.4584,6.4216,6.3419,6.3084,6.2583,6.2415,6.2415,6.2415,6.2415,6.2415,6.2415,6.2415,6.2415,6.2415,6.2415,6.2381,6.2212,6.1467,6.0419,6.0013,5.9235,5.822,5.7949,5.7881,5.7881,5.7881,5.7881,5.7881,5.7881,5.7881,5.7881,5.7881,5.7881,5.7881,5.7881,5.7881,5.7746,5.6596,5.5649,5.5074,5.4363,5.3923,5.3754,5.3923,5.3856,5.3551,5.4059,5.4059,5.3619,5.4025,5.4059,5.3551,5.3518,5.3281,5.2841,5.2638,5.2706,5.3044,5.2909,5.3416,5.4668,5.4837,5.5175,5.5919,5.663,5.7273,5.7848,5.8051,5.8389,5.893,5.9336,5.9438,5.937,5.9945,6.0622,6.1129,6.1467,6.1772,6.2313,6.2415,6.2651,6.3362,6.3491,6.3869,6.4613,6.4715,6.485,6.5493,6.5696,6.5899,6.6271,6.6034,6.5662,6.5493,6.5662,6.5899,6.5865,6.6339,6.6779,6.6812,6.6812,6.6812,6.6812,6.6812,6.6812,6.6812,6.6812,6.677,6.6728,6.677,6.6728,6.677,6.677,6.644,6.5767,6.5636,6.5293,6.4355,6.3891,6.3276,6.2415,6.2415,6.2415,6.2415,6.2415,6.2415,6.2415,6.2415,6.2415,6.2415,6.2347,6.1704,6.1366,6.1028,5.9776,5.9099,5.8863,5.8186,5.7915,5.7915,5.7881,5.7881,5.7881,5.7881,5.7881,5.7881,5.7881,5.7881,5.7881,5.7881,5.7881,5.7814,5.707,5.663,5.6494,5.5818,5.5141,5.4532,5.5175,5.4837,5.3585,5.3585,5.3585,5.3518,5.3585,5.3585,5.3518,5.3518,5.3788,5.4262,5.3754,5.3991,5.5073,5.4735,5.4735,5.5513,5.5615,5.5919,5.6664,5.7374,5.7814,5.7915,5.8524,5.893,5.9099,6.0283,6.0757,6.0317,6.0723,6.1231,6.1332,6.1873,6.2279,6.2448,6.2482,6.2685,6.3463,6.3491,6.4038,6.5425,6.4986,6.4884,6.5459,6.5595,6.5662,6.5764,6.5662,6.5392,6.5019,6.5764,6.6271,6.5967,6.6339,6.6745,6.6812,6.6812,6.6745,6.6779,6.6812,6.6812,6.6812,6.6812,6.6812,6.6812,6.6812,6.6812,6.6812,6.6812,6.677,6.6525,6.644,6.6311,6.5337,6.4518,6.3544,6.2415,6.2415,6.2415,6.2415,6.2415,6.2415,6.2415,6.2415,6.2415,6.2415,6.2381,6.2076,6.1704,6.1264,6.0622,6.0114,5.9607,5.8896,5.8558,5.8524,5.8118,5.7881,5.7881,5.7881,5.7881,5.7881,5.7881,5.7881,5.7881,5.7881,5.7881,5.7814,5.7171,5.6799,5.6765,5.6089,5.5344,5.46,5.4905,5.4532,5.3687,5.3923,5.3957,5.3551,5.3518,5.3518,5.3551,5.389,5.4296,5.4566,5.4735,5.5074,5.5683,5.5446,5.5615,5.6292,5.6765,5.7137,5.7442,5.7712,5.8084,5.849,5.8829,5.9167,5.9607,6.025,6.0622,6.0892,6.1501,6.1941,6.1941,6.2212,6.2584,6.2922,6.3057,6.3497,6.4681,6.4783,6.5087,6.5561,6.5053,6.4681,6.4952,6.5053,6.5053,6.5053,6.5053,6.4952,6.4715,6.5493,6.5933,6.5865,6.6339,6.6779,6.6779,6.6406,6.6406,6.6677,6.6812,6.6812,6.6812,6.6812,6.6812,6.6812,6.6812,6.6812,6.6812,6.6812,6.6812,6.6812,6.6812,6.6643,6.6235,6.5521,6.4597,6.2415,6.2415,6.2415,6.2415,6.2415,6.2415,6.2415,6.2415,6.2415,6.2415,6.2415,6.2415,6.211,6.1637,6.14,6.096,6.0385,5.9641,5.9201,5.8964,5.8457,5.8084,5.7915,5.7881,5.7881,5.7881,5.7881,5.7881,5.7881,5.7881,5.7881,5.778,5.734,5.7103,5.7036,5.6562,5.5953,5.531,5.5378,5.504,5.4329,5.4634,5.4465,5.3619,5.3518,5.3585,5.3822,5.4329,5.4803,5.5209,5.5547,5.5919,5.6292,5.6122,5.6359,5.7036,5.7577,5.7881,5.7881,5.8084,5.8423,5.8964,5.9167,5.9539,5.9979,6.008,6.0452,6.1197,6.1806,6.211,6.2381,6.2415,6.2719,6.3396,6.3491,6.4106,6.5425,6.5561,6.5392,6.5595,6.4816,6.4309,6.4309,6.4309,6.4343,6.4613,6.4816,6.4884,6.4986,6.5527,6.6034,6.6,6.6339,6.6542,6.6711,6.6474,6.6339,6.6542,6.6812,6.6812,6.6812,6.6812,6.6812,6.6812,6.6812,6.6812,6.6812,6.6812,6.6779,6.6812,6.6779,6.6677,6.6281,6.5959,6.5337,6.2415,6.2415,6.2415,6.2415,6.2415,6.2415,6.2415,6.2415,6.2415,6.2415,6.2415,6.2415,6.2381,6.2245,6.1637,6.1298,6.1129,6.0419,5.9742,5.9167,5.8964,5.8558,5.7915,5.7881,5.7881,5.7881,5.7881,5.7881,5.7881,5.7881,5.7881,5.7848,5.778,5.785,5.778,5.7679,5.7408,5.6697,5.7103,5.6934,5.575,5.558,5.4938,5.3788,5.3518,5.3856,5.4465,5.46,5.5243,5.663,5.6122,5.6359,5.7509,5.7103,5.707,5.7712,5.7848,5.7881,5.7949,5.8457,5.8896,5.9099,5.9539,6.0013,5.9979,5.9979,6.0351,6.1197,6.1264,6.1603,6.2279,6.2415,6.2753,6.3463,6.3491,6.4174,6.5527,6.5121,6.5019,6.5222,6.4343,6.3632,6.3565,6.3565,6.3971,6.4512,6.5155,6.5561,6.5628,6.6203,6.6609,6.6508,6.6271,6.6,6.6643,6.6474,6.6542,6.7015,6.7151,6.6812,6.6812,6.6812,6.6779,6.6711,6.6508,6.6508,6.6711,6.6779,6.6677,6.6677,6.6643,6.6508,6.6102,6.5797,6.5159,6.2415,6.2415,6.2415,6.2415,6.2415,6.2415,6.2415,6.2415,6.2415,6.2415,6.2415,6.2415,6.2415,6.2347,6.211,6.2009,6.1941,6.1197,6.0723,6.0351,5.9471,5.8863,5.8592,5.8152,5.7881,5.7881,5.7881,5.7881,5.7881,5.7881,5.7881,5.7881,5.7881,5.7881,5.7881,5.7881,5.7543,5.69,5.707,5.6697,5.5817,5.5681,5.5446,5.4938,5.4431,5.4532,5.5277,5.575,5.6258,5.6799,5.6968,5.734,5.778,5.7645,5.7611,5.7848,5.7881,5.7881,5.7915,5.8118,5.8524,5.8998,5.9235,5.9438,5.9404,5.9438,5.9742,6.0351,6.0554,6.1028,6.2076,6.2415,6.2888,6.3903,6.3835,6.4072,6.5155,6.5053,6.4546,6.4208,6.3396,6.2821,6.2922,6.3226,6.3802,6.4512,6.5222,6.5662,6.5797,6.6339,6.6677,6.6305,6.6271,6.6474,6.6711,6.6339,6.6339,6.7387,6.776,6.7083,6.6812,6.6271,6.6102,6.5797,6.573,6.5662,6.573,6.6102,6.6102,6.6102,6.6102,6.6136,6.573,6.5121,6.4512,6.2415,6.2415,6.2415,6.2415,6.2415,6.2415,6.2415,6.2415,6.2415,6.2415,6.2415,6.2415,6.2415,6.2415,6.2415,6.2415,6.2347,6.1873,6.1535,6.1231,6.0216,5.9505,5.8964,5.849,5.8118,5.7915,5.7881,5.7881,5.7881,5.7881,5.7881,5.7881,5.7881,5.7881,5.7881,5.7881,5.7611,5.7205,5.7171,5.69,5.6427,5.619,5.619,5.6258,5.5683,5.5513,5.6055,5.6562,5.6934,5.7171,5.7645,5.7881,5.7881,5.7881,5.7881,5.7881,5.7881,5.7881,5.7915,5.8118,5.849,5.893,5.8998,5.8998,5.8998,5.8998,5.937,5.9911,6.0419,6.1061,6.2009,6.2415,6.2922,6.3937,6.3802,6.4005,6.5121,6.4681,6.3971,6.3294,6.2787,6.2448,6.2516,6.3328,6.4005,6.458,6.5392,6.6,6.6136,6.6406,6.6677,6.6203,6.6508,6.6846,6.7049,6.6779,6.6373,6.7218,6.732,6.6812,6.6576,6.5967,6.5324,6.4986,6.4749,6.4647,6.4816,6.5256,6.5392,6.5392,6.5595,6.5696,6.5053,6.4208,6.3734,6.2415,6.2415,6.2415,6.2415,6.2415,6.2415,6.2415,6.2415,6.2415,6.2415,6.2415,6.2415,6.2415,6.2415,6.2415,6.2415,6.2381,6.2313,6.1975,6.14,6.1197,6.0419,5.9268,5.9099,5.866,5.8017,5.7915,5.7881,5.7881,5.7881,5.7881,5.7881,5.7881,5.7881,5.7881,5.7881,5.7881,5.778,5.778,5.778,5.778,5.7137,5.7103,5.7611,5.707,5.6731,5.6799,5.6867,5.7171,5.7712,5.7848,5.7881,5.7881,5.7881,5.7881,5.7881,5.7881,5.7881,5.7949,5.8457,5.8761,5.8896,5.893,5.893,5.8998,5.9032,5.937,6.0182,6.0825,6.1569,6.2178,6.2415,6.2719,6.3396,6.3463,6.3734,6.4241,6.3937,6.3226,6.2618,6.2415,6.2415,6.2685,6.3599,6.4444,6.4783,6.5764,6.6677,6.6643,6.6745,6.6736,6.6779,6.6779,6.6948,6.7184,6.732,6.7015,6.6812,6.6508,6.617,6.6373,6.6,6.5053,6.458,6.4072,6.3937,6.4005,6.441,6.4749,6.4816,6.5087,6.5121,6.4377,6.3666,6.326,6.2415,6.2415,6.2415,6.2415,6.2415,6.2415,6.2415,6.2415,6.2415,6.2415,6.2415,6.2415,6.2415,6.2415,6.2415,6.2415,6.2415,6.2381,6.2245,6.2009,6.1535,6.1095,6.0554,6.0013,5.937,5.8693,5.8118,5.7881,5.7881,5.7881,5.7881,5.7881,5.7881,5.7881,5.7881,5.7881,5.7881,5.7881,5.7881,5.7881,5.7881,5.7679,5.7679,5.7814,5.7645,5.7543,5.7543,5.7543,5.7645,5.7881,5.7881,5.7881,5.7881,5.7881,5.7881,5.7881,5.7881,5.7881,5.7881,5.8118,5.8321,5.8287,5.8254,5.8524,5.893,5.9066,5.9607,6.0689,6.1197,6.1603,6.2212,6.2415,6.2719,6.3429,6.3057,6.3057,6.3632,6.3226,6.2719,6.2482,6.2415,6.2415,6.2651,6.37,6.4613,6.4783,6.5899,6.6812,6.6812,6.6812,6.6812,6.6812,6.6846,6.688,6.7015,6.7151,6.7049,6.6812,6.6474,6.6203,6.6305,6.5831,6.4918,6.4241,6.37,6.3497,6.3497,6.3734,6.4208,6.4377,6.4613,6.4309,6.3734,6.3429,6.326,6.2415,6.2415,6.2415,6.2415,6.2415,6.2415,6.2415,6.2415,6.2415,6.2415,6.2415,6.2415,6.2415,6.2415,6.2415,6.2415,6.2415,6.2415,6.2415,6.2347,6.1975,6.1569,6.1231,6.0486,5.9742,5.9066,5.8524,5.8152,5.7881,5.7881,5.7881,5.7881,5.7881,5.7881,5.7881,5.7881,5.7881,5.7881,5.7881,5.7881,5.7881,5.7881,5.7881,5.7881,5.7881,5.7881,5.7881,5.7881,5.7881,5.7881,5.7881,5.7881,5.7881,5.7881,5.7881,5.7881,5.7881,5.7881,5.7915,5.8186,5.8321,5.8321,5.8558,5.8896,5.9404,5.9607,6.0385,6.1095,6.1569,6.1907,6.2279,6.2415,6.2618,6.3024,6.2685,6.2618,6.2956,6.2685,6.2448,6.2448,6.2651,6.2753,6.3091,6.4038,6.4952,6.5189,6.6034,6.6812,6.6812,6.6812,6.6812,6.6812,6.6812,6.6846,6.6812,6.6914,6.6981,6.6846,6.6677,6.6542,6.6542,6.5662,6.4715,6.4241,6.3734,6.3802,6.3835,6.3971,6.4309,6.4275,6.441,6.4478,6.4343,6.4072,6.3903,6.2415,6.2415,6.2415,6.2415,6.2415,6.2415,6.2415,6.2415,6.2415,6.2415,6.2415,6.2415,6.2415,6.2415,6.2415,6.2415,6.2415,6.2415,6.2415,6.2415,6.2279,6.2009,6.1434,6.0689,6.0013,5.9404,5.9167,5.8693,5.8118,5.8084,5.7915,5.7915,5.7881,5.7881,5.7881,5.7881,5.7881,5.7881,5.7881,5.7881,5.7881,5.7881,5.7881,5.7881,5.7983,5.7983,5.7881,5.7881,5.7881,5.7881,5.7881,5.7881,5.7881,5.7881,5.7881,5.8017,5.7983,5.8084,5.8186,5.8727,5.9066,5.9099,5.9573,6.0148,6.0216,6.0689,6.1129,6.1467,6.1975,6.2347,6.2381,6.2415,6.2448,6.2482,6.2618,6.2618,6.2482,6.2584,6.2787,6.2821,6.3159,6.3565,6.3632,6.4816,6.5425,6.573,6.6305,6.6711,6.6812,6.6812,6.6812,6.6812,6.6812,6.6812,6.6812,6.6846,6.6914,6.688,6.6779,6.6711,6.6508,6.5595,6.4986,6.4478,6.4072,6.4106,6.4174,6.4309,6.4377,6.4478,6.4715,6.5053,6.4986,6.4613,6.4512,6.2415,6.2415,6.2415,6.2415,6.2415,6.2415,6.2415,6.2415,6.2415,6.2415,6.2415,6.2415,6.2415,6.2415,6.2415,6.2415,6.2415,6.2415,6.2415,6.2415,6.2415,6.2313,6.2009,6.1366,6.0892,6.0588,6.0047,5.9438,5.8761,5.8727,5.8457,5.7881,5.7949,5.7915,5.7881,5.7915,5.7881,5.7881,5.7881,5.7881,5.7915,5.7915,5.7881,5.7949,5.8423,5.8389,5.7949,5.7881,5.7881,5.7881,5.7881,5.7881,5.7915,5.7949,5.8186,5.8626,5.8727,5.8964,5.9404,5.9674,5.981,5.981,6.008,6.0351,6.096,6.1163,6.1569,6.1941,6.2313,6.2415,6.2415,6.2415,6.2618,6.3125,6.326,6.326,6.3294,6.37,6.4005,6.4038,6.4174,6.4309,6.4512,6.5087,6.573,6.5865,6.6305,6.6812,6.6812,6.6812,6.6812,6.6812,6.6812,6.6812,6.6812,6.6812,6.6846,6.688,6.6846,6.6779,6.6406,6.5662,6.5358,6.5121,6.4681,6.458,6.4546,6.4546,6.4613,6.485,6.5189,6.5595,6.5222,6.4884,6.4986,6.2415,6.2415,6.2415,6.2415,6.2415,6.2415,6.2415,6.2415,6.2415,6.2415,6.2415,6.2415,6.2415,6.2415,6.2415,6.2415,6.2415,6.2415,6.2415,6.2415,6.2415,6.2381,6.2279,6.1907,6.1603,6.1264,6.0825,6.0216,5.9607,5.9471,5.9201,5.8863,5.8524,5.8355,5.8355,5.8017,5.7881,5.7881,5.7881,5.8017,5.8321,5.8355,5.8355,5.8423,5.8795,5.866,5.8017,5.7881,5.7881,5.7881,5.7881,5.8017,5.8321,5.8355,5.8693,5.9404,5.9471,5.9674,6.0047,6.0385,6.0588,6.0689,6.0825,6.1264,6.1637,6.1772,6.2009,6.2279,6.2381,6.2415,6.2448,6.2651,6.3193,6.3835,6.4241,6.4275,6.4038,6.4309,6.4546,6.4647,6.485,6.5053,6.5053,6.5696,6.6034,6.6237,6.6508,6.6745,6.6812,6.6812,6.6812,6.6812,6.6812,6.6812,6.6812,6.6812,6.6812,6.6846,6.6846,6.6812,6.6508,6.5933,6.5967,6.5831,6.5358,6.5121,6.5189,6.5256,6.5392,6.5662,6.5933,6.6,6.5764,6.5493,6.5561,6.2415,6.2415,6.2415,6.2415,6.2415,6.2415,6.2415,6.2415,6.2415,6.2415,6.2415,6.2415,6.2415,6.2415,6.2415,6.2415,6.2415,6.2415,6.2415,6.2415,6.2415,6.2415,6.2381,6.2313,6.2009,6.1603,6.1434,6.096,6.0419,6.0216,6.0148,5.981,5.9336,5.9066,5.8829,5.8355,5.8017,5.7881,5.7881,5.8118,5.8524,5.8626,5.8592,5.8626,5.8896,5.8829,5.8423,5.8254,5.8254,5.8152,5.8051,5.8423,5.8998,5.9133,5.9607,6.0182,6.0351,6.0317,6.0588,6.1231,6.14,6.1467,6.1975,6.2381,6.2313,6.2279,6.2313,6.2381,6.2448,6.2685,6.2888,6.3294,6.3903,6.458,6.5256,6.529,6.5019,6.4816,6.4816,6.485,6.5459,6.573,6.5967,6.6339,6.6779,6.6508,6.6745,6.6779,6.6812,6.6812,6.6812,6.6812,6.6812,6.6812,6.6812,6.6812,6.6812,6.6846,6.6846,6.6812,6.6812,6.6542,6.6677,6.6542,6.6034,6.6,6.6271,6.6339,6.6203,6.6271,6.644,6.6609,6.6677,6.6406,6.6305,6.2415,6.2415,6.2415,6.2415,6.2415,6.2415,6.2415,6.2415,6.2415,6.2415,6.2415,6.2415,6.2415,6.2415,6.2415,6.2415,6.2415,6.2415,6.2415,6.2415,6.2415,6.2415,6.2415,6.2415,6.2313,6.211,6.2144,6.1738,6.1197,6.0994,6.0723,6.0182,6.0047,5.9607,5.9133,5.8964,5.8457,5.8017,5.7949,5.8084,5.8254,5.8355,5.8355,5.8355,5.8795,5.9268,5.9573,5.9641,5.9641,5.9505,5.9167,5.9201,5.9742,5.9877,6.0486,6.1298,6.1298,6.1501,6.2381,6.2245,6.2144,6.211,6.2245,6.2415,6.2415,6.2448,6.2415,6.2516,6.2922,6.3463,6.3971,6.4241,6.4715,6.5324,6.5628,6.5899,6.6203,6.6271,6.6203,6.6271,6.6373,6.6576,6.6542,6.6609,6.6812,6.6812,6.6812,6.6812,6.6812,6.6812,6.6812,6.6812,6.6812,6.6812,6.6812,6.6812,6.6812,6.6812,6.6812,6.6812,6.6812,6.6812,6.6812,6.6812,6.6677,6.6779,6.6779,6.6779,6.6542,6.6711,6.6812,6.6812,6.6812,6.6812,6.6812,6.2415,6.2415,6.2415,6.2415,6.2415,6.2415,6.2415,6.2415,6.2415,6.2415,6.2415,6.2415,6.2415,6.2415,6.2415,6.2415,6.2415,6.2415,6.2415,6.2415,6.2415,6.2415,6.2415,6.2415,6.2415,6.2415,6.2381,6.2144,6.1907,6.1772,6.1637,6.1163,6.0858,6.0554,6.0047,5.9708,5.937,5.9066,5.893,5.893,5.893,5.893,5.893,5.893,5.9336,5.9742,6.0013,6.008,6.0283,6.0452,6.0283,6.025,6.0554,6.0689,6.1264,6.2042,6.211,6.211,6.2651,6.2651,6.2381,6.2415,6.2415,6.2651,6.2821,6.2922,6.3125,6.3396,6.3835,6.4309,6.4986,6.5121,6.5493,6.6034,6.6203,6.6406,6.6711,6.6812,6.6812,6.6812,6.6745,6.6779,6.6812,6.6812,6.6812,6.6812,6.6812,6.6812,6.6812,6.6812,6.6812,6.6812,6.6812,6.6812,6.6812,6.6812,6.6812,6.6812,6.6812,6.6812,6.6812,6.6812,6.6812,6.6812,6.6779,6.6779,6.6812,6.6812,6.6812,6.6812,6.6812,6.6812,6.6812,6.6812,6.6812,6.2415,6.2415,6.2415,6.2415,6.2415,6.2415,6.2415,6.2415,6.2415,6.2415,6.2415,6.2415,6.2415,6.2415,6.2415,6.2415,6.2415,6.2415,6.2415,6.2415,6.2415,6.2415,6.2415,6.2415,6.2415,6.2415,6.2415,6.2347,6.2347,6.2381,6.2212,6.2212,6.1772,6.1298,6.1095,6.0655,6.0148,5.9911,5.9844,5.9877,5.9911,5.9911,5.9911,5.9911,6.0182,6.0317,6.0452,6.0588,6.0825,6.14,6.1467,6.1467,6.1467,6.1501,6.1772,6.2516,6.2448,6.2482,6.2719,6.2685,6.2618,6.255,6.2753,6.3057,6.3531,6.37,6.3903,6.4309,6.4681,6.5087,6.573,6.5865,6.617,6.6609,6.6779,6.6812,6.6812,6.6812,6.6812,6.6812,6.6812,6.6812,6.6812,6.6812,6.6812,6.6812,6.6812,6.6846,6.6846,6.6846,6.688,6.6812,6.6812,6.6812,6.6812,6.688,6.6846,6.6914,6.6914,6.6948,6.6914,6.6812,6.6812,6.6812,6.6812,6.6812,6.6812,6.6812,6.6812,6.6812,6.6812,6.6812,6.6812,6.6812,6.6812,6.2415,6.2415,6.2415,6.2415,6.2415,6.2415,6.2415,6.2415,6.2415,6.2415,6.2415,6.2415,6.2415,6.2415,6.2415,6.2415,6.2415,6.2415,6.2415,6.2415,6.2415,6.2415,6.2415,6.2415,6.2415,6.2415,6.2415,6.2415,6.2415,6.2415,6.2415,6.2347,6.2245,6.1941,6.1467,6.1129,6.0791,6.0486,6.0351,6.0351,6.025,6.0216,6.0216,6.0317,6.0791,6.1061,6.1231,6.167,6.2076,6.2212,6.2178,6.2178,6.211,6.211,6.2482,6.2821,6.2651,6.2584,6.3091,6.326,6.3294,6.3463,6.3768,6.4106,6.4377,6.4444,6.458,6.4816,6.529,6.5797,6.6542,6.6508,6.6609,6.6812,6.6812,6.6812,6.6812,6.6812,6.6812,6.6812,6.6812,6.6812,6.6812,6.6812,6.6812,6.6812,6.6812,6.6948,6.7049,6.7015,6.6981,6.6914,6.6812,6.6812,6.6812,6.688,6.6914,6.7049,6.7117,6.7218,6.7151,6.6914,6.6846,6.7252,6.7083,6.6812,6.6812,6.6846,6.6812,6.6812,6.6812,6.6812,6.6812,6.6812,6.6812,6.2415,6.2415,6.2415,6.2415,6.2415,6.2415,6.2415,6.2415,6.2415,6.2415,6.2415,6.2415,6.2415,6.2415,6.2415,6.2415,6.2415,6.2415,6.2415,6.2415,6.2415,6.2415,6.2415,6.2415,6.2415,6.2415,6.2415,6.2415,6.2415,6.2415,6.2415,6.2415,6.2415,6.2212,6.1941,6.1873,6.1637,6.1298,6.1231,6.1061,6.0757,6.0723,6.0723,6.0926,6.14,6.1806,6.1941,6.211,6.2381,6.2381,6.2381,6.2415,6.2415,6.2448,6.2584,6.2854,6.2651,6.2719,6.3362,6.3491,6.3592,6.4072,6.4478,6.4783,6.5053,6.5189,6.5324,6.5696,6.5933,6.6406,6.6779,6.6812,6.6812,6.6812,6.6812,6.6812,6.6846,6.6846,6.6812,6.6812,6.688,6.688,6.6812,6.6812,6.6812,6.6812,6.6846,6.7083,6.7354,6.7387,6.7421,6.759,6.7557,6.7286,6.7286,6.7354,6.7387,6.7455,6.7557,6.7658,6.7793,6.776,6.7895,6.8199,6.7793,6.7151,6.688,6.688,6.6846,6.688,6.688,6.6914,6.6846,6.6812,6.6812,6.2415,6.2415,6.2415,6.2415,6.2415,6.2415,6.2415,6.2415,6.2415,6.2415,6.2415,6.2415,6.2415,6.2415,6.2415,6.2415,6.2415,6.2415,6.2415,6.2415,6.2415,6.2415,6.2415,6.2415,6.2415,6.2415,6.2415,6.2415,6.2415,6.2415,6.2415,6.2415,6.2415,6.2415,6.2347,6.2279,6.2381,6.2415,6.2381,6.2042,6.167,6.1501,6.1535,6.1535,6.211,6.2347,6.2313,6.2347,6.2381,6.2415,6.2415,6.2448,6.2584,6.2618,6.2685,6.2787,6.2719,6.3024,6.3565,6.4038,6.4377,6.4783,6.4986,6.5392,6.5696,6.5967,6.6136,6.6677,6.6779,6.6745,6.6812,6.6812,6.6914,6.7049,6.6981,6.688,6.6981,6.6981,6.6846,6.6846,6.6914,6.6981,6.6981,6.7218,6.7286,6.7489,6.7557,6.7895,6.8132,6.8166,6.8233,6.8504,6.847,6.7996,6.7929,6.8064,6.8132,6.8199,6.8335,6.8504,6.8707,6.8842,6.8944,6.8876,6.8368,6.776,6.7354,6.7286,6.7624,6.7692,6.7286,6.7117,6.7252,6.7015,6.6812,6.2415,6.2415,6.2415,6.2415,6.2415,6.2415,6.2415,6.2415,6.2415,6.2415,6.2415,6.2415,6.2415,6.2415,6.2415,6.2415,6.2415,6.2415,6.2415,6.2415,6.2415,6.2415,6.2415,6.2415,6.2415,6.2415,6.2415,6.2415,6.2415,6.2415,6.2415,6.2415,6.2415,6.2415,6.2415,6.2415,6.2415,6.2415,6.2415,6.2347,6.2212,6.2178,6.2178,6.2245,6.2313,6.2415,6.2415,6.2482,6.2516,6.2482,6.2448,6.2753,6.3226,6.3396,6.3768,6.3937,6.3903,6.37,6.441,6.4884,6.5256,6.5595,6.6034,6.6474,6.6542,6.6542,6.6609,6.6745,6.6812,6.6914,6.6948,6.688,6.7184,6.7387,6.7421,6.7489,6.7557,6.7624,6.7387,6.7387,6.7624,6.7387,6.7218,6.7523,6.7793,6.803,6.8301,6.8639,6.8977,6.9079,6.8944,6.918,6.9214,6.8774,6.8538,6.8673,6.8876,6.8944,6.9214,6.9417,6.9553,6.9654,6.9383,6.9214,6.8808,6.8808,6.8774,6.8808,6.8842,6.8504,6.8064,6.7861,6.7793,6.7455,6.7151,6.2415,6.2415,6.2415,6.2415,6.2415,6.2415,6.2415,6.2415,6.2415,6.2415,6.2415,6.2415,6.2415,6.2415,6.2415,6.2415,6.2415,6.2415,6.2415,6.2415,6.2415,6.2415,6.2415,6.2415,6.2415,6.2415,6.2415,6.2415,6.2415,6.2415,6.2415,6.2415,6.2415,6.2415,6.2415,6.2415,6.2415,6.2415,6.2415,6.2415,6.2415,6.2415,6.2415,6.2415,6.2415,6.2448,6.255,6.2854,6.299,6.3091,6.3328,6.3768,6.4038,6.4174,6.4444,6.5087,6.4952,6.4918,6.5222,6.5561,6.5865,6.6271,6.6609,6.6745,6.6812,6.6812,6.6812,6.6812,6.6812,6.6981,6.732,6.7421,6.7895,6.8132,6.8132,6.8267,6.8368,6.8301,6.8301,6.8301,6.8335,6.8132,6.8064,6.8402,6.8673,6.8707,6.8944,6.9248,6.9755,7.0195,7.0026,6.9755,6.9722,6.9519,6.9316,6.9316,6.962,6.9789,7.0297,7.0432,7.0466,7.0432,7.0128,7.0195,7.0297,7.0263,7.0229,6.9755,6.9248,6.9011,6.8808,6.8673,6.8571,6.8504,6.8132,6.2415,6.2415,6.2415,6.2415,6.2415,6.2415,6.2415,6.2415,6.2415,6.2415,6.2415,6.2415,6.2415,6.2415,6.2415,6.2415,6.2415,6.2415,6.2415,6.2415,6.2415,6.2415,6.2415,6.2415,6.2415,6.2415,6.2415,6.2415,6.2415,6.2415,6.2415,6.2415,6.2415,6.2415,6.2415,6.2415,6.2415,6.2415,6.2415,6.2415,6.2415,6.2415,6.2516,6.2618,6.2685,6.2753,6.3024,6.3429,6.3768,6.3903,6.4174,6.4512,6.4783,6.4918,6.5222,6.5846,6.6038,6.6154,6.6057,6.6102,6.6305,6.6609,6.6812,6.6812,6.6812,6.6812,6.6812,6.6812,6.7117,6.7421,6.7793,6.7996,6.8605,6.8944,6.9113,6.9214,6.9282,6.9079,6.891,6.8808,6.8944,6.9282,6.9282,6.9553,6.962,6.9451,6.9586,6.9857,7.0331,7.0939,7.0804,7.0432,7.0398,7.0297,7.0229,7.0161,7.0398,7.05,7.1007,7.1176,7.1007,7.1041,7.0939,7.1142,7.1312,7.1142,7.077,7.0161,6.9654,6.9789,6.9789,6.9485,6.935,6.9282,6.9045,6.2415,6.2415,6.2415,6.2415,6.2415,6.2415,6.2415,6.2415,6.2415,6.2415,6.2415,6.2415,6.2415,6.2415,6.2415,6.2415,6.2415,6.2415,6.2415,6.2415,6.2415,6.2415,6.2415,6.2415,6.2415,6.2415,6.2415,6.2415,6.2415,6.2415,6.2415,6.2415,6.2448,6.2415,6.2448,6.2516,6.2651,6.2685,6.2719,6.2651,6.2618,6.2651,6.2854,6.3328,6.3497,6.3734,6.4377,6.4478,6.4546,6.4546,6.4816,6.5121,6.5527,6.5759,6.6173,6.667,6.7174,6.7215,6.7012,6.6833,6.6719,6.6779,6.6812,6.6812,6.6812,6.6846,6.6846,6.7015,6.7489,6.7929,6.8233,6.8571,6.9282,6.9755,6.9925,6.9925,6.9857,6.962,6.9451,6.9316,6.9553,6.9958,7.0195,7.0364,7.0331,7.0195,7.0364,7.0635,7.0737,7.1176,7.121,7.1075,7.1109,7.1109,7.1109,7.1109,7.0939,7.0906,7.1176,7.1278,7.1244,7.1312,7.1312,7.1312,7.1312,7.1312,7.1278,7.0804,7.0534,7.0804,7.077,7.0331,7.0026,6.9925,6.9586,6.2415,6.2415,6.2415,6.2415,6.2415,6.2415,6.2415,6.2415,6.2415,6.2415,6.2415,6.2415,6.2415,6.2415,6.2415,6.2415,6.2415,6.2415,6.2415,6.2415,6.2415,6.2415,6.2415,6.2415,6.2415,6.2415,6.2415,6.2415,6.2415,6.2482,6.2787,6.2821,6.2719,6.2448,6.2482,6.2922,6.326,6.3632,6.37,6.3734,6.3734,6.3734,6.3869,6.4106,6.4174,6.4275,6.458,6.5053,6.5189,6.5358,6.5662,6.6042,6.637,6.6732,6.7106,6.7461,6.7896,6.8088,6.8088,6.7731,6.7325,6.6854,6.6812,6.688,6.7015,6.7218,6.7421,6.7726,6.8199,6.8707,6.9316,6.9586,6.9992,7.0534,7.0703,7.0601,7.0466,7.0229,7.0195,7.0161,7.0432,7.0838,7.0973,7.1075,7.1007,7.0939,7.1142,7.1312,7.1312,7.1312,7.1312,7.1312,7.1312,7.1312,7.1312,7.1312,7.1312,7.1312,7.1312,7.1312,7.1312,7.1312,7.1312,7.1312,7.1312,7.1312,7.1312,7.1312,7.1244,7.1176,7.1109,7.0973,7.0737,7.05,7.0195,6.2415,6.2415,6.2415,6.2415,6.2415,6.2415,6.2415,6.2415,6.2415,6.2415,6.2415,6.2415,6.2415,6.2415,6.2415,6.2415,6.2415,6.2415,6.2415,6.2415,6.2415,6.2415,6.2415,6.2415,6.2415,6.2415,6.2415,6.2415,6.2821,6.2753,6.3193,6.3497,6.3362,6.3193,6.326,6.3565,6.4106,6.4478,6.4613,6.4613,6.4546,6.4546,6.4749,6.4816,6.4918,6.5155,6.5392,6.5831,6.5967,6.617,6.6448,6.6878,6.7243,6.761,6.7935,6.8132,6.8482,6.8932,6.8882,6.8435,6.7874,6.7701,6.7269,6.7362,6.7557,6.7963,6.8233,6.8335,6.8977,6.9654,7.0273,7.0331,7.0567,7.1041,7.1075,7.1007,7.1041,7.0906,7.1007,7.1041,7.1244,7.121,7.121,7.1244,7.121,7.1142,7.121,7.1312,7.1312,7.1312,7.1312,7.1312,7.1312,7.1312,7.1312,7.1312,7.1312,7.1312,7.1312,7.1312,7.1312,7.1312,7.1312,7.1312,7.1312,7.1312,7.1312,7.1312,7.1312,7.1312,7.1244,7.1176,7.1142,7.0906,7.0872,6.2415,6.2415,6.2415,6.2415,6.2415,6.2415,6.2415,6.2415,6.2415,6.2415,6.2415,6.2415,6.2415,6.2415,6.2415,6.2415,6.2415,6.2415,6.2415,6.2415,6.2415,6.2415,6.2415,6.2415,6.2415,6.2415,6.255,6.2888,6.3396,6.3463,6.3903,6.4444,6.4546,6.4478,6.4546,6.4546,6.4613,6.4647,6.4783,6.485,6.4884,6.4952,6.5256,6.5527,6.5662,6.5899,6.6271,6.644,6.6542,6.6643,6.6677,6.7112,6.7736,6.7975,6.8245,6.8466,6.9598,6.9879,6.9341,6.8512,6.8566,6.8732,6.8326,6.8098,6.8741,6.9045,6.9175,6.9338,6.9809,7.0182,7.051,7.077,7.1109,7.1278,7.1312,7.1312,7.1312,7.1312,7.1312,7.1312,7.1312,7.1312,7.1312,7.1312,7.1312,7.1278,7.1312,7.1312,7.1312,7.1312,7.1312,7.1312,7.1312,7.1312,7.1312,7.1312,7.1312,7.1312,7.1312,7.1312,7.1312,7.1312,7.1312,7.1312,7.1312,7.1312,7.1312,7.1312,7.1312,7.1312,7.1312,7.1278,7.1312,7.1278,7.1176,6.2415,6.2415,6.2415,6.2415,6.2415,6.2415,6.2415,6.2415,6.2415,6.2415,6.2415,6.2415,6.2415,6.2415,6.2415,6.2415,6.2415,6.2415,6.2415,6.2415,6.2415,6.2415,6.2415,6.2415,6.2415,6.255,6.2787,6.3159,6.3497,6.3971,6.4647,6.5189,6.5662,6.5764,6.5459,6.5358,6.5493,6.5967,6.6102,6.6102,6.6068,6.6034,6.6136,6.6406,6.6373,6.6542,6.6779,6.6812,6.6812,6.6812,6.6812,6.7319,6.8054,6.8405,6.9297,6.9981,7.1158,7.1019,7.0737,7.043,7.0158,6.9842,6.927,6.8885,6.9113,6.962,6.9993,7.0422,7.0663,7.1056,7.1764,7.1298,7.1323,7.1278,7.1312,7.1312,7.1312,7.1312,7.1312,7.1312,7.1312,7.1312,7.1312,7.1312,7.1312,7.1312,7.1312,7.1312,7.1312,7.1312,7.1312,7.1312,7.1312,7.1312,7.1312,7.1312,7.1312,7.1312,7.1312,7.1312,7.1312,7.1447,7.1413,7.1481,7.1379,7.1312,7.1447,7.1548,7.1379,7.1312,7.1481,7.1413,7.1312,7.1312,7.1278,6.2415,6.2415,6.2415,6.2415,6.2415,6.2415,6.2415,6.2415,6.2415,6.2415,6.2415,6.2415,6.2415,6.2415,6.2415,6.2415,6.2415,6.2415,6.2415,6.2415,6.2415,6.2415,6.2415,6.2448,6.2618,6.2821,6.326,6.3666,6.441,6.4783,6.5358,6.6034,6.6542,6.6406,6.617,6.6136,6.6237,6.6576,6.6609,6.6643,6.6677,6.6711,6.6745,6.6779,6.6779,6.6812,6.6812,6.6812,6.6812,6.6896,6.7154,6.761,6.8405,6.9479,7.0452,7.1337,7.1872,7.2011,7.2215,7.1861,7.1463,7.1118,7.0106,6.9708,6.9823,7.0364,7.0958,7.1379,7.145,7.1858,7.2193,7.1688,7.1356,7.1312,7.1312,7.1312,7.1312,7.1312,7.1312,7.1312,7.1312,7.1312,7.1312,7.1312,7.1312,7.1312,7.1312,7.1312,7.1345,7.1312,7.1312,7.1312,7.1312,7.1345,7.1345,7.1312,7.1312,7.1312,7.1413,7.1548,7.1718,7.1887,7.1751,7.1684,7.1785,7.1853,7.1853,7.1853,7.2056,7.2022,7.1954,7.1785,7.1413,7.1312,7.1312,6.2415,6.2415,6.2415,6.2415,6.2415,6.2415,6.2415,6.2415,6.2415,6.2415,6.2415,6.2415,6.2415,6.2415,6.2415,6.2415,6.2415,6.2415,6.2415,6.2415,6.2415,6.2415,6.2448,6.2516,6.2888,6.3328,6.3835,6.4546,6.5527,6.5696,6.6102,6.6542,6.6745,6.6711,6.6643,6.6643,6.6677,6.6779,6.6812,6.6812,6.6812,6.6812,6.6812,6.6812,6.6812,6.6812,6.6854,6.6938,6.698,6.7195,6.761,6.8443,6.9446,7.0736,7.1302,7.1908,7.2501,7.3145,7.3129,7.2603,7.2237,7.1713,7.0915,7.0836,7.0916,7.1185,7.1782,7.203,7.2108,7.2236,7.2398,7.1864,7.1312,7.1312,7.1312,7.1312,7.1312,7.1312,7.1312,7.1312,7.1312,7.1312,7.1312,7.1312,7.1312,7.1312,7.1345,7.1515,7.1515,7.1345,7.1345,7.1312,7.1345,7.1379,7.1413,7.1582,7.1853,7.2022,7.1921,7.2022,7.2225,7.2428,7.2428,7.2428,7.2428,7.2462,7.2496,7.2766,7.3138,7.3003,7.2631,7.2225,7.1853,7.1413,7.1312,6.2415,6.2415,6.2415,6.2415,6.2415,6.2415,6.2415,6.2415,6.2415,6.2415,6.2415,6.2415,6.2415,6.2415,6.2415,6.2415,6.2415,6.2415,6.2415,6.2415,6.2415,6.2415,6.2584,6.2888,6.326,6.3835,6.4478,6.5155,6.5696,6.6102,6.6474,6.6779,6.6812,6.6812,6.6812,6.6812,6.6812,6.6812,6.6812,6.6812,6.6812,6.6812,6.6812,6.6812,6.6812,6.6812,6.6854,6.7325,6.7488,6.7696,6.8409,6.9377,7.0913,7.1444,7.1869,7.3226,7.3791,7.4098,7.3123,7.2686,7.2313,7.183,7.123,7.1164,7.1378,7.183,7.2448,7.2783,7.2533,7.2533,7.2567,7.2133,7.1546,7.1312,7.1312,7.1312,7.1312,7.1312,7.1312,7.1312,7.1312,7.1312,7.1312,7.1312,7.1312,7.1312,7.1447,7.1684,7.1785,7.165,7.1684,7.1684,7.1718,7.1853,7.2022,7.2191,7.2529,7.2766,7.2631,7.2631,7.3003,7.3172,7.3172,7.3172,7.3172,7.3172,7.3172,7.3544,7.395,7.3578,7.3206,7.2766,7.2326,7.1988,7.165,6.211,6.2381,6.2415,6.2415,6.2415,6.2415,6.2415,6.2415,6.2415,6.2415,6.2415,6.2415,6.2415,6.2415,6.2415,6.2415,6.2415,6.2415,6.2415,6.2415,6.2415,6.2651,6.2922,6.3294,6.3869,6.4478,6.5121,6.5764,6.6136,6.6474,6.6812,6.6812,6.6812,6.6812,6.6812,6.6812,6.6812,6.6812,6.6812,6.6812,6.6812,6.6812,6.6812,6.6812,6.6812,6.6812,6.6938,6.761,6.7975,6.8353,6.9153,7.0487,7.1867,7.2363,7.3187,7.4297,7.4177,7.3733,7.2838,7.2193,7.1776,7.1546,7.159,7.1786,7.1883,7.2193,7.316,7.3799,7.3119,7.2658,7.2609,7.244,7.1864,7.1312,7.1312,7.1312,7.1312,7.1312,7.1312,7.1312,7.1312,7.1312,7.1312,7.1312,7.1481,7.1751,7.2022,7.2259,7.2326,7.2225,7.236,7.2496,7.2462,7.2496,7.2665,7.2868,7.3105,7.3274,7.3172,7.3308,7.3713,7.395,7.395,7.395,7.395,7.3916,7.3916,7.4289,7.4593,7.4255,7.4018,7.3713,7.3341,7.2902,7.2597,6.1738,6.2415,6.2415,6.2415,6.2415,6.2415,6.2415,6.2415,6.2415,6.2415,6.2415,6.2415,6.2415,6.2415,6.2415,6.2415,6.2415,6.2415,6.2415,6.2415,6.2415,6.2651,6.3057,6.3599,6.4241,6.5155,6.5865,6.6203,6.6609,6.6812,6.6812,6.6812,6.6812,6.6812,6.6812,6.6812,6.6812,6.6812,6.6812,6.6812,6.6812,6.6812,6.6812,6.6812,6.6812,6.6812,6.7029,6.7488,6.8128,6.8987,7.009,7.1547,7.2715,7.3645,7.4652,7.4471,7.404,7.3241,7.2398,7.1776,7.1501,7.1556,7.1969,7.2364,7.2575,7.3037,7.3994,7.4264,7.3721,7.3281,7.3195,7.2305,7.1501,7.1312,7.1312,7.1312,7.1312,7.1312,7.1312,7.1312,7.1312,7.1345,7.1684,7.1718,7.2022,7.2293,7.2563,7.2834,7.3071,7.2969,7.3003,7.324,7.3071,7.3071,7.3443,7.3612,7.3713,7.3747,7.3781,7.4052,7.4559,7.4695,7.4728,7.4695,7.4695,7.4695,7.4762,7.5033,7.5168,7.5168,7.4965,7.4762,7.439,7.3916,7.3409,6.1738,6.2381,6.2415,6.2415,6.2415,6.2415,6.2415,6.2415,6.2415,6.2415,6.2415,6.2415,6.2415,6.2415,6.2415,6.2415,6.2415,6.2415,6.2415,6.2415,6.2415,6.2685,6.299,6.3869,6.4546,6.5121,6.5797,6.6576,6.6745,6.6812,6.6812,6.6812,6.6812,6.6812,6.6812,6.6812,6.6812,6.6812,6.6812,6.6812,6.6812,6.6812,6.6812,6.6812,6.6812,6.6896,6.7319,6.8245,6.9098,7.0045,7.1509,7.2909,7.4232,7.4828,7.4724,7.4114,7.3402,7.2575,7.1917,7.1501,7.1367,7.16,7.2099,7.279,7.3402,7.4072,7.4452,7.4527,7.434,7.3956,7.3316,7.2176,7.1312,7.1312,7.1379,7.1379,7.1379,7.1413,7.1413,7.1413,7.1413,7.165,7.2022,7.2293,7.2597,7.2868,7.3105,7.3443,7.3984,7.4086,7.3747,7.3815,7.3544,7.3612,7.4052,7.4356,7.4458,7.4695,7.4864,7.5134,7.5337,7.527,7.5202,7.5371,7.5439,7.5303,7.5236,7.5439,7.5608,7.5642,7.5574,7.5236,7.527,7.4931,7.4289,6.1231,6.1907,6.2279,6.2415,6.2415,6.2415,6.2415,6.2415,6.2415,6.2415,6.2415,6.2415,6.2415,6.2415,6.2415,6.2415,6.2415,6.2415,6.2415,6.2415,6.255,6.2956,6.3497,6.4208,6.5087,6.5662,6.6271,6.6779,6.6812,6.6812,6.6812,6.6812,6.6812,6.6812,6.6812,6.6812,6.6812,6.6812,6.6812,6.6812,6.6812,6.6812,6.6812,6.6812,6.7071,6.7236,6.7994,6.9072,7.0269,7.141,7.2779,7.4191,7.5099,7.5226,7.4643,7.3878,7.3037,7.2142,7.1556,7.1356,7.1501,7.1873,7.2617,7.3482,7.4187,7.4752,7.4789,7.4789,7.4187,7.376,7.2949,7.1873,7.1457,7.1312,7.1751,7.2056,7.2293,7.2563,7.2529,7.2529,7.2529,7.2597,7.2868,7.2902,7.324,7.3747,7.395,7.4221,7.4728,7.4931,7.4695,7.4492,7.4221,7.439,7.4897,7.51,7.5168,7.5473,7.5676,7.5608,7.554,7.5608,7.5676,7.5676,7.5642,7.5642,7.5642,7.5676,7.5676,7.5676,7.5676,7.5608,7.5676,7.5676,7.5134,6.0655,6.1467,6.2144,6.2415,6.2415,6.2415,6.2415,6.2415,6.2415,6.2415,6.2415,6.2415,6.2415,6.2415,6.2415,6.2415,6.2415,6.2415,6.2415,6.2618,6.2618,6.3294,6.4038,6.4783,6.5595,6.6203,6.6745,6.6812,6.6812,6.6812,6.6812,6.6812,6.6812,6.6812,6.6812,6.6812,6.6812,6.6812,6.6812,6.6896,6.6896,6.6854,6.6938,6.7195,6.7569,6.8049,6.8914,7.0015,7.1409,7.2684,7.3888,7.4923,7.5292,7.5119,7.4305,7.3482,7.2617,7.1917,7.1501,7.1501,7.1873,7.2448,7.3402,7.4149,7.4789,7.4972,7.5009,7.4452,7.3838,7.3322,7.249,7.1951,7.158,7.165,7.2225,7.2699,7.3105,7.3443,7.3443,7.3443,7.3443,7.3443,7.3612,7.3612,7.395,7.4492,7.4864,7.5202,7.5405,7.5371,7.5236,7.5168,7.51,7.5337,7.5608,7.5574,7.554,7.5574,7.5676,7.5676,7.5676,7.5676,7.5676,7.5676,7.5676,7.5676,7.5676,7.5676,7.5676,7.5676,7.5676,7.5676,7.5676,7.5676,7.5676,6.0926,6.2178,6.2347,6.2381,6.2381,6.2381,6.2415,6.2381,6.2415,6.2415,6.2415,6.2415,6.2415,6.2415,6.2415,6.2415,6.2415,6.2415,6.2854,6.3226,6.299,6.3734,6.4478,6.5019,6.5933,6.6508,6.6812,6.6812,6.6812,6.6812,6.6812,6.6812,6.6812,6.6812,6.6812,6.6812,6.6812,6.6812,6.6896,6.6988,6.7366,6.7366,6.7284,6.7569,6.7896,6.8825,6.9895,7.0984,7.2193,7.3545,7.4791,7.5401,7.5156,7.4492,7.3721,7.2996,7.2185,7.182,7.1546,7.1907,7.2356,7.2873,7.3721,7.4302,7.4677,7.464,7.4264,7.3322,7.2832,7.2749,7.2142,7.1791,7.1481,7.2293,7.2935,7.3274,7.3612,7.3713,7.3747,7.3747,7.3747,7.3984,7.439,7.4458,7.4661,7.51,7.5303,7.5574,7.5574,7.5642,7.5676,7.5676,7.5676,7.5676,7.5676,7.5676,7.5642,7.5676,7.5676,7.5676,7.5676,7.5676,7.5676,7.5676,7.5676,7.5676,7.5676,7.5676,7.5676,7.5676,7.5676,7.5676,7.5676,7.5676,7.5676]}]]